﻿<?xml version="1.0" encoding="utf-8"?><gpx creator="Garmin Desktop App" version="1.1" xsi:schemaLocation="http://www.topografix.com/GPX/1/1 http://www.topografix.com/GPX/1/1/gpx.xsd http://www.garmin.com/xmlschemas/WaypointExtension/v1 http://www8.garmin.com/xmlschemas/WaypointExtensionv1.xsd http://www.garmin.com/xmlschemas/TrackPointExtension/v1 http://www.garmin.com/xmlschemas/TrackPointExtensionv1.xsd http://www.garmin.com/xmlschemas/GpxExtensions/v3 http://www8.garmin.com/xmlschemas/GpxExtensionsv3.xsd http://www.garmin.com/xmlschemas/ActivityExtension/v1 http://www8.garmin.com/xmlschemas/ActivityExtensionv1.xsd http://www.garmin.com/xmlschemas/AdventuresExtensions/v1 http://www8.garmin.com/xmlschemas/AdventuresExtensionv1.xsd http://www.garmin.com/xmlschemas/PressureExtension/v1 http://www.garmin.com/xmlschemas/PressureExtensionv1.xsd http://www.garmin.com/xmlschemas/TripExtensions/v1 http://www.garmin.com/xmlschemas/TripExtensionsv1.xsd http://www.garmin.com/xmlschemas/TripMetaDataExtensions/v1 http://www.garmin.com/xmlschemas/TripMetaDataExtensionsv1.xsd http://www.garmin.com/xmlschemas/ViaPointTransportationModeExtensions/v1 http://www.garmin.com/xmlschemas/ViaPointTransportationModeExtensionsv1.xsd http://www.garmin.com/xmlschemas/CreationTimeExtension/v1 http://www.garmin.com/xmlschemas/CreationTimeExtensionsv1.xsd http://www.garmin.com/xmlschemas/AccelerationExtension/v1 http://www.garmin.com/xmlschemas/AccelerationExtensionv1.xsd http://www.garmin.com/xmlschemas/PowerExtension/v1 http://www.garmin.com/xmlschemas/PowerExtensionv1.xsd http://www.garmin.com/xmlschemas/VideoExtension/v1 http://www.garmin.com/xmlschemas/VideoExtensionv1.xsd" xmlns="http://www.topografix.com/GPX/1/1" xmlns:xsi="http://www.w3.org/2001/XMLSchema-instance" xmlns:wptx1="http://www.garmin.com/xmlschemas/WaypointExtension/v1" xmlns:gpxtrx="http://www.garmin.com/xmlschemas/GpxExtensions/v3" xmlns:gpxtpx="http://www.garmin.com/xmlschemas/TrackPointExtension/v1" xmlns:gpxx="http://www.garmin.com/xmlschemas/GpxExtensions/v3" xmlns:trp="http://www.garmin.com/xmlschemas/TripExtensions/v1" xmlns:adv="http://www.garmin.com/xmlschemas/AdventuresExtensions/v1" xmlns:prs="http://www.garmin.com/xmlschemas/PressureExtension/v1" xmlns:tmd="http://www.garmin.com/xmlschemas/TripMetaDataExtensions/v1" xmlns:vptm="http://www.garmin.com/xmlschemas/ViaPointTransportationModeExtensions/v1" xmlns:ctx="http://www.garmin.com/xmlschemas/CreationTimeExtension/v1" xmlns:gpxacc="http://www.garmin.com/xmlschemas/AccelerationExtension/v1" xmlns:gpxpx="http://www.garmin.com/xmlschemas/PowerExtension/v1" xmlns:vidx1="http://www.garmin.com/xmlschemas/VideoExtension/v1">

  <metadata>
    <link href="http://www.garmin.com">
      <text>Garmin International</text>
    </link>
    <time>2014-09-29T06:27:13Z</time>
    <bounds maxlat="45.956988791003823" maxlon="9.539230177178979" minlat="45.932718403637409" minlon="9.501161919906735" />
  </metadata>

  <trk>
    <name>ferrata mario minonzio2014-09-28</name>
    <extensions>
      <gpxx:TrackExtension>
        <gpxx:DisplayColor>Yellow</gpxx:DisplayColor>
      </gpxx:TrackExtension>
      <gpxtrkx:TrackStatsExtension xmlns:gpxtrkx="http://www.garmin.com/xmlschemas/TrackStatsExtension/v1">
        <gpxtrkx:Distance>16621</gpxtrkx:Distance>
        <gpxtrkx:TotalElapsedTime>26611</gpxtrkx:TotalElapsedTime>
        <gpxtrkx:MovingTime>15914</gpxtrkx:MovingTime>
        <gpxtrkx:StoppedTime>10684</gpxtrkx:StoppedTime>
        <gpxtrkx:MovingSpeed>1</gpxtrkx:MovingSpeed>
        <gpxtrkx:MaxSpeed>2</gpxtrkx:MaxSpeed>
        <gpxtrkx:MaxElevation>2166</gpxtrkx:MaxElevation>
        <gpxtrkx:MinElevation>1629</gpxtrkx:MinElevation>
        <gpxtrkx:Ascent>858</gpxtrkx:Ascent>
        <gpxtrkx:Descent>865</gpxtrkx:Descent>
        <gpxtrkx:AvgAscentRate>0</gpxtrkx:AvgAscentRate>
        <gpxtrkx:MaxAscentRate>0</gpxtrkx:MaxAscentRate>
        <gpxtrkx:AvgDescentRate>0</gpxtrkx:AvgDescentRate>
        <gpxtrkx:MaxDescentRate>-1</gpxtrkx:MaxDescentRate>
      </gpxtrkx:TrackStatsExtension>
    </extensions>
    <trkseg>
      <trkpt lat="45.933256521821022" lon="9.524333858862519">
        <ele>1658.8900000000001</ele>
        <time>2014-09-28T06:53:55Z</time>
      </trkpt>
      <trkpt lat="45.933254342526197" lon="9.52433536760509">
        <ele>1658.8900000000001</ele>
        <time>2014-09-28T06:53:56Z</time>
      </trkpt>
      <trkpt lat="45.933255348354578" lon="9.524342240765691">
        <ele>1646.4000000000001</ele>
        <time>2014-09-28T06:53:59Z</time>
      </trkpt>
      <trkpt lat="45.933254929259419" lon="9.524342659860849">
        <ele>1646.4000000000001</ele>
        <time>2014-09-28T06:54:00Z</time>
      </trkpt>
      <trkpt lat="45.933251576498151" lon="9.524310473352671">
        <ele>1648.3199999999999</ele>
        <time>2014-09-28T06:54:09Z</time>
      </trkpt>
      <trkpt lat="45.933251157402992" lon="9.524323716759682">
        <ele>1646.8800000000001</ele>
        <time>2014-09-28T06:54:22Z</time>
      </trkpt>
      <trkpt lat="45.933269094675779" lon="9.524325644597411">
        <ele>1647.3599999999999</ele>
        <time>2014-09-28T06:54:37Z</time>
      </trkpt>
      <trkpt lat="45.933267837390304" lon="9.524344755336642">
        <ele>1646.8800000000001</ele>
        <time>2014-09-28T06:54:50Z</time>
      </trkpt>
      <trkpt lat="45.933229280635715" lon="9.524361351504922">
        <ele>1647.3599999999999</ele>
        <time>2014-09-28T06:55:06Z</time>
      </trkpt>
      <trkpt lat="45.933224838227034" lon="9.524388760328293">
        <ele>1646.8800000000001</ele>
        <time>2014-09-28T06:55:16Z</time>
      </trkpt>
      <trkpt lat="45.93321536667645" lon="9.524415414780378">
        <ele>1647.3599999999999</ele>
        <time>2014-09-28T06:55:18Z</time>
      </trkpt>
      <trkpt lat="45.933246463537216" lon="9.524637199938297">
        <ele>1646.8800000000001</ele>
        <time>2014-09-28T06:55:30Z</time>
      </trkpt>
      <trkpt lat="45.933270435780287" lon="9.524831157177687">
        <ele>1647.3599999999999</ele>
        <time>2014-09-28T06:55:41Z</time>
      </trkpt>
      <trkpt lat="45.933249229565263" lon="9.524850603193045">
        <ele>1647.3599999999999</ele>
        <time>2014-09-28T06:55:47Z</time>
      </trkpt>
      <trkpt lat="45.93329013325274" lon="9.525023270398378">
        <ele>1647.3599999999999</ele>
        <time>2014-09-28T06:55:59Z</time>
      </trkpt>
      <trkpt lat="45.933303628116846" lon="9.525065682828426">
        <ele>1647.8399999999999</ele>
        <time>2014-09-28T06:56:02Z</time>
      </trkpt>
      <trkpt lat="45.933366743847728" lon="9.525181939825416">
        <ele>1647.8399999999999</ele>
        <time>2014-09-28T06:56:11Z</time>
      </trkpt>
      <trkpt lat="45.933406474068761" lon="9.525256957858801">
        <ele>1648.3199999999999</ele>
        <time>2014-09-28T06:56:17Z</time>
      </trkpt>
      <trkpt lat="45.933472104370594" lon="9.525441778823733">
        <ele>1649.28</ele>
        <time>2014-09-28T06:56:30Z</time>
      </trkpt>
      <trkpt lat="45.933546535670757" lon="9.525720058009028">
        <ele>1649.76</ele>
        <time>2014-09-28T06:56:48Z</time>
      </trkpt>
      <trkpt lat="45.933555252850056" lon="9.525743527337909">
        <ele>1649.76</ele>
        <time>2014-09-28T06:56:51Z</time>
      </trkpt>
      <trkpt lat="45.933572351932526" lon="9.525764482095838">
        <ele>1649.76</ele>
        <time>2014-09-28T06:56:53Z</time>
      </trkpt>
      <trkpt lat="45.933638988062739" lon="9.525906555354595">
        <ele>1649.28</ele>
        <time>2014-09-28T06:57:06Z</time>
      </trkpt>
      <trkpt lat="45.933648375794291" lon="9.525898927822709">
        <ele>1649.76</ele>
        <time>2014-09-28T06:57:10Z</time>
      </trkpt>
      <trkpt lat="45.933722890913486" lon="9.525961540639401">
        <ele>1650.24</ele>
        <time>2014-09-28T06:57:17Z</time>
      </trkpt>
      <trkpt lat="45.933761363849044" lon="9.526053993031383">
        <ele>1649.76</ele>
        <time>2014-09-28T06:57:23Z</time>
      </trkpt>
      <trkpt lat="45.933813750743866" lon="9.526210650801659">
        <ele>1650.24</ele>
        <time>2014-09-28T06:57:35Z</time>
      </trkpt>
      <trkpt lat="45.933856079354882" lon="9.526360519230366">
        <ele>1650.72</ele>
        <time>2014-09-28T06:57:44Z</time>
      </trkpt>
      <trkpt lat="45.933860102668405" lon="9.526390610262752">
        <ele>1650.72</ele>
        <time>2014-09-28T06:57:46Z</time>
      </trkpt>
      <trkpt lat="45.93391316011548" lon="9.526625974103808">
        <ele>1651.2</ele>
        <time>2014-09-28T06:58:02Z</time>
      </trkpt>
      <trkpt lat="45.933939982205629" lon="9.526867205277085">
        <ele>1650.72</ele>
        <time>2014-09-28T06:58:17Z</time>
      </trkpt>
      <trkpt lat="45.933963367715478" lon="9.527006763964891">
        <ele>1650.24</ele>
        <time>2014-09-28T06:58:26Z</time>
      </trkpt>
      <trkpt lat="45.933976778760552" lon="9.527233578264713">
        <ele>1650.72</ele>
        <time>2014-09-28T06:58:39Z</time>
      </trkpt>
      <trkpt lat="45.933955824002624" lon="9.527362240478396">
        <ele>1650.72</ele>
        <time>2014-09-28T06:58:48Z</time>
      </trkpt>
      <trkpt lat="45.933978958055377" lon="9.527406580746174">
        <ele>1650.72</ele>
        <time>2014-09-28T06:58:58Z</time>
      </trkpt>
      <trkpt lat="45.934060933068395" lon="9.527469947934151">
        <ele>1651.2</ele>
        <time>2014-09-28T06:59:14Z</time>
      </trkpt>
      <trkpt lat="45.933958757668734" lon="9.527513198554516">
        <ele>1651.2</ele>
        <time>2014-09-28T07:01:30Z</time>
      </trkpt>
      <trkpt lat="45.933942161500454" lon="9.527458129450679">
        <ele>1650.72</ele>
        <time>2014-09-28T07:01:31Z</time>
      </trkpt>
      <trkpt lat="45.933938724920154" lon="9.52742837369442">
        <ele>1650.72</ele>
        <time>2014-09-28T07:01:35Z</time>
      </trkpt>
      <trkpt lat="45.933903772383928" lon="9.527524262666702">
        <ele>1649.28</ele>
        <time>2014-09-28T07:01:42Z</time>
      </trkpt>
      <trkpt lat="45.933917099609971" lon="9.52760573476553">
        <ele>1648.8</ele>
        <time>2014-09-28T07:01:47Z</time>
      </trkpt>
      <trkpt lat="45.93392045237124" lon="9.52763993293047">
        <ele>1647.8399999999999</ele>
        <time>2014-09-28T07:01:49Z</time>
      </trkpt>
      <trkpt lat="45.933907125145197" lon="9.527856772765517">
        <ele>1644.95</ele>
        <time>2014-09-28T07:02:03Z</time>
      </trkpt>
      <trkpt lat="45.933879800140858" lon="9.52793606556952">
        <ele>1644.47</ele>
        <time>2014-09-28T07:02:08Z</time>
      </trkpt>
      <trkpt lat="45.933861024677753" lon="9.527940340340138">
        <ele>1643.51</ele>
        <time>2014-09-28T07:02:14Z</time>
      </trkpt>
      <trkpt lat="45.933832693845034" lon="9.528007479384542">
        <ele>1642.55</ele>
        <time>2014-09-28T07:02:18Z</time>
      </trkpt>
      <trkpt lat="45.933744348585606" lon="9.528132369741797">
        <ele>1640.6300000000001</ele>
        <time>2014-09-28T07:02:26Z</time>
      </trkpt>
      <trkpt lat="45.933724902570248" lon="9.528123065829277">
        <ele>1639.6700000000001</ele>
        <time>2014-09-28T07:02:39Z</time>
      </trkpt>
      <trkpt lat="45.933739151805639" lon="9.528121808543801">
        <ele>1639.6700000000001</ele>
        <time>2014-09-28T07:02:58Z</time>
      </trkpt>
      <trkpt lat="45.933737391605973" lon="9.528126921504736">
        <ele>1640.1500000000001</ele>
        <time>2014-09-28T07:03:21Z</time>
      </trkpt>
      <trkpt lat="45.933681568130851" lon="9.528200514614582">
        <ele>1639.1900000000001</ele>
        <time>2014-09-28T07:03:26Z</time>
      </trkpt>
      <trkpt lat="45.933603700250387" lon="9.528333954513073">
        <ele>1637.74</ele>
        <time>2014-09-28T07:03:34Z</time>
      </trkpt>
      <trkpt lat="45.933517785742879" lon="9.528443841263652">
        <ele>1636.78</ele>
        <time>2014-09-28T07:03:43Z</time>
      </trkpt>
      <trkpt lat="45.933479312807322" lon="9.528609132394195">
        <ele>1636.3</ele>
        <time>2014-09-28T07:03:54Z</time>
      </trkpt>
      <trkpt lat="45.933396583423018" lon="9.528868049383164">
        <ele>1634.3800000000001</ele>
        <time>2014-09-28T07:04:10Z</time>
      </trkpt>
      <trkpt lat="45.933266496285796" lon="9.529136354103684">
        <ele>1632.9400000000001</ele>
        <time>2014-09-28T07:04:28Z</time>
      </trkpt>
      <trkpt lat="45.933081926777959" lon="9.529346488416195">
        <ele>1631.49</ele>
        <time>2014-09-28T07:04:45Z</time>
      </trkpt>
      <trkpt lat="45.932948319241405" lon="9.529557209461927">
        <ele>1631.01</ele>
        <time>2014-09-28T07:05:00Z</time>
      </trkpt>
      <trkpt lat="45.932826362550259" lon="9.529825430363417">
        <ele>1629.0899999999999</ele>
        <time>2014-09-28T07:05:16Z</time>
      </trkpt>
      <trkpt lat="45.932732485234737" lon="9.530028440058231">
        <ele>1629.5699999999999</ele>
        <time>2014-09-28T07:05:30Z</time>
      </trkpt>
      <trkpt lat="45.932722594588995" lon="9.530058531090617">
        <ele>1629.5699999999999</ele>
        <time>2014-09-28T07:05:32Z</time>
      </trkpt>
      <trkpt lat="45.932718403637409" lon="9.530275203287602">
        <ele>1630.05</ele>
        <time>2014-09-28T07:05:44Z</time>
      </trkpt>
      <trkpt lat="45.932732485234737" lon="9.530488774180412">
        <ele>1630.53</ele>
        <time>2014-09-28T07:06:00Z</time>
      </trkpt>
      <trkpt lat="45.932755367830396" lon="9.530731849372387">
        <ele>1631.98</ele>
        <time>2014-09-28T07:06:16Z</time>
      </trkpt>
      <trkpt lat="45.932781519368291" lon="9.531057486310601">
        <ele>1632.9400000000001</ele>
        <time>2014-09-28T07:06:35Z</time>
      </trkpt>
      <trkpt lat="45.932848155498505" lon="9.531240295618773">
        <ele>1633.9000000000001</ele>
        <time>2014-09-28T07:06:48Z</time>
      </trkpt>
      <trkpt lat="45.932959215715528" lon="9.531429223716259">
        <ele>1635.8199999999999</ele>
        <time>2014-09-28T07:07:04Z</time>
      </trkpt>
      <trkpt lat="45.932991821318865" lon="9.531493596732616">
        <ele>1636.3</ele>
        <time>2014-09-28T07:07:09Z</time>
      </trkpt>
      <trkpt lat="45.933023085817695" lon="9.531528884544969">
        <ele>1636.78</ele>
        <time>2014-09-28T07:07:13Z</time>
      </trkpt>
      <trkpt lat="45.933123584836721" lon="9.531710268929601">
        <ele>1636.78</ele>
        <time>2014-09-28T07:07:28Z</time>
      </trkpt>
      <trkpt lat="45.933260126039386" lon="9.531769445165992">
        <ele>1637.74</ele>
        <time>2014-09-28T07:07:42Z</time>
      </trkpt>
      <trkpt lat="45.933394068852067" lon="9.531847564503551">
        <ele>1637.74</ele>
        <time>2014-09-28T07:07:57Z</time>
      </trkpt>
      <trkpt lat="45.933568747714162" lon="9.532029703259468">
        <ele>1637.26</ele>
        <time>2014-09-28T07:08:14Z</time>
      </trkpt>
      <trkpt lat="45.933731775730848" lon="9.532207818701863">
        <ele>1637.74</ele>
        <time>2014-09-28T07:08:31Z</time>
      </trkpt>
      <trkpt lat="45.933862617239356" lon="9.53232491388917">
        <ele>1639.1900000000001</ele>
        <time>2014-09-28T07:08:44Z</time>
      </trkpt>
      <trkpt lat="45.933888601139188" lon="9.532343270257115">
        <ele>1639.1900000000001</ele>
        <time>2014-09-28T07:08:47Z</time>
      </trkpt>
      <trkpt lat="45.933935958892107" lon="9.532434465363622">
        <ele>1640.6300000000001</ele>
        <time>2014-09-28T07:08:55Z</time>
      </trkpt>
      <trkpt lat="45.933955572545528" lon="9.532455168664455">
        <ele>1641.1099999999999</ele>
        <time>2014-09-28T07:08:57Z</time>
      </trkpt>
      <trkpt lat="45.934021370485425" lon="9.532544519752264">
        <ele>1643.03</ele>
        <time>2014-09-28T07:09:07Z</time>
      </trkpt>
      <trkpt lat="45.934072667732835" lon="9.532632362097502">
        <ele>1643.51</ele>
        <time>2014-09-28T07:09:15Z</time>
      </trkpt>
      <trkpt lat="45.934158246964216" lon="9.532717522233725">
        <ele>1644.95</ele>
        <time>2014-09-28T07:09:29Z</time>
      </trkpt>
      <trkpt lat="45.934170065447688" lon="9.532727245241404">
        <ele>1644.47</ele>
        <time>2014-09-28T07:09:37Z</time>
      </trkpt>
      <trkpt lat="45.934207029640675" lon="9.532901672646403">
        <ele>1645.9100000000001</ele>
        <time>2014-09-28T07:09:51Z</time>
      </trkpt>
      <trkpt lat="45.934213483706117" lon="9.532960932701826">
        <ele>1646.8800000000001</ele>
        <time>2014-09-28T07:09:56Z</time>
      </trkpt>
      <trkpt lat="45.934146512299776" lon="9.533117339015007">
        <ele>1647.8399999999999</ele>
        <time>2014-09-28T07:10:08Z</time>
      </trkpt>
      <trkpt lat="45.934136789292097" lon="9.533304758369923">
        <ele>1648.3199999999999</ele>
        <time>2014-09-28T07:10:20Z</time>
      </trkpt>
      <trkpt lat="45.934196384623647" lon="9.533461332321167">
        <ele>1649.28</ele>
        <time>2014-09-28T07:10:34Z</time>
      </trkpt>
      <trkpt lat="45.934293027967215" lon="9.533550515770912">
        <ele>1651.6800000000001</ele>
        <time>2014-09-28T07:10:48Z</time>
      </trkpt>
      <trkpt lat="45.934385983273387" lon="9.533565435558558">
        <ele>1654.5699999999999</ele>
        <time>2014-09-28T07:11:02Z</time>
      </trkpt>
      <trkpt lat="45.934500563889742" lon="9.53356602229178">
        <ele>1657.45</ele>
        <time>2014-09-28T07:11:18Z</time>
      </trkpt>
      <trkpt lat="45.93458698131144" lon="9.533594353124499">
        <ele>1659.3699999999999</ele>
        <time>2014-09-28T07:11:32Z</time>
      </trkpt>
      <trkpt lat="45.934678008779883" lon="9.533645231276751">
        <ele>1662.26</ele>
        <time>2014-09-28T07:11:47Z</time>
      </trkpt>
      <trkpt lat="45.934732323512435" lon="9.533659396693111">
        <ele>1663.7</ele>
        <time>2014-09-28T07:11:55Z</time>
      </trkpt>
      <trkpt lat="45.934822512790561" lon="9.533702563494444">
        <ele>1666.5799999999999</ele>
        <time>2014-09-28T07:12:09Z</time>
      </trkpt>
      <trkpt lat="45.93486500903964" lon="9.533730810508132">
        <ele>1667.54</ele>
        <time>2014-09-28T07:12:15Z</time>
      </trkpt>
      <trkpt lat="45.934934159740806" lon="9.533818904310465">
        <ele>1670.4300000000001</ele>
        <time>2014-09-28T07:12:28Z</time>
      </trkpt>
      <trkpt lat="45.934966849163175" lon="9.533933233469725">
        <ele>1671.8699999999999</ele>
        <time>2014-09-28T07:12:42Z</time>
      </trkpt>
      <trkpt lat="45.934965675696731" lon="9.533969610929489">
        <ele>1672.3499999999999</ele>
        <time>2014-09-28T07:12:45Z</time>
      </trkpt>
      <trkpt lat="45.934973722323775" lon="9.53400481492281">
        <ele>1672.8299999999999</ele>
        <time>2014-09-28T07:12:48Z</time>
      </trkpt>
      <trkpt lat="45.934987384825945" lon="9.53402342274785">
        <ele>1672.8299999999999</ele>
        <time>2014-09-28T07:12:50Z</time>
      </trkpt>
      <trkpt lat="45.935059804469347" lon="9.534202208742499">
        <ele>1674.27</ele>
        <time>2014-09-28T07:13:05Z</time>
      </trkpt>
      <trkpt lat="45.935150496661663" lon="9.534311927855015">
        <ele>1676.2</ele>
        <time>2014-09-28T07:13:19Z</time>
      </trkpt>
      <trkpt lat="45.935213947668672" lon="9.534365739673376">
        <ele>1676.6800000000001</ele>
        <time>2014-09-28T07:13:26Z</time>
      </trkpt>
      <trkpt lat="45.935247894376516" lon="9.534404883161187">
        <ele>1677.6400000000001</ele>
        <time>2014-09-28T07:13:31Z</time>
      </trkpt>
      <trkpt lat="45.935290055349469" lon="9.53441770747304">
        <ele>1678.5999999999999</ele>
        <time>2014-09-28T07:13:36Z</time>
      </trkpt>
      <trkpt lat="45.935308746993542" lon="9.534485684707761">
        <ele>1679.0799999999999</ele>
        <time>2014-09-28T07:13:41Z</time>
      </trkpt>
      <trkpt lat="45.935298940166831" lon="9.534658016636968">
        <ele>1680.52</ele>
        <time>2014-09-28T07:13:54Z</time>
      </trkpt>
      <trkpt lat="45.93529986217618" lon="9.534683078527451">
        <ele>1681</ele>
        <time>2014-09-28T07:13:56Z</time>
      </trkpt>
      <trkpt lat="45.935304136946797" lon="9.53473873436451">
        <ele>1681.48</ele>
        <time>2014-09-28T07:14:00Z</time>
      </trkpt>
      <trkpt lat="45.935316625982523" lon="9.534892877563834">
        <ele>1683.4100000000001</ele>
        <time>2014-09-28T07:14:13Z</time>
      </trkpt>
      <trkpt lat="45.935312267392874" lon="9.535072920843959">
        <ele>1685.3299999999999</ele>
        <time>2014-09-28T07:14:28Z</time>
      </trkpt>
      <trkpt lat="45.935303801670671" lon="9.535126313567162">
        <ele>1685.8099999999999</ele>
        <time>2014-09-28T07:14:33Z</time>
      </trkpt>
      <trkpt lat="45.935341939330101" lon="9.535188674926758">
        <ele>1685.8099999999999</ele>
        <time>2014-09-28T07:14:39Z</time>
      </trkpt>
      <trkpt lat="45.9354317933321" lon="9.535253550857306">
        <ele>1687.25</ele>
        <time>2014-09-28T07:14:51Z</time>
      </trkpt>
      <trkpt lat="45.935567580163479" lon="9.535322533920407">
        <ele>1688.6900000000001</ele>
        <time>2014-09-28T07:15:06Z</time>
      </trkpt>
      <trkpt lat="45.935674365609884" lon="9.535408113151789">
        <ele>1690.1400000000001</ele>
        <time>2014-09-28T07:15:21Z</time>
      </trkpt>
      <trkpt lat="45.935752736404538" lon="9.535498721525073">
        <ele>1691.5799999999999</ele>
        <time>2014-09-28T07:15:36Z</time>
      </trkpt>
      <trkpt lat="45.935844015330076" lon="9.535564351826906">
        <ele>1693.02</ele>
        <time>2014-09-28T07:15:50Z</time>
      </trkpt>
      <trkpt lat="45.935954991728067" lon="9.535668957978487">
        <ele>1694.9400000000001</ele>
        <time>2014-09-28T07:16:06Z</time>
      </trkpt>
      <trkpt lat="45.936041157692671" lon="9.535759231075645">
        <ele>1695.9000000000001</ele>
        <time>2014-09-28T07:16:20Z</time>
      </trkpt>
      <trkpt lat="45.93612564727664" lon="9.535837015137076">
        <ele>1697.3399999999999</ele>
        <time>2014-09-28T07:16:32Z</time>
      </trkpt>
      <trkpt lat="45.936218686401844" lon="9.535983698442578">
        <ele>1699.27</ele>
        <time>2014-09-28T07:16:49Z</time>
      </trkpt>
      <trkpt lat="45.936218686401844" lon="9.535890240222216">
        <ele>1701.1900000000001</ele>
        <time>2014-09-28T07:17:01Z</time>
      </trkpt>
      <trkpt lat="45.93628691509366" lon="9.535854700952768">
        <ele>1703.5899999999999</ele>
        <time>2014-09-28T07:17:13Z</time>
      </trkpt>
      <trkpt lat="45.936291441321373" lon="9.53577658161521">
        <ele>1706</ele>
        <time>2014-09-28T07:17:26Z</time>
      </trkpt>
      <trkpt lat="45.936366626992822" lon="9.535791920498014">
        <ele>1708.8800000000001</ele>
        <time>2014-09-28T07:17:40Z</time>
      </trkpt>
      <trkpt lat="45.936354389414191" lon="9.535692427307367">
        <ele>1711.76</ele>
        <time>2014-09-28T07:17:55Z</time>
      </trkpt>
      <trkpt lat="45.936354640871286" lon="9.535679519176483">
        <ele>1712.25</ele>
        <time>2014-09-28T07:17:57Z</time>
      </trkpt>
      <trkpt lat="45.936452373862267" lon="9.535675831139088">
        <ele>1714.6500000000001</ele>
        <time>2014-09-28T07:18:12Z</time>
      </trkpt>
      <trkpt lat="45.936551196500659" lon="9.535689493641257">
        <ele>1717.53</ele>
        <time>2014-09-28T07:18:30Z</time>
      </trkpt>
      <trkpt lat="45.936636859551072" lon="9.535704497247934">
        <ele>1718.97</ele>
        <time>2014-09-28T07:18:42Z</time>
      </trkpt>
      <trkpt lat="45.936720175668597" lon="9.53570868819952">
        <ele>1721.3800000000001</ele>
        <time>2014-09-28T07:18:55Z</time>
      </trkpt>
      <trkpt lat="45.936804916709661" lon="9.535713298246265">
        <ele>1723.78</ele>
        <time>2014-09-28T07:19:12Z</time>
      </trkpt>
      <trkpt lat="45.936847496777773" lon="9.535719249397516">
        <ele>1725.7</ele>
        <time>2014-09-28T07:19:27Z</time>
      </trkpt>
      <trkpt lat="45.936833918094635" lon="9.535703239962459">
        <ele>1727.1500000000001</ele>
        <time>2014-09-28T07:19:43Z</time>
      </trkpt>
      <trkpt lat="45.936841880902648" lon="9.53565982170403">
        <ele>1727.1500000000001</ele>
        <time>2014-09-28T07:20:06Z</time>
      </trkpt>
      <trkpt lat="45.936934584751725" lon="9.535561250522733">
        <ele>1729.0699999999999</ele>
        <time>2014-09-28T07:20:20Z</time>
      </trkpt>
      <trkpt lat="45.937033910304308" lon="9.53557088971138">
        <ele>1730.03</ele>
        <time>2014-09-28T07:20:32Z</time>
      </trkpt>
      <trkpt lat="45.937037095427513" lon="9.535577930510044">
        <ele>1729.55</ele>
        <time>2014-09-28T07:20:47Z</time>
      </trkpt>
      <trkpt lat="45.937039023265243" lon="9.535569967702031">
        <ele>1729.55</ele>
        <time>2014-09-28T07:21:02Z</time>
      </trkpt>
      <trkpt lat="45.937042711302638" lon="9.53556845895946">
        <ele>1729.55</ele>
        <time>2014-09-28T07:21:19Z</time>
      </trkpt>
      <trkpt lat="45.937039107084274" lon="9.535568878054619">
        <ele>1729.55</ele>
        <time>2014-09-28T07:21:40Z</time>
      </trkpt>
      <trkpt lat="45.937035838142037" lon="9.535571979358792">
        <ele>1730.03</ele>
        <time>2014-09-28T07:21:56Z</time>
      </trkpt>
      <trkpt lat="45.937037095427513" lon="9.53557432629168">
        <ele>1729.55</ele>
        <time>2014-09-28T07:22:15Z</time>
      </trkpt>
      <trkpt lat="45.937042627483606" lon="9.535571727901697">
        <ele>1729.55</ele>
        <time>2014-09-28T07:22:38Z</time>
      </trkpt>
      <trkpt lat="45.937041286379099" lon="9.535575332120061">
        <ele>1729.55</ele>
        <time>2014-09-28T07:22:56Z</time>
      </trkpt>
      <trkpt lat="45.937046650797129" lon="9.535566950216889">
        <ele>1729.55</ele>
        <time>2014-09-28T07:23:22Z</time>
      </trkpt>
      <trkpt lat="45.937043968588114" lon="9.535568207502365">
        <ele>1729.55</ele>
        <time>2014-09-28T07:23:39Z</time>
      </trkpt>
      <trkpt lat="45.937034916132689" lon="9.535572901368141">
        <ele>1729.55</ele>
        <time>2014-09-28T07:24:00Z</time>
      </trkpt>
      <trkpt lat="45.937062492594123" lon="9.535588743165135">
        <ele>1729.55</ele>
        <time>2014-09-28T07:24:20Z</time>
      </trkpt>
      <trkpt lat="45.937186041846871" lon="9.535620342940092">
        <ele>1727.6300000000001</ele>
        <time>2014-09-28T07:24:31Z</time>
      </trkpt>
      <trkpt lat="45.937379244714975" lon="9.535646326839924">
        <ele>1726.6700000000001</ele>
        <time>2014-09-28T07:24:47Z</time>
      </trkpt>
      <trkpt lat="45.937561215832829" lon="9.535747915506363">
        <ele>1726.1800000000001</ele>
        <time>2014-09-28T07:25:03Z</time>
      </trkpt>
      <trkpt lat="45.937740253284574" lon="9.53579711727798">
        <ele>1725.22</ele>
        <time>2014-09-28T07:25:18Z</time>
      </trkpt>
      <trkpt lat="45.93787251971662" lon="9.535657726228237">
        <ele>1724.74</ele>
        <time>2014-09-28T07:25:32Z</time>
      </trkpt>
      <trkpt lat="45.937997326254845" lon="9.53554155305028">
        <ele>1722.8199999999999</ele>
        <time>2014-09-28T07:25:46Z</time>
      </trkpt>
      <trkpt lat="45.938118025660515" lon="9.535353127866983">
        <ele>1720.9000000000001</ele>
        <time>2014-09-28T07:26:02Z</time>
      </trkpt>
      <trkpt lat="45.938148032873869" lon="9.53527869656682">
        <ele>1719.9400000000001</ele>
        <time>2014-09-28T07:26:08Z</time>
      </trkpt>
      <trkpt lat="45.938177704811096" lon="9.535101167857647">
        <ele>1718.49</ele>
        <time>2014-09-28T07:26:22Z</time>
      </trkpt>
      <trkpt lat="45.938174519687891" lon="9.535085745155811">
        <ele>1718.49</ele>
        <time>2014-09-28T07:26:23Z</time>
      </trkpt>
      <trkpt lat="45.938177118077874" lon="9.535008631646633">
        <ele>1718.01</ele>
        <time>2014-09-28T07:26:27Z</time>
      </trkpt>
      <trkpt lat="45.93829614110291" lon="9.53470453619957">
        <ele>1715.6099999999999</ele>
        <time>2014-09-28T07:26:47Z</time>
      </trkpt>
      <trkpt lat="45.938383983448148" lon="9.534560199826956">
        <ele>1715.1300000000001</ele>
        <time>2014-09-28T07:26:58Z</time>
      </trkpt>
      <trkpt lat="45.93852580524981" lon="9.534374037757516">
        <ele>1715.6099999999999</ele>
        <time>2014-09-28T07:27:15Z</time>
      </trkpt>
      <trkpt lat="45.938664525747299" lon="9.53415778465569">
        <ele>1716.5699999999999</ele>
        <time>2014-09-28T07:27:34Z</time>
      </trkpt>
      <trkpt lat="45.938722193241119" lon="9.533952176570892">
        <ele>1717.05</ele>
        <time>2014-09-28T07:27:48Z</time>
      </trkpt>
      <trkpt lat="45.938741639256477" lon="9.533763835206628">
        <ele>1718.01</ele>
        <time>2014-09-28T07:28:02Z</time>
      </trkpt>
      <trkpt lat="45.938724707812071" lon="9.533581361174583">
        <ele>1718.97</ele>
        <time>2014-09-28T07:28:15Z</time>
      </trkpt>
      <trkpt lat="45.938718505203724" lon="9.533412046730518">
        <ele>1719.46</ele>
        <time>2014-09-28T07:28:26Z</time>
      </trkpt>
      <trkpt lat="45.938712889328599" lon="9.533378519117832">
        <ele>1720.9000000000001</ele>
        <time>2014-09-28T07:28:28Z</time>
      </trkpt>
      <trkpt lat="45.938711883500218" lon="9.533343482762575">
        <ele>1719.46</ele>
        <time>2014-09-28T07:28:30Z</time>
      </trkpt>
      <trkpt lat="45.938730407506227" lon="9.53313896432519">
        <ele>1719.46</ele>
        <time>2014-09-28T07:28:43Z</time>
      </trkpt>
      <trkpt lat="45.938774077221751" lon="9.532921789214015">
        <ele>1719.9400000000001</ele>
        <time>2014-09-28T07:28:58Z</time>
      </trkpt>
      <trkpt lat="45.938850268721581" lon="9.532738560810685">
        <ele>1720.4200000000001</ele>
        <time>2014-09-28T07:29:12Z</time>
      </trkpt>
      <trkpt lat="45.938931070268154" lon="9.532581400126219">
        <ele>1721.8599999999999</ele>
        <time>2014-09-28T07:29:26Z</time>
      </trkpt>
      <trkpt lat="45.938968705013394" lon="9.532521804794669">
        <ele>1722.3399999999999</ele>
        <time>2014-09-28T07:29:32Z</time>
      </trkpt>
      <trkpt lat="45.939084207639098" lon="9.532467238605022">
        <ele>1723.78</ele>
        <time>2014-09-28T07:29:44Z</time>
      </trkpt>
      <trkpt lat="45.939240865409374" lon="9.532505292445421">
        <ele>1725.7</ele>
        <time>2014-09-28T07:30:00Z</time>
      </trkpt>
      <trkpt lat="45.939397355541587" lon="9.532564636319876">
        <ele>1726.6700000000001</ele>
        <time>2014-09-28T07:30:15Z</time>
      </trkpt>
      <trkpt lat="45.939569603651762" lon="9.532549381256104">
        <ele>1726.6700000000001</ele>
        <time>2014-09-28T07:30:31Z</time>
      </trkpt>
      <trkpt lat="45.939753670245409" lon="9.53245441429317">
        <ele>1726.6700000000001</ele>
        <time>2014-09-28T07:30:48Z</time>
      </trkpt>
      <trkpt lat="45.939796082675457" lon="9.532382162287831">
        <ele>1725.22</ele>
        <time>2014-09-28T07:30:55Z</time>
      </trkpt>
      <trkpt lat="45.939914518967271" lon="9.532197676599026">
        <ele>1722.8199999999999</ele>
        <time>2014-09-28T07:31:10Z</time>
      </trkpt>
      <trkpt lat="45.940041420981288" lon="9.532045377418399">
        <ele>1720.4200000000001</ele>
        <time>2014-09-28T07:31:23Z</time>
      </trkpt>
      <trkpt lat="45.940106548368931" lon="9.531794004142284">
        <ele>1718.97</ele>
        <time>2014-09-28T07:31:39Z</time>
      </trkpt>
      <trkpt lat="45.940158432349563" lon="9.53156802803278">
        <ele>1718.49</ele>
        <time>2014-09-28T07:31:53Z</time>
      </trkpt>
      <trkpt lat="45.940210483968258" lon="9.531243732199073">
        <ele>1716.0899999999999</ele>
        <time>2014-09-28T07:32:12Z</time>
      </trkpt>
      <trkpt lat="45.940207969397306" lon="9.531208109110594">
        <ele>1716.0899999999999</ele>
        <time>2014-09-28T07:32:14Z</time>
      </trkpt>
      <trkpt lat="45.940308971330523" lon="9.53097777441144">
        <ele>1716.5699999999999</ele>
        <time>2014-09-28T07:32:30Z</time>
      </trkpt>
      <trkpt lat="45.94043436460197" lon="9.530704189091921">
        <ele>1715.1300000000001</ele>
        <time>2014-09-28T07:32:49Z</time>
      </trkpt>
      <trkpt lat="45.940603176131845" lon="9.53052825294435">
        <ele>1714.6500000000001</ele>
        <time>2014-09-28T07:33:05Z</time>
      </trkpt>
      <trkpt lat="45.940697304904461" lon="9.530350137501955">
        <ele>1714.6500000000001</ele>
        <time>2014-09-28T07:33:19Z</time>
      </trkpt>
      <trkpt lat="45.940797133371234" lon="9.530154503881931">
        <ele>1714.6500000000001</ele>
        <time>2014-09-28T07:33:34Z</time>
      </trkpt>
      <trkpt lat="45.94091565348208" lon="9.530094908550382">
        <ele>1716.0899999999999</ele>
        <time>2014-09-28T07:33:47Z</time>
      </trkpt>
      <trkpt lat="45.9410510212183" lon="9.530128771439195">
        <ele>1717.53</ele>
        <time>2014-09-28T07:34:01Z</time>
      </trkpt>
      <trkpt lat="45.941193010658026" lon="9.530166741460562">
        <ele>1719.9400000000001</ele>
        <time>2014-09-28T07:34:18Z</time>
      </trkpt>
      <trkpt lat="45.94130557961762" lon="9.530194234102964">
        <ele>1721.8599999999999</ele>
        <time>2014-09-28T07:34:32Z</time>
      </trkpt>
      <trkpt lat="45.941429464146495" lon="9.530181745067239">
        <ele>1723.3</ele>
        <time>2014-09-28T07:34:47Z</time>
      </trkpt>
      <trkpt lat="45.941561814397573" lon="9.530196497216821">
        <ele>1725.22</ele>
        <time>2014-09-28T07:35:02Z</time>
      </trkpt>
      <trkpt lat="45.941672455519438" lon="9.53015006147325">
        <ele>1726.6700000000001</ele>
        <time>2014-09-28T07:35:15Z</time>
      </trkpt>
      <trkpt lat="45.941769937053323" lon="9.530145116150379">
        <ele>1728.5899999999999</ele>
        <time>2014-09-28T07:35:27Z</time>
      </trkpt>
      <trkpt lat="45.94187630340457" lon="9.530150899663568">
        <ele>1730.51</ele>
        <time>2014-09-28T07:35:40Z</time>
      </trkpt>
      <trkpt lat="45.941991973668337" lon="9.530154252424836">
        <ele>1732.4300000000001</ele>
        <time>2014-09-28T07:35:54Z</time>
      </trkpt>
      <trkpt lat="45.942124659195542" lon="9.530154336243868">
        <ele>1734.3599999999999</ele>
        <time>2014-09-28T07:36:08Z</time>
      </trkpt>
      <trkpt lat="45.942232199013233" lon="9.530188702046871">
        <ele>1736.28</ele>
        <time>2014-09-28T07:36:20Z</time>
      </trkpt>
      <trkpt lat="45.942393969744444" lon="9.530198257416487">
        <ele>1738.2</ele>
        <time>2014-09-28T07:36:36Z</time>
      </trkpt>
      <trkpt lat="45.942576862871647" lon="9.530253913253546">
        <ele>1738.2</ele>
        <time>2014-09-28T07:36:52Z</time>
      </trkpt>
      <trkpt lat="45.94276805408299" lon="9.53026338480413">
        <ele>1738.6800000000001</ele>
        <time>2014-09-28T07:37:08Z</time>
      </trkpt>
      <trkpt lat="45.942816585302353" lon="9.530259696766734">
        <ele>1738.6800000000001</ele>
        <time>2014-09-28T07:37:12Z</time>
      </trkpt>
      <trkpt lat="45.942939464002848" lon="9.530373020097613">
        <ele>1738.6800000000001</ele>
        <time>2014-09-28T07:37:26Z</time>
      </trkpt>
      <trkpt lat="45.943095115944743" lon="9.530448624864221">
        <ele>1739.1600000000001</ele>
        <time>2014-09-28T07:37:41Z</time>
      </trkpt>
      <trkpt lat="45.943253533914685" lon="9.530388526618481">
        <ele>1739.6400000000001</ele>
        <time>2014-09-28T07:37:56Z</time>
      </trkpt>
      <trkpt lat="45.94338177703321" lon="9.530287021771073">
        <ele>1740.1199999999999</ele>
        <time>2014-09-28T07:38:10Z</time>
      </trkpt>
      <trkpt lat="45.943396613001823" lon="9.530241675674915">
        <ele>1740.5999999999999</ele>
        <time>2014-09-28T07:38:14Z</time>
      </trkpt>
      <trkpt lat="45.943409185856581" lon="9.530015112832189">
        <ele>1741.5699999999999</ele>
        <time>2014-09-28T07:38:28Z</time>
      </trkpt>
      <trkpt lat="45.943416729569435" lon="9.529964234679937">
        <ele>1741.5699999999999</ele>
        <time>2014-09-28T07:38:31Z</time>
      </trkpt>
      <trkpt lat="45.943527035415173" lon="9.52972736209631">
        <ele>1743.01</ele>
        <time>2014-09-28T07:38:48Z</time>
      </trkpt>
      <trkpt lat="45.943706491962075" lon="9.529540026560426">
        <ele>1742.53</ele>
        <time>2014-09-28T07:39:06Z</time>
      </trkpt>
      <trkpt lat="45.943711521103978" lon="9.529526112601161">
        <ele>1743.01</ele>
        <time>2014-09-28T07:39:07Z</time>
      </trkpt>
      <trkpt lat="45.943748317658901" lon="9.529399462044239">
        <ele>1743.01</ele>
        <time>2014-09-28T07:39:15Z</time>
      </trkpt>
      <trkpt lat="45.943755442276597" lon="9.529368197545409">
        <ele>1743.01</ele>
        <time>2014-09-28T07:39:17Z</time>
      </trkpt>
      <trkpt lat="45.943765249103308" lon="9.529331317171454">
        <ele>1743.49</ele>
        <time>2014-09-28T07:39:20Z</time>
      </trkpt>
      <trkpt lat="45.94378343783319" lon="9.529261495918036">
        <ele>1744.45</ele>
        <time>2014-09-28T07:39:25Z</time>
      </trkpt>
      <trkpt lat="45.943855103105307" lon="9.529052199795842">
        <ele>1746.3699999999999</ele>
        <time>2014-09-28T07:39:40Z</time>
      </trkpt>
      <trkpt lat="45.943883433938026" lon="9.528973493725061">
        <ele>1747.3299999999999</ele>
        <time>2014-09-28T07:39:47Z</time>
      </trkpt>
      <trkpt lat="45.943899024277925" lon="9.528887663036585">
        <ele>1748.29</ele>
        <time>2014-09-28T07:39:53Z</time>
      </trkpt>
      <trkpt lat="45.94388167373836" lon="9.528761263936758">
        <ele>1749.26</ele>
        <time>2014-09-28T07:40:02Z</time>
      </trkpt>
      <trkpt lat="45.943802716210485" lon="9.528592033311725">
        <ele>1751.1800000000001</ele>
        <time>2014-09-28T07:40:17Z</time>
      </trkpt>
      <trkpt lat="45.94384646974504" lon="9.528461694717407">
        <ele>1752.6199999999999</ele>
        <time>2014-09-28T07:40:27Z</time>
      </trkpt>
      <trkpt lat="45.943923331797123" lon="9.5284085534513">
        <ele>1755.02</ele>
        <time>2014-09-28T07:40:35Z</time>
      </trkpt>
      <trkpt lat="45.943989800289273" lon="9.528377037495375">
        <ele>1754.54</ele>
        <time>2014-09-28T07:40:43Z</time>
      </trkpt>
      <trkpt lat="45.944115025922656" lon="9.528410313650966">
        <ele>1756.95</ele>
        <time>2014-09-28T07:40:58Z</time>
      </trkpt>
      <trkpt lat="45.944183841347694" lon="9.528433112427592">
        <ele>1757.9100000000001</ele>
        <time>2014-09-28T07:41:06Z</time>
      </trkpt>
      <trkpt lat="45.944223487749696" lon="9.528446020558476">
        <ele>1757.9100000000001</ele>
        <time>2014-09-28T07:41:10Z</time>
      </trkpt>
      <trkpt lat="45.944294650107622" lon="9.528452390804887">
        <ele>1757.9100000000001</ele>
        <time>2014-09-28T07:41:17Z</time>
      </trkpt>
      <trkpt lat="45.9443424269557" lon="9.528457084670663">
        <ele>1757.9100000000001</ele>
        <time>2014-09-28T07:41:21Z</time>
      </trkpt>
      <trkpt lat="45.944468658417463" lon="9.528508046641946">
        <ele>1758.3900000000001</ele>
        <time>2014-09-28T07:41:32Z</time>
      </trkpt>
      <trkpt lat="45.944606456905603" lon="9.528563031926751">
        <ele>1758.8699999999999</ele>
        <time>2014-09-28T07:41:45Z</time>
      </trkpt>
      <trkpt lat="45.944762779399753" lon="9.528585663065314">
        <ele>1760.3099999999999</ele>
        <time>2014-09-28T07:41:59Z</time>
      </trkpt>
      <trkpt lat="45.944801419973373" lon="9.528592033311725">
        <ele>1760.79</ele>
        <time>2014-09-28T07:42:03Z</time>
      </trkpt>
      <trkpt lat="45.944877779111266" lon="9.528583316132426">
        <ele>1762.23</ele>
        <time>2014-09-28T07:42:12Z</time>
      </trkpt>
      <trkpt lat="45.945033263415098" lon="9.52854978851974">
        <ele>1765.1199999999999</ele>
        <time>2014-09-28T07:42:29Z</time>
      </trkpt>
      <trkpt lat="45.945193273946643" lon="9.528516512364149">
        <ele>1765.5999999999999</ele>
        <time>2014-09-28T07:42:43Z</time>
      </trkpt>
      <trkpt lat="45.945354290306568" lon="9.528512740507722">
        <ele>1767.04</ele>
        <time>2014-09-28T07:42:59Z</time>
      </trkpt>
      <trkpt lat="45.945500051602721" lon="9.528430011123419">
        <ele>1768.96</ele>
        <time>2014-09-28T07:43:14Z</time>
      </trkpt>
      <trkpt lat="45.945520168170333" lon="9.528416935354471">
        <ele>1768.96</ele>
        <time>2014-09-28T07:43:16Z</time>
      </trkpt>
      <trkpt lat="45.945617984980345" lon="9.528474938124418">
        <ele>1768.96</ele>
        <time>2014-09-28T07:43:24Z</time>
      </trkpt>
      <trkpt lat="45.945632150396705" lon="9.52869244851172">
        <ele>1770.4100000000001</ele>
        <time>2014-09-28T07:43:37Z</time>
      </trkpt>
      <trkpt lat="45.94567003659904" lon="9.528803173452616">
        <ele>1771.8499999999999</ele>
        <time>2014-09-28T07:43:47Z</time>
      </trkpt>
      <trkpt lat="45.945801045745611" lon="9.528914988040924">
        <ele>1772.8099999999999</ele>
        <time>2014-09-28T07:44:01Z</time>
      </trkpt>
      <trkpt lat="45.945951249450445" lon="9.52903401106596">
        <ele>1773.77</ele>
        <time>2014-09-28T07:44:18Z</time>
      </trkpt>
      <trkpt lat="45.946104554459453" lon="9.529078016057611">
        <ele>1774.73</ele>
        <time>2014-09-28T07:44:32Z</time>
      </trkpt>
      <trkpt lat="45.946271019056439" lon="9.529066868126392">
        <ele>1774.73</ele>
        <time>2014-09-28T07:44:46Z</time>
      </trkpt>
      <trkpt lat="45.94628375954926" lon="9.529062928631902">
        <ele>1774.73</ele>
        <time>2014-09-28T07:44:47Z</time>
      </trkpt>
      <trkpt lat="45.946489535272121" lon="9.529090337455273">
        <ele>1773.29</ele>
        <time>2014-09-28T07:45:03Z</time>
      </trkpt>
      <trkpt lat="45.946663292124867" lon="9.529071729630232">
        <ele>1772.8099999999999</ele>
        <time>2014-09-28T07:45:18Z</time>
      </trkpt>
      <trkpt lat="45.946840485557914" lon="9.529015570878983">
        <ele>1773.29</ele>
        <time>2014-09-28T07:45:35Z</time>
      </trkpt>
      <trkpt lat="45.947052212432027" lon="9.529001908376813">
        <ele>1773.29</ele>
        <time>2014-09-28T07:45:51Z</time>
      </trkpt>
      <trkpt lat="45.947208954021335" lon="9.528874503448606">
        <ele>1772.8099999999999</ele>
        <time>2014-09-28T07:46:06Z</time>
      </trkpt>
      <trkpt lat="45.947257485240698" lon="9.528799066320062">
        <ele>1772.8099999999999</ele>
        <time>2014-09-28T07:46:12Z</time>
      </trkpt>
      <trkpt lat="45.947317918762565" lon="9.52859815210104">
        <ele>1773.77</ele>
        <time>2014-09-28T07:46:26Z</time>
      </trkpt>
      <trkpt lat="45.947393355891109" lon="9.52841148711741">
        <ele>1773.77</ele>
        <time>2014-09-28T07:46:39Z</time>
      </trkpt>
      <trkpt lat="45.947466278448701" lon="9.528095992282033">
        <ele>1772.8099999999999</ele>
        <time>2014-09-28T07:46:57Z</time>
      </trkpt>
      <trkpt lat="45.947494693100452" lon="9.527904717251658">
        <ele>1774.25</ele>
        <time>2014-09-28T07:47:09Z</time>
      </trkpt>
      <trkpt lat="45.9475302323699" lon="9.527734564617276">
        <ele>1775.21</ele>
        <time>2014-09-28T07:47:19Z</time>
      </trkpt>
      <trkpt lat="45.947543056681752" lon="9.527491321787238">
        <ele>1775.21</ele>
        <time>2014-09-28T07:47:34Z</time>
      </trkpt>
      <trkpt lat="45.947553366422653" lon="9.527255455031991">
        <ele>1775.6900000000001</ele>
        <time>2014-09-28T07:47:48Z</time>
      </trkpt>
      <trkpt lat="45.947603657841682" lon="9.526957562193275">
        <ele>1776.1700000000001</ele>
        <time>2014-09-28T07:48:04Z</time>
      </trkpt>
      <trkpt lat="45.94763089902699" lon="9.526845412328839">
        <ele>1776.6500000000001</ele>
        <time>2014-09-28T07:48:11Z</time>
      </trkpt>
      <trkpt lat="45.947694517672062" lon="9.526630835607648">
        <ele>1779.0599999999999</ele>
        <time>2014-09-28T07:48:26Z</time>
      </trkpt>
      <trkpt lat="45.947682112455368" lon="9.526409721001983">
        <ele>1780.5</ele>
        <time>2014-09-28T07:48:40Z</time>
      </trkpt>
      <trkpt lat="45.947660738602281" lon="9.526162873953581">
        <ele>1780.5</ele>
        <time>2014-09-28T07:48:56Z</time>
      </trkpt>
      <trkpt lat="45.947658140212297" lon="9.525931365787983">
        <ele>1782.4200000000001</ele>
        <time>2014-09-28T07:49:11Z</time>
      </trkpt>
      <trkpt lat="45.94768462702632" lon="9.525741180405021">
        <ele>1783.3800000000001</ele>
        <time>2014-09-28T07:49:24Z</time>
      </trkpt>
      <trkpt lat="45.947712287306786" lon="9.525540852919221">
        <ele>1782.9000000000001</ele>
        <time>2014-09-28T07:49:37Z</time>
      </trkpt>
      <trkpt lat="45.947729051113129" lon="9.525471702218056">
        <ele>1782.9000000000001</ele>
        <time>2014-09-28T07:49:42Z</time>
      </trkpt>
      <trkpt lat="45.947724776342511" lon="9.525320744141936">
        <ele>1783.8599999999999</ele>
        <time>2014-09-28T07:49:53Z</time>
      </trkpt>
      <trkpt lat="45.947703486308455" lon="9.525139443576336">
        <ele>1784.8199999999999</ele>
        <time>2014-09-28T07:50:06Z</time>
      </trkpt>
      <trkpt lat="45.947677250951529" lon="9.525020672008395">
        <ele>1785.79</ele>
        <time>2014-09-28T07:50:15Z</time>
      </trkpt>
      <trkpt lat="45.947668114677072" lon="9.524997873231769">
        <ele>1785.79</ele>
        <time>2014-09-28T07:50:17Z</time>
      </trkpt>
      <trkpt lat="45.947666019201279" lon="9.524939451366663">
        <ele>1786.75</ele>
        <time>2014-09-28T07:50:22Z</time>
      </trkpt>
      <trkpt lat="45.947647159919143" lon="9.524901481345296">
        <ele>1786.75</ele>
        <time>2014-09-28T07:50:25Z</time>
      </trkpt>
      <trkpt lat="45.947628384456038" lon="9.524826295673847">
        <ele>1787.23</ele>
        <time>2014-09-28T07:50:30Z</time>
      </trkpt>
      <trkpt lat="45.947627294808626" lon="9.524760497733951">
        <ele>1787.23</ele>
        <time>2014-09-28T07:50:34Z</time>
      </trkpt>
      <trkpt lat="45.947596784681082" lon="9.524578442797065">
        <ele>1788.1900000000001</ele>
        <time>2014-09-28T07:50:48Z</time>
      </trkpt>
      <trkpt lat="45.947596617043018" lon="9.524565953761339">
        <ele>1788.1900000000001</ele>
        <time>2014-09-28T07:50:49Z</time>
      </trkpt>
      <trkpt lat="45.947592929005623" lon="9.524526977911592">
        <ele>1788.1900000000001</ele>
        <time>2014-09-28T07:50:52Z</time>
      </trkpt>
      <trkpt lat="45.947508187964559" lon="9.524379624053836">
        <ele>1788.6700000000001</ele>
        <time>2014-09-28T07:51:06Z</time>
      </trkpt>
      <trkpt lat="45.947499303147197" lon="9.524358585476875">
        <ele>1789.1500000000001</ele>
        <time>2014-09-28T07:51:08Z</time>
      </trkpt>
      <trkpt lat="45.947498213499784" lon="9.524215674027801">
        <ele>1789.6300000000001</ele>
        <time>2014-09-28T07:51:20Z</time>
      </trkpt>
      <trkpt lat="45.947504751384258" lon="9.524221960455179">
        <ele>1789.6300000000001</ele>
        <time>2014-09-28T07:51:26Z</time>
      </trkpt>
      <trkpt lat="45.947457645088434" lon="9.52411693520844">
        <ele>1790.5899999999999</ele>
        <time>2014-09-28T07:51:34Z</time>
      </trkpt>
      <trkpt lat="45.947466110810637" lon="9.524059183895588">
        <ele>1790.5899999999999</ele>
        <time>2014-09-28T07:51:38Z</time>
      </trkpt>
      <trkpt lat="45.947418753057718" lon="9.52385843731463">
        <ele>1790.5899999999999</ele>
        <time>2014-09-28T07:51:50Z</time>
      </trkpt>
      <trkpt lat="45.947397630661726" lon="9.523802697658539">
        <ele>1791.0699999999999</ele>
        <time>2014-09-28T07:51:54Z</time>
      </trkpt>
      <trkpt lat="45.947385057806969" lon="9.523712173104286">
        <ele>1791.55</ele>
        <time>2014-09-28T07:52:00Z</time>
      </trkpt>
      <trkpt lat="45.947376256808639" lon="9.523632880300283">
        <ele>1792.03</ele>
        <time>2014-09-28T07:52:05Z</time>
      </trkpt>
      <trkpt lat="45.947377178817987" lon="9.52339525334537">
        <ele>1793.48</ele>
        <time>2014-09-28T07:52:20Z</time>
      </trkpt>
      <trkpt lat="45.947371143847704" lon="9.523354433476925">
        <ele>1794.4400000000001</ele>
        <time>2014-09-28T07:52:23Z</time>
      </trkpt>
      <trkpt lat="45.947359073907137" lon="9.523292239755392">
        <ele>1795.4000000000001</ele>
        <time>2014-09-28T07:52:28Z</time>
      </trkpt>
      <trkpt lat="45.94737533479929" lon="9.523211941123009">
        <ele>1796.3599999999999</ele>
        <time>2014-09-28T07:52:34Z</time>
      </trkpt>
      <trkpt lat="45.947334850206971" lon="9.523063078522682">
        <ele>1798.28</ele>
        <time>2014-09-28T07:52:47Z</time>
      </trkpt>
      <trkpt lat="45.947319427505136" lon="9.52301949262619">
        <ele>1798.76</ele>
        <time>2014-09-28T07:52:51Z</time>
      </trkpt>
      <trkpt lat="45.947289587929845" lon="9.522797120735049">
        <ele>1798.76</ele>
        <time>2014-09-28T07:53:04Z</time>
      </trkpt>
      <trkpt lat="45.947311464697123" lon="9.522730819880962">
        <ele>1799.24</ele>
        <time>2014-09-28T07:53:08Z</time>
      </trkpt>
      <trkpt lat="45.94743057154119" lon="9.522504759952426">
        <ele>1797.3199999999999</ele>
        <time>2014-09-28T07:53:23Z</time>
      </trkpt>
      <trkpt lat="45.947444485500455" lon="9.522433262318373">
        <ele>1796.8399999999999</ele>
        <time>2014-09-28T07:53:27Z</time>
      </trkpt>
      <trkpt lat="45.947453286498785" lon="9.522380456328392">
        <ele>1796.3599999999999</ele>
        <time>2014-09-28T07:53:30Z</time>
      </trkpt>
      <trkpt lat="45.947513803839684" lon="9.522149199619889">
        <ele>1795.4000000000001</ele>
        <time>2014-09-28T07:53:44Z</time>
      </trkpt>
      <trkpt lat="45.947542134672403" lon="9.52207887545228">
        <ele>1795.8800000000001</ele>
        <time>2014-09-28T07:53:49Z</time>
      </trkpt>
      <trkpt lat="45.94757373444736" lon="9.522016178816557">
        <ele>1795.8800000000001</ele>
        <time>2014-09-28T07:53:54Z</time>
      </trkpt>
      <trkpt lat="45.947552695870399" lon="9.521731529384852">
        <ele>1795.8800000000001</ele>
        <time>2014-09-28T07:54:10Z</time>
      </trkpt>
      <trkpt lat="45.94754146412015" lon="9.521640334278345">
        <ele>1795.8800000000001</ele>
        <time>2014-09-28T07:54:15Z</time>
      </trkpt>
      <trkpt lat="45.947570549324155" lon="9.521538075059652">
        <ele>1795.4000000000001</ele>
        <time>2014-09-28T07:54:22Z</time>
      </trkpt>
      <trkpt lat="45.947512378916144" lon="9.521286031231284">
        <ele>1795.4000000000001</ele>
        <time>2014-09-28T07:54:37Z</time>
      </trkpt>
      <trkpt lat="45.947507517412305" lon="9.521267004311085">
        <ele>1795.4000000000001</ele>
        <time>2014-09-28T07:54:38Z</time>
      </trkpt>
      <trkpt lat="45.947473403066397" lon="9.521013116464019">
        <ele>1795.8800000000001</ele>
        <time>2014-09-28T07:54:53Z</time>
      </trkpt>
      <trkpt lat="45.947457645088434" lon="9.520767526701093">
        <ele>1797.8</ele>
        <time>2014-09-28T07:55:09Z</time>
      </trkpt>
      <trkpt lat="45.947426548227668" lon="9.520546831190586">
        <ele>1800.21</ele>
        <time>2014-09-28T07:55:24Z</time>
      </trkpt>
      <trkpt lat="45.947392014786601" lon="9.520430574193597">
        <ele>1802.1300000000001</ele>
        <time>2014-09-28T07:55:36Z</time>
      </trkpt>
      <trkpt lat="45.947393607348204" lon="9.520277604460716">
        <ele>1804.05</ele>
        <time>2014-09-28T07:55:49Z</time>
      </trkpt>
      <trkpt lat="45.947335101664066" lon="9.520158749073744">
        <ele>1805.01</ele>
        <time>2014-09-28T07:56:00Z</time>
      </trkpt>
      <trkpt lat="45.947310039773583" lon="9.520131256431341">
        <ele>1805.49</ele>
        <time>2014-09-28T07:56:04Z</time>
      </trkpt>
      <trkpt lat="45.947187328711152" lon="9.51998951844871">
        <ele>1806.45</ele>
        <time>2014-09-28T07:56:20Z</time>
      </trkpt>
      <trkpt lat="45.947108706459403" lon="9.519861694425345">
        <ele>1808.8599999999999</ele>
        <time>2014-09-28T07:56:35Z</time>
      </trkpt>
      <trkpt lat="45.94704064540565" lon="9.519775277003646">
        <ele>1811.26</ele>
        <time>2014-09-28T07:56:48Z</time>
      </trkpt>
      <trkpt lat="45.946952635422349" lon="9.519665976986289">
        <ele>1813.6600000000001</ele>
        <time>2014-09-28T07:57:03Z</time>
      </trkpt>
      <trkpt lat="45.946890022605658" lon="9.519581235945225">
        <ele>1816.55</ele>
        <time>2014-09-28T07:57:19Z</time>
      </trkpt>
      <trkpt lat="45.946854064241052" lon="9.519545612856746">
        <ele>1817.51</ele>
        <time>2014-09-28T07:57:34Z</time>
      </trkpt>
      <trkpt lat="45.946768820285797" lon="9.519474534317851">
        <ele>1818.95</ele>
        <time>2014-09-28T07:57:49Z</time>
      </trkpt>
      <trkpt lat="45.946682402864099" lon="9.519333634525538">
        <ele>1820.3900000000001</ele>
        <time>2014-09-28T07:58:03Z</time>
      </trkpt>
      <trkpt lat="45.946665806695819" lon="9.519230118021369">
        <ele>1821.8399999999999</ele>
        <time>2014-09-28T07:58:12Z</time>
      </trkpt>
      <trkpt lat="45.946662286296487" lon="9.519052086398006">
        <ele>1824.72</ele>
        <time>2014-09-28T07:58:27Z</time>
      </trkpt>
      <trkpt lat="45.946608642116189" lon="9.518963741138578">
        <ele>1827.5999999999999</ele>
        <time>2014-09-28T07:58:42Z</time>
      </trkpt>
      <trkpt lat="45.946598583832383" lon="9.518848406150937">
        <ele>1830.01</ele>
        <time>2014-09-28T07:58:56Z</time>
      </trkpt>
      <trkpt lat="45.94659891910851" lon="9.518735418096185">
        <ele>1832.8900000000001</ele>
        <time>2014-09-28T07:59:11Z</time>
      </trkpt>
      <trkpt lat="45.946574443951249" lon="9.518627543002367">
        <ele>1835.29</ele>
        <time>2014-09-28T07:59:24Z</time>
      </trkpt>
      <trkpt lat="45.946572767570615" lon="9.518502904102206">
        <ele>1837.22</ele>
        <time>2014-09-28T07:59:36Z</time>
      </trkpt>
      <trkpt lat="45.94657251611352" lon="9.518491588532925">
        <ele>1837.22</ele>
        <time>2014-09-28T07:59:37Z</time>
      </trkpt>
      <trkpt lat="45.946576120331883" lon="9.518371559679508">
        <ele>1838.6600000000001</ele>
        <time>2014-09-28T07:59:50Z</time>
      </trkpt>
      <trkpt lat="45.946583077311516" lon="9.518301486968994">
        <ele>1839.1400000000001</ele>
        <time>2014-09-28T08:00:05Z</time>
      </trkpt>
      <trkpt lat="45.946596991270781" lon="9.518283633515239">
        <ele>1839.6199999999999</ele>
        <time>2014-09-28T08:00:07Z</time>
      </trkpt>
      <trkpt lat="45.946688186377287" lon="9.518166789785028">
        <ele>1841.54</ele>
        <time>2014-09-28T08:00:21Z</time>
      </trkpt>
      <trkpt lat="45.946744428947568" lon="9.518096465617418">
        <ele>1842.5</ele>
        <time>2014-09-28T08:00:31Z</time>
      </trkpt>
      <trkpt lat="45.946744428947568" lon="9.518111636862159">
        <ele>1842.5</ele>
        <time>2014-09-28T08:00:50Z</time>
      </trkpt>
      <trkpt lat="45.946811400353909" lon="9.517984315752983">
        <ele>1842.02</ele>
        <time>2014-09-28T08:01:04Z</time>
      </trkpt>
      <trkpt lat="45.946819195523858" lon="9.517969060689211">
        <ele>1841.54</ele>
        <time>2014-09-28T08:01:05Z</time>
      </trkpt>
      <trkpt lat="45.946960095316172" lon="9.517900999635458">
        <ele>1842.02</ele>
        <time>2014-09-28T08:01:19Z</time>
      </trkpt>
      <trkpt lat="45.946967303752899" lon="9.51788448728621">
        <ele>1841.54</ele>
        <time>2014-09-28T08:01:21Z</time>
      </trkpt>
      <trkpt lat="45.946976272389293" lon="9.517817264422774">
        <ele>1841.0599999999999</ele>
        <time>2014-09-28T08:01:25Z</time>
      </trkpt>
      <trkpt lat="45.947008542716503" lon="9.517772002145648">
        <ele>1841.0599999999999</ele>
        <time>2014-09-28T08:01:29Z</time>
      </trkpt>
      <trkpt lat="45.947071993723512" lon="9.517718777060509">
        <ele>1840.5799999999999</ele>
        <time>2014-09-28T08:01:36Z</time>
      </trkpt>
      <trkpt lat="45.94712664373219" lon="9.517535381019115">
        <ele>1842.5</ele>
        <time>2014-09-28T08:01:53Z</time>
      </trkpt>
      <trkpt lat="45.947124715894461" lon="9.517514007166028">
        <ele>1843.47</ele>
        <time>2014-09-28T08:01:58Z</time>
      </trkpt>
      <trkpt lat="45.947141144424677" lon="9.517429517582059">
        <ele>1843.95</ele>
        <time>2014-09-28T08:02:11Z</time>
      </trkpt>
      <trkpt lat="45.947152376174927" lon="9.517361121252179">
        <ele>1844.9100000000001</ele>
        <time>2014-09-28T08:02:18Z</time>
      </trkpt>
      <trkpt lat="45.947215156629682" lon="9.517187364399433">
        <ele>1845.3900000000001</ele>
        <time>2014-09-28T08:02:32Z</time>
      </trkpt>
      <trkpt lat="45.94729034230113" lon="9.517036406323314">
        <ele>1844.9100000000001</ele>
        <time>2014-09-28T08:02:45Z</time>
      </trkpt>
      <trkpt lat="45.94734214246273" lon="9.517002543434501">
        <ele>1844.4300000000001</ele>
        <time>2014-09-28T08:02:50Z</time>
      </trkpt>
      <trkpt lat="45.947415484115481" lon="9.51692090369761">
        <ele>1844.9100000000001</ele>
        <time>2014-09-28T08:02:58Z</time>
      </trkpt>
      <trkpt lat="45.947528807446361" lon="9.516779584810138">
        <ele>1843.95</ele>
        <time>2014-09-28T08:03:13Z</time>
      </trkpt>
      <trkpt lat="45.947602819651365" lon="9.516718983650208">
        <ele>1844.4300000000001</ele>
        <time>2014-09-28T08:03:26Z</time>
      </trkpt>
      <trkpt lat="45.947595862671733" lon="9.516724850982428">
        <ele>1844.4300000000001</ele>
        <time>2014-09-28T08:03:45Z</time>
      </trkpt>
      <trkpt lat="45.947594186291099" lon="9.516776818782091">
        <ele>1844.9100000000001</ele>
        <time>2014-09-28T08:04:08Z</time>
      </trkpt>
      <trkpt lat="45.947582451626658" lon="9.516757372766733">
        <ele>1845.3900000000001</ele>
        <time>2014-09-28T08:04:25Z</time>
      </trkpt>
      <trkpt lat="45.947585720568895" lon="9.516743626445532">
        <ele>1844.9100000000001</ele>
        <time>2014-09-28T08:04:46Z</time>
      </trkpt>
      <trkpt lat="45.947608267888427" lon="9.516851752996445">
        <ele>1842.5</ele>
        <time>2014-09-28T08:05:00Z</time>
      </trkpt>
      <trkpt lat="45.94764900393784" lon="9.516862733289599">
        <ele>1841.54</ele>
        <time>2014-09-28T08:05:11Z</time>
      </trkpt>
      <trkpt lat="45.94771203584969" lon="9.516869522631168">
        <ele>1841.0599999999999</ele>
        <time>2014-09-28T08:05:21Z</time>
      </trkpt>
      <trkpt lat="45.947732403874397" lon="9.516846723854542">
        <ele>1838.6600000000001</ele>
        <time>2014-09-28T08:05:37Z</time>
      </trkpt>
      <trkpt lat="45.947743216529489" lon="9.516884610056877">
        <ele>1837.22</ele>
        <time>2014-09-28T08:05:46Z</time>
      </trkpt>
      <trkpt lat="45.947691919282079" lon="9.516881005838513">
        <ele>1834.3299999999999</ele>
        <time>2014-09-28T08:05:57Z</time>
      </trkpt>
      <trkpt lat="45.947686638683081" lon="9.51682367362082">
        <ele>1831.45</ele>
        <time>2014-09-28T08:06:08Z</time>
      </trkpt>
      <trkpt lat="45.947683118283749" lon="9.516802383586764">
        <ele>1830.97</ele>
        <time>2014-09-28T08:06:24Z</time>
      </trkpt>
      <trkpt lat="45.947658056393266" lon="9.516758797690272">
        <ele>1828.5599999999999</ele>
        <time>2014-09-28T08:06:34Z</time>
      </trkpt>
      <trkpt lat="45.947658894583583" lon="9.516728622838855">
        <ele>1826.1600000000001</ele>
        <time>2014-09-28T08:06:46Z</time>
      </trkpt>
      <trkpt lat="45.947639280930161" lon="9.516740189865232">
        <ele>1823.76</ele>
        <time>2014-09-28T08:06:53Z</time>
      </trkpt>
      <trkpt lat="45.947921331971884" lon="9.516716720536351">
        <ele>1820.8699999999999</ele>
        <time>2014-09-28T08:07:06Z</time>
      </trkpt>
      <trkpt lat="45.94800372608006" lon="9.516709428280592">
        <ele>1818.95</ele>
        <time>2014-09-28T08:07:17Z</time>
      </trkpt>
      <trkpt lat="45.948083773255348" lon="9.516699118539691">
        <ele>1819.4300000000001</ele>
        <time>2014-09-28T08:07:33Z</time>
      </trkpt>
      <trkpt lat="45.948104476556182" lon="9.516635248437524">
        <ele>1820.3900000000001</ele>
        <time>2014-09-28T08:07:40Z</time>
      </trkpt>
      <trkpt lat="45.948134986683726" lon="9.51650750823319">
        <ele>1819.4300000000001</ele>
        <time>2014-09-28T08:07:52Z</time>
      </trkpt>
      <trkpt lat="45.948171364143491" lon="9.516417905688286">
        <ele>1818.95</ele>
        <time>2014-09-28T08:08:03Z</time>
      </trkpt>
      <trkpt lat="45.948169603943825" lon="9.516401141881943">
        <ele>1819.4300000000001</ele>
        <time>2014-09-28T08:08:06Z</time>
      </trkpt>
      <trkpt lat="45.948153762146831" lon="9.516345653682947">
        <ele>1818.95</ele>
        <time>2014-09-28T08:08:10Z</time>
      </trkpt>
      <trkpt lat="45.948185194283724" lon="9.516246663406491">
        <ele>1818.95</ele>
        <time>2014-09-28T08:08:17Z</time>
      </trkpt>
      <trkpt lat="45.9482934884727" lon="9.516118671745062">
        <ele>1818.95</ele>
        <time>2014-09-28T08:08:30Z</time>
      </trkpt>
      <trkpt lat="45.948366159573197" lon="9.515980118885636">
        <ele>1819.4300000000001</ele>
        <time>2014-09-28T08:08:43Z</time>
      </trkpt>
      <trkpt lat="45.948370769619942" lon="9.515982633456588">
        <ele>1821.3499999999999</ele>
        <time>2014-09-28T08:08:52Z</time>
      </trkpt>
      <trkpt lat="45.948385940864682" lon="9.515927648171783">
        <ele>1821.8399999999999</ele>
        <time>2014-09-28T08:09:05Z</time>
      </trkpt>
      <trkpt lat="45.948374709114432" lon="9.515796052291989">
        <ele>1824.72</ele>
        <time>2014-09-28T08:09:17Z</time>
      </trkpt>
      <trkpt lat="45.948380576446652" lon="9.51571743004024">
        <ele>1827.1199999999999</ele>
        <time>2014-09-28T08:09:30Z</time>
      </trkpt>
      <trkpt lat="45.948403207585216" lon="9.515671832486987">
        <ele>1828.5599999999999</ele>
        <time>2014-09-28T08:09:36Z</time>
      </trkpt>
      <trkpt lat="45.948408236727118" lon="9.515577536076307">
        <ele>1829.53</ele>
        <time>2014-09-28T08:09:42Z</time>
      </trkpt>
      <trkpt lat="45.948393987491727" lon="9.515443425625563">
        <ele>1828.0799999999999</ele>
        <time>2014-09-28T08:09:55Z</time>
      </trkpt>
      <trkpt lat="45.948382671922445" lon="9.515404785051942">
        <ele>1826.6400000000001</ele>
        <time>2014-09-28T08:10:04Z</time>
      </trkpt>
      <trkpt lat="45.948421815410256" lon="9.515239326283336">
        <ele>1823.76</ele>
        <time>2014-09-28T08:10:18Z</time>
      </trkpt>
      <trkpt lat="45.948396753519773" lon="9.515083003789187">
        <ele>1820.8699999999999</ele>
        <time>2014-09-28T08:10:32Z</time>
      </trkpt>
      <trkpt lat="45.948397675529122" lon="9.515036232769489">
        <ele>1818.95</ele>
        <time>2014-09-28T08:10:36Z</time>
      </trkpt>
      <trkpt lat="45.948426844552159" lon="9.51490044593811">
        <ele>1815.5899999999999</ele>
        <time>2014-09-28T08:10:49Z</time>
      </trkpt>
      <trkpt lat="45.948464144021273" lon="9.51479684561491">
        <ele>1812.22</ele>
        <time>2014-09-28T08:11:02Z</time>
      </trkpt>
      <trkpt lat="45.948491469025612" lon="9.514726521447301">
        <ele>1811.26</ele>
        <time>2014-09-28T08:11:08Z</time>
      </trkpt>
      <trkpt lat="45.948524409905076" lon="9.514612443745136">
        <ele>1809.3399999999999</ele>
        <time>2014-09-28T08:11:19Z</time>
      </trkpt>
      <trkpt lat="45.948595656082034" lon="9.514493672177196">
        <ele>1807.9000000000001</ele>
        <time>2014-09-28T08:11:31Z</time>
      </trkpt>
      <trkpt lat="45.948606384918094" lon="9.514589058235288">
        <ele>1807.9000000000001</ele>
        <time>2014-09-28T08:11:55Z</time>
      </trkpt>
      <trkpt lat="45.948631949722767" lon="9.514602301642299">
        <ele>1806.45</ele>
        <time>2014-09-28T08:12:13Z</time>
      </trkpt>
      <trkpt lat="45.948693556711078" lon="9.514552848413587">
        <ele>1805.49</ele>
        <time>2014-09-28T08:12:26Z</time>
      </trkpt>
      <trkpt lat="45.948761282488704" lon="9.514556871727109">
        <ele>1805.49</ele>
        <time>2014-09-28T08:12:38Z</time>
      </trkpt>
      <trkpt lat="45.948771508410573" lon="9.514563828706741">
        <ele>1805.01</ele>
        <time>2014-09-28T08:12:41Z</time>
      </trkpt>
      <trkpt lat="45.949034448713064" lon="9.514515129849315">
        <ele>1804.53</ele>
        <time>2014-09-28T08:12:53Z</time>
      </trkpt>
      <trkpt lat="45.949202086776495" lon="9.514460060745478">
        <ele>1802.1300000000001</ele>
        <time>2014-09-28T08:13:08Z</time>
      </trkpt>
      <trkpt lat="45.949197812005877" lon="9.51447045430541">
        <ele>1800.6900000000001</ele>
        <time>2014-09-28T08:13:18Z</time>
      </trkpt>
      <trkpt lat="45.949192112311721" lon="9.51443181373179">
        <ele>1800.6900000000001</ele>
        <time>2014-09-28T08:13:34Z</time>
      </trkpt>
      <trkpt lat="45.94897510483861" lon="9.514525355771184">
        <ele>1800.6900000000001</ele>
        <time>2014-09-28T08:13:45Z</time>
      </trkpt>
      <trkpt lat="45.948988264426589" lon="9.514467855915427">
        <ele>1801.1700000000001</ele>
        <time>2014-09-28T08:13:58Z</time>
      </trkpt>
      <trkpt lat="45.94903034158051" lon="9.514425694942474">
        <ele>1804.53</ele>
        <time>2014-09-28T08:14:08Z</time>
      </trkpt>
      <trkpt lat="45.949035286903381" lon="9.514451343566179">
        <ele>1804.05</ele>
        <time>2014-09-28T08:14:25Z</time>
      </trkpt>
      <trkpt lat="45.949060684069991" lon="9.51440448872745">
        <ele>1804.05</ele>
        <time>2014-09-28T08:14:37Z</time>
      </trkpt>
      <trkpt lat="45.949068143963814" lon="9.514334751293063">
        <ele>1805.01</ele>
        <time>2014-09-28T08:14:52Z</time>
      </trkpt>
      <trkpt lat="45.949059762060642" lon="9.514288734644651">
        <ele>1804.05</ele>
        <time>2014-09-28T08:15:02Z</time>
      </trkpt>
      <trkpt lat="45.949076022952795" lon="9.514158228412271">
        <ele>1801.1700000000001</ele>
        <time>2014-09-28T08:15:13Z</time>
      </trkpt>
      <trkpt lat="45.949100749567151" lon="9.514064351096749">
        <ele>1800.6900000000001</ele>
        <time>2014-09-28T08:15:23Z</time>
      </trkpt>
      <trkpt lat="45.949132852256298" lon="9.5139563921839">
        <ele>1799.24</ele>
        <time>2014-09-28T08:15:36Z</time>
      </trkpt>
      <trkpt lat="45.949181467294693" lon="9.513845751062036">
        <ele>1797.3199999999999</ele>
        <time>2014-09-28T08:15:48Z</time>
      </trkpt>
      <trkpt lat="45.949172247201204" lon="9.513811888173223">
        <ele>1796.8399999999999</ele>
        <time>2014-09-28T08:15:52Z</time>
      </trkpt>
      <trkpt lat="45.949120279401541" lon="9.513777438551188">
        <ele>1796.3599999999999</ele>
        <time>2014-09-28T08:16:02Z</time>
      </trkpt>
      <trkpt lat="45.949031850323081" lon="9.513757741078734">
        <ele>1796.8399999999999</ele>
        <time>2014-09-28T08:16:15Z</time>
      </trkpt>
      <trkpt lat="45.948937218636274" lon="9.513814067468047">
        <ele>1799.24</ele>
        <time>2014-09-28T08:16:29Z</time>
      </trkpt>
      <trkpt lat="45.948902014642954" lon="9.513860167935491">
        <ele>1801.1700000000001</ele>
        <time>2014-09-28T08:16:41Z</time>
      </trkpt>
      <trkpt lat="45.948932357132435" lon="9.513898473232985">
        <ele>1801.6500000000001</ele>
        <time>2014-09-28T08:16:57Z</time>
      </trkpt>
      <trkpt lat="45.948908803984523" lon="9.513893611729145">
        <ele>1801.1700000000001</ele>
        <time>2014-09-28T08:17:11Z</time>
      </trkpt>
      <trkpt lat="45.948850968852639" lon="9.513829071074724">
        <ele>1799.73</ele>
        <time>2014-09-28T08:17:33Z</time>
      </trkpt>
      <trkpt lat="45.948780309408903" lon="9.513748688623309">
        <ele>1796.3599999999999</ele>
        <time>2014-09-28T08:17:45Z</time>
      </trkpt>
      <trkpt lat="45.948792211711407" lon="9.513712730258703">
        <ele>1795.8800000000001</ele>
        <time>2014-09-28T08:17:58Z</time>
      </trkpt>
      <trkpt lat="45.948744183406234" lon="9.513672329485416">
        <ele>1793.48</ele>
        <time>2014-09-28T08:18:10Z</time>
      </trkpt>
      <trkpt lat="45.948708727955818" lon="9.513621367514134">
        <ele>1792.03</ele>
        <time>2014-09-28T08:18:15Z</time>
      </trkpt>
      <trkpt lat="45.948656424880028" lon="9.51351466588676">
        <ele>1790.1099999999999</ele>
        <time>2014-09-28T08:18:23Z</time>
      </trkpt>
      <trkpt lat="45.948675870895386" lon="9.51332070864737">
        <ele>1787.23</ele>
        <time>2014-09-28T08:18:36Z</time>
      </trkpt>
      <trkpt lat="45.948749631643295" lon="9.513259939849377">
        <ele>1784.8199999999999</ele>
        <time>2014-09-28T08:18:45Z</time>
      </trkpt>
      <trkpt lat="45.948820794001222" lon="9.513189950957894">
        <ele>1782.4200000000001</ele>
        <time>2014-09-28T08:18:51Z</time>
      </trkpt>
      <trkpt lat="45.948836803436279" lon="9.513153489679098">
        <ele>1781.46</ele>
        <time>2014-09-28T08:18:54Z</time>
      </trkpt>
      <trkpt lat="45.948871001601219" lon="9.513093139976263">
        <ele>1781.9400000000001</ele>
        <time>2014-09-28T08:18:58Z</time>
      </trkpt>
      <trkpt lat="45.948933949694037" lon="9.512990964576602">
        <ele>1780.98</ele>
        <time>2014-09-28T08:19:15Z</time>
      </trkpt>
      <trkpt lat="45.948957670480013" lon="9.5129151083529">
        <ele>1779.0599999999999</ele>
        <time>2014-09-28T08:19:22Z</time>
      </trkpt>
      <trkpt lat="45.949059845879674" lon="9.512747554108501">
        <ele>1776.6500000000001</ele>
        <time>2014-09-28T08:19:37Z</time>
      </trkpt>
      <trkpt lat="45.94911097548902" lon="9.512641103938222">
        <ele>1778.5799999999999</ele>
        <time>2014-09-28T08:19:48Z</time>
      </trkpt>
      <trkpt lat="45.949156740680337" lon="9.512540185824037">
        <ele>1779.54</ele>
        <time>2014-09-28T08:19:57Z</time>
      </trkpt>
      <trkpt lat="45.949171157553792" lon="9.512493414804339">
        <ele>1779.0599999999999</ele>
        <time>2014-09-28T08:20:02Z</time>
      </trkpt>
      <trkpt lat="45.949251456186175" lon="9.512400878593326">
        <ele>1776.1700000000001</ele>
        <time>2014-09-28T08:20:14Z</time>
      </trkpt>
      <trkpt lat="45.949347009882331" lon="9.512366680428386">
        <ele>1775.6900000000001</ele>
        <time>2014-09-28T08:20:23Z</time>
      </trkpt>
      <trkpt lat="45.949438456445932" lon="9.51227305456996">
        <ele>1777.1300000000001</ele>
        <time>2014-09-28T08:20:37Z</time>
      </trkpt>
      <trkpt lat="45.949496459215879" lon="9.51219979673624">
        <ele>1777.6099999999999</ele>
        <time>2014-09-28T08:20:47Z</time>
      </trkpt>
      <trkpt lat="45.949561921879649" lon="9.512114720419049">
        <ele>1781.46</ele>
        <time>2014-09-28T08:20:59Z</time>
      </trkpt>
      <trkpt lat="45.949606262147427" lon="9.512056466192007">
        <ele>1782.9000000000001</ele>
        <time>2014-09-28T08:21:11Z</time>
      </trkpt>
      <trkpt lat="45.949623193591833" lon="9.512035343796015">
        <ele>1782.9000000000001</ele>
        <time>2014-09-28T08:21:18Z</time>
      </trkpt>
      <trkpt lat="45.949725788086653" lon="9.512002905830741">
        <ele>1781.46</ele>
        <time>2014-09-28T08:21:30Z</time>
      </trkpt>
      <trkpt lat="45.949806589633226" lon="9.511990416795015">
        <ele>1780.98</ele>
        <time>2014-09-28T08:21:37Z</time>
      </trkpt>
      <trkpt lat="45.949878841638565" lon="9.511942137032747">
        <ele>1782.4200000000001</ele>
        <time>2014-09-28T08:21:49Z</time>
      </trkpt>
      <trkpt lat="45.949919577687979" lon="9.511970886960626">
        <ele>1781.9400000000001</ele>
        <time>2014-09-28T08:21:55Z</time>
      </trkpt>
      <trkpt lat="45.950031979009509" lon="9.511972898617387">
        <ele>1780.98</ele>
        <time>2014-09-28T08:22:09Z</time>
      </trkpt>
      <trkpt lat="45.950121330097318" lon="9.511943142861128">
        <ele>1780.5</ele>
        <time>2014-09-28T08:22:23Z</time>
      </trkpt>
      <trkpt lat="45.950150331482291" lon="9.511937275528908">
        <ele>1780.5</ele>
        <time>2014-09-28T08:22:36Z</time>
      </trkpt>
      <trkpt lat="45.950156953185797" lon="9.511886984109879">
        <ele>1779.54</ele>
        <time>2014-09-28T08:22:47Z</time>
      </trkpt>
      <trkpt lat="45.950236329808831" lon="9.511758824810386">
        <ele>1781.9400000000001</ele>
        <time>2014-09-28T08:23:02Z</time>
      </trkpt>
      <trkpt lat="45.950327273458242" lon="9.511642567813397">
        <ele>1782.4200000000001</ele>
        <time>2014-09-28T08:23:15Z</time>
      </trkpt>
      <trkpt lat="45.950433555990458" lon="9.511598646640778">
        <ele>1782.4200000000001</ele>
        <time>2014-09-28T08:23:28Z</time>
      </trkpt>
      <trkpt lat="45.950492061674595" lon="9.511512815952301">
        <ele>1782.9000000000001</ele>
        <time>2014-09-28T08:23:40Z</time>
      </trkpt>
      <trkpt lat="45.950542688369751" lon="9.511471744626761">
        <ele>1782.9000000000001</ele>
        <time>2014-09-28T08:23:45Z</time>
      </trkpt>
      <trkpt lat="45.950627010315657" lon="9.511352805420756">
        <ele>1781.9400000000001</ele>
        <time>2014-09-28T08:23:59Z</time>
      </trkpt>
      <trkpt lat="45.950632207095623" lon="9.511353392153978">
        <ele>1781.46</ele>
        <time>2014-09-28T08:24:00Z</time>
      </trkpt>
      <trkpt lat="45.950686940923333" lon="9.511381220072508">
        <ele>1780.98</ele>
        <time>2014-09-28T08:24:06Z</time>
      </trkpt>
      <trkpt lat="45.950807807967067" lon="9.511340735480189">
        <ele>1780.02</ele>
        <time>2014-09-28T08:24:19Z</time>
      </trkpt>
      <trkpt lat="45.950907217338681" lon="9.511342830955982">
        <ele>1779.0599999999999</ele>
        <time>2014-09-28T08:24:32Z</time>
      </trkpt>
      <trkpt lat="45.950980391353369" lon="9.51135104522109">
        <ele>1778.0999999999999</ele>
        <time>2014-09-28T08:24:39Z</time>
      </trkpt>
      <trkpt lat="45.951062198728323" lon="9.511394798755646">
        <ele>1778.0999999999999</ele>
        <time>2014-09-28T08:24:49Z</time>
      </trkpt>
      <trkpt lat="45.951127158477902" lon="9.511331934481859">
        <ele>1778.5799999999999</ele>
        <time>2014-09-28T08:25:01Z</time>
      </trkpt>
      <trkpt lat="45.95120913349092" lon="9.511188771575689">
        <ele>1777.1300000000001</ele>
        <time>2014-09-28T08:25:11Z</time>
      </trkpt>
      <trkpt lat="45.951229752972722" lon="9.511118363589048">
        <ele>1778.0999999999999</ele>
        <time>2014-09-28T08:25:20Z</time>
      </trkpt>
      <trkpt lat="45.951251965016127" lon="9.51109791174531">
        <ele>1778.0999999999999</ele>
        <time>2014-09-28T08:25:22Z</time>
      </trkpt>
      <trkpt lat="45.951268896460533" lon="9.511056421324611">
        <ele>1778.0999999999999</ele>
        <time>2014-09-28T08:25:26Z</time>
      </trkpt>
      <trkpt lat="45.951289935037494" lon="9.51095717959106">
        <ele>1778.5799999999999</ele>
        <time>2014-09-28T08:25:35Z</time>
      </trkpt>
      <trkpt lat="45.951374424621463" lon="9.51078912243247">
        <ele>1779.54</ele>
        <time>2014-09-28T08:25:51Z</time>
      </trkpt>
      <trkpt lat="45.95144659280777" lon="9.510633051395416">
        <ele>1780.5</ele>
        <time>2014-09-28T08:26:04Z</time>
      </trkpt>
      <trkpt lat="45.951494453474879" lon="9.510557865723968">
        <ele>1780.5</ele>
        <time>2014-09-28T08:26:13Z</time>
      </trkpt>
      <trkpt lat="45.951598221436143" lon="9.510436831042171">
        <ele>1781.46</ele>
        <time>2014-09-28T08:26:28Z</time>
      </trkpt>
      <trkpt lat="45.951589252799749" lon="9.510438088327646">
        <ele>1781.9400000000001</ele>
        <time>2014-09-28T08:26:42Z</time>
      </trkpt>
      <trkpt lat="45.951612051576376" lon="9.510407326743007">
        <ele>1781.9400000000001</ele>
        <time>2014-09-28T08:26:54Z</time>
      </trkpt>
      <trkpt lat="45.95162495970726" lon="9.510340690612793">
        <ele>1784.3399999999999</ele>
        <time>2014-09-28T08:27:02Z</time>
      </trkpt>
      <trkpt lat="45.951604088768363" lon="9.510185457766056">
        <ele>1784.3399999999999</ele>
        <time>2014-09-28T08:27:16Z</time>
      </trkpt>
      <trkpt lat="45.951612135395408" lon="9.510186463594437">
        <ele>1783.3800000000001</ele>
        <time>2014-09-28T08:27:35Z</time>
      </trkpt>
      <trkpt lat="45.951615152880549" lon="9.510155282914639">
        <ele>1783.3800000000001</ele>
        <time>2014-09-28T08:27:37Z</time>
      </trkpt>
      <trkpt lat="45.95161322504282" lon="9.510064674541354">
        <ele>1782.4200000000001</ele>
        <time>2014-09-28T08:27:42Z</time>
      </trkpt>
      <trkpt lat="45.951622780412436" lon="9.509992590174079">
        <ele>1780.02</ele>
        <time>2014-09-28T08:27:50Z</time>
      </trkpt>
      <trkpt lat="45.951626384630799" lon="9.509904831647873">
        <ele>1779.54</ele>
        <time>2014-09-28T08:27:55Z</time>
      </trkpt>
      <trkpt lat="45.951711880043149" lon="9.509769883006811">
        <ele>1779.54</ele>
        <time>2014-09-28T08:28:03Z</time>
      </trkpt>
      <trkpt lat="45.951782958582044" lon="9.509582882747054">
        <ele>1777.1300000000001</ele>
        <time>2014-09-28T08:28:15Z</time>
      </trkpt>
      <trkpt lat="45.95182335935533" lon="9.5094751752913">
        <ele>1776.1700000000001</ele>
        <time>2014-09-28T08:28:23Z</time>
      </trkpt>
      <trkpt lat="45.951880859211087" lon="9.50938280671835">
        <ele>1775.6900000000001</ele>
        <time>2014-09-28T08:28:31Z</time>
      </trkpt>
      <trkpt lat="45.951880775392056" lon="9.509369060397148">
        <ele>1775.21</ele>
        <time>2014-09-28T08:28:32Z</time>
      </trkpt>
      <trkpt lat="45.951966773718596" lon="9.509183987975121">
        <ele>1774.73</ele>
        <time>2014-09-28T08:28:47Z</time>
      </trkpt>
      <trkpt lat="45.95199435018003" lon="9.509167894721031">
        <ele>1775.6900000000001</ele>
        <time>2014-09-28T08:28:51Z</time>
      </trkpt>
      <trkpt lat="45.952007845044136" lon="9.509149622172117">
        <ele>1776.1700000000001</ele>
        <time>2014-09-28T08:28:53Z</time>
      </trkpt>
      <trkpt lat="45.952052772045135" lon="9.509050967171788">
        <ele>1779.54</ele>
        <time>2014-09-28T08:29:03Z</time>
      </trkpt>
      <trkpt lat="45.952053023502231" lon="9.509041914716363">
        <ele>1779.54</ele>
        <time>2014-09-28T08:29:04Z</time>
      </trkpt>
      <trkpt lat="45.952053023502231" lon="9.50903344899416">
        <ele>1778.0999999999999</ele>
        <time>2014-09-28T08:29:05Z</time>
      </trkpt>
      <trkpt lat="45.952020836994052" lon="9.508999083191156">
        <ele>1776.6500000000001</ele>
        <time>2014-09-28T08:29:11Z</time>
      </trkpt>
      <trkpt lat="45.952009605243802" lon="9.508944181725383">
        <ele>1775.6900000000001</ele>
        <time>2014-09-28T08:29:14Z</time>
      </trkpt>
      <trkpt lat="45.952013963833451" lon="9.508890118449926">
        <ele>1775.6900000000001</ele>
        <time>2014-09-28T08:29:17Z</time>
      </trkpt>
      <trkpt lat="45.952035756781697" lon="9.508856674656272">
        <ele>1776.1700000000001</ele>
        <time>2014-09-28T08:29:31Z</time>
      </trkpt>
      <trkpt lat="45.952042378485203" lon="9.508816357702017">
        <ele>1775.6900000000001</ele>
        <time>2014-09-28T08:29:35Z</time>
      </trkpt>
      <trkpt lat="45.952036762610078" lon="9.508624244481325">
        <ele>1774.25</ele>
        <time>2014-09-28T08:29:46Z</time>
      </trkpt>
      <trkpt lat="45.952054783701897" lon="9.50857219286263">
        <ele>1774.73</ele>
        <time>2014-09-28T08:29:50Z</time>
      </trkpt>
      <trkpt lat="45.952086467295885" lon="9.508475968614221">
        <ele>1775.21</ele>
        <time>2014-09-28T08:29:58Z</time>
      </trkpt>
      <trkpt lat="45.952116474509239" lon="9.50838360004127">
        <ele>1774.25</ele>
        <time>2014-09-28T08:30:03Z</time>
      </trkpt>
      <trkpt lat="45.952118989080191" lon="9.508335152640939">
        <ele>1773.77</ele>
        <time>2014-09-28T08:30:05Z</time>
      </trkpt>
      <trkpt lat="45.952138854190707" lon="9.508202718570828">
        <ele>1772.8099999999999</ele>
        <time>2014-09-28T08:30:13Z</time>
      </trkpt>
      <trkpt lat="45.952209681272507" lon="9.508018987253308">
        <ele>1770.8900000000001</ele>
        <time>2014-09-28T08:30:26Z</time>
      </trkpt>
      <trkpt lat="45.952212195843458" lon="9.50797020457685">
        <ele>1769.9200000000001</ele>
        <time>2014-09-28T08:30:30Z</time>
      </trkpt>
      <trkpt lat="45.952275646850467" lon="9.507821090519428">
        <ele>1769.4400000000001</ele>
        <time>2014-09-28T08:30:43Z</time>
      </trkpt>
      <trkpt lat="45.952288387343287" lon="9.507798459380865">
        <ele>1769.4400000000001</ele>
        <time>2014-09-28T08:30:45Z</time>
      </trkpt>
      <trkpt lat="45.952372709289193" lon="9.507708605378866">
        <ele>1768.96</ele>
        <time>2014-09-28T08:30:56Z</time>
      </trkpt>
      <trkpt lat="45.95237891189754" lon="9.507683124393225">
        <ele>1768.96</ele>
        <time>2014-09-28T08:30:58Z</time>
      </trkpt>
      <trkpt lat="45.95241847448051" lon="9.507553959265351">
        <ele>1769.4400000000001</ele>
        <time>2014-09-28T08:31:07Z</time>
      </trkpt>
      <trkpt lat="45.95244781114161" lon="9.507350949570537">
        <ele>1769.4400000000001</ele>
        <time>2014-09-28T08:31:22Z</time>
      </trkpt>
      <trkpt lat="45.952465329319239" lon="9.507333682850003">
        <ele>1769.9200000000001</ele>
        <time>2014-09-28T08:31:25Z</time>
      </trkpt>
      <trkpt lat="45.952487960457802" lon="9.507297053933144">
        <ele>1770.8900000000001</ele>
        <time>2014-09-28T08:31:29Z</time>
      </trkpt>
      <trkpt lat="45.95258167013526" lon="9.507104605436325">
        <ele>1771.8499999999999</ele>
        <time>2014-09-28T08:31:45Z</time>
      </trkpt>
      <trkpt lat="45.952636236324906" lon="9.506998909637332">
        <ele>1774.25</ele>
        <time>2014-09-28T08:31:56Z</time>
      </trkpt>
      <trkpt lat="45.952649395912886" lon="9.50692749582231">
        <ele>1774.73</ele>
        <time>2014-09-28T08:32:03Z</time>
      </trkpt>
      <trkpt lat="45.952651659026742" lon="9.506881143897772">
        <ele>1774.25</ele>
        <time>2014-09-28T08:32:06Z</time>
      </trkpt>
      <trkpt lat="45.952703123912215" lon="9.506799420341849">
        <ele>1774.25</ele>
        <time>2014-09-28T08:32:13Z</time>
      </trkpt>
      <trkpt lat="45.952746961265802" lon="9.506749464198947">
        <ele>1775.21</ele>
        <time>2014-09-28T08:32:18Z</time>
      </trkpt>
      <trkpt lat="45.952836647629738" lon="9.506580233573914">
        <ele>1776.1700000000001</ele>
        <time>2014-09-28T08:32:33Z</time>
      </trkpt>
      <trkpt lat="45.952897081151605" lon="9.506440171971917">
        <ele>1778.0999999999999</ele>
        <time>2014-09-28T08:32:46Z</time>
      </trkpt>
      <trkpt lat="45.952905211597681" lon="9.506384851410985">
        <ele>1778.0999999999999</ele>
        <time>2014-09-28T08:33:01Z</time>
      </trkpt>
      <trkpt lat="45.952911162748933" lon="9.506385857239366">
        <ele>1778.0999999999999</ele>
        <time>2014-09-28T08:33:23Z</time>
      </trkpt>
      <trkpt lat="45.952892219647765" lon="9.506394239142537">
        <ele>1778.0999999999999</ele>
        <time>2014-09-28T08:33:41Z</time>
      </trkpt>
      <trkpt lat="45.952891381457448" lon="9.506395161151886">
        <ele>1778.0999999999999</ele>
        <time>2014-09-28T08:34:03Z</time>
      </trkpt>
      <trkpt lat="45.952920466661453" lon="9.506282759830356">
        <ele>1778.0999999999999</ele>
        <time>2014-09-28T08:34:13Z</time>
      </trkpt>
      <trkpt lat="45.952960029244423" lon="9.506221152842045">
        <ele>1778.0999999999999</ele>
        <time>2014-09-28T08:34:18Z</time>
      </trkpt>
      <trkpt lat="45.95303806476295" lon="9.506011437624693">
        <ele>1777.6099999999999</ele>
        <time>2014-09-28T08:34:32Z</time>
      </trkpt>
      <trkpt lat="45.953110484406352" lon="9.505760734900832">
        <ele>1777.6099999999999</ele>
        <time>2014-09-28T08:34:48Z</time>
      </trkpt>
      <trkpt lat="45.953126158565283" lon="9.505685130134225">
        <ele>1777.6099999999999</ele>
        <time>2014-09-28T08:34:54Z</time>
      </trkpt>
      <trkpt lat="45.95312213525176" lon="9.505670294165611">
        <ele>1777.6099999999999</ele>
        <time>2014-09-28T08:34:55Z</time>
      </trkpt>
      <trkpt lat="45.953148873522878" lon="9.505476001650095">
        <ele>1778.5799999999999</ele>
        <time>2014-09-28T08:35:07Z</time>
      </trkpt>
      <trkpt lat="45.953148873522878" lon="9.505392936989665">
        <ele>1777.6099999999999</ele>
        <time>2014-09-28T08:35:12Z</time>
      </trkpt>
      <trkpt lat="45.953145269304514" lon="9.505362426862121">
        <ele>1778.0999999999999</ele>
        <time>2014-09-28T08:35:14Z</time>
      </trkpt>
      <trkpt lat="45.953159015625715" lon="9.505095547065139">
        <ele>1777.6099999999999</ele>
        <time>2014-09-28T08:35:30Z</time>
      </trkpt>
      <trkpt lat="45.953187011182308" lon="9.504801006987691">
        <ele>1778.5799999999999</ele>
        <time>2014-09-28T08:35:47Z</time>
      </trkpt>
      <trkpt lat="45.953160608187318" lon="9.504571259021759">
        <ele>1780.02</ele>
        <time>2014-09-28T08:36:01Z</time>
      </trkpt>
      <trkpt lat="45.953186424449086" lon="9.504196085035801">
        <ele>1780.02</ele>
        <time>2014-09-28T08:36:22Z</time>
      </trkpt>
      <trkpt lat="45.953191369771957" lon="9.504145039245486">
        <ele>1780.02</ele>
        <time>2014-09-28T08:36:25Z</time>
      </trkpt>
      <trkpt lat="45.953198075294495" lon="9.504082007333636">
        <ele>1779.0599999999999</ele>
        <time>2014-09-28T08:36:29Z</time>
      </trkpt>
      <trkpt lat="45.953238476067781" lon="9.503917722031474">
        <ele>1777.6099999999999</ele>
        <time>2014-09-28T08:36:38Z</time>
      </trkpt>
      <trkpt lat="45.953257838264108" lon="9.50385544449091">
        <ele>1777.6099999999999</ele>
        <time>2014-09-28T08:36:42Z</time>
      </trkpt>
      <trkpt lat="45.953291365876794" lon="9.503789730370045">
        <ele>1777.6099999999999</ele>
        <time>2014-09-28T08:36:47Z</time>
      </trkpt>
      <trkpt lat="45.953335287049413" lon="9.503750167787075">
        <ele>1778.0999999999999</ele>
        <time>2014-09-28T08:36:51Z</time>
      </trkpt>
      <trkpt lat="45.953406952321529" lon="9.503600550815463">
        <ele>1777.1300000000001</ele>
        <time>2014-09-28T08:37:04Z</time>
      </trkpt>
      <trkpt lat="45.95341139473021" lon="9.503541542217135">
        <ele>1779.0599999999999</ele>
        <time>2014-09-28T08:37:08Z</time>
      </trkpt>
      <trkpt lat="45.953488675877452" lon="9.5034259557724">
        <ele>1776.6500000000001</ele>
        <time>2014-09-28T08:37:21Z</time>
      </trkpt>
      <trkpt lat="45.953542068600655" lon="9.503277009353042">
        <ele>1774.73</ele>
        <time>2014-09-28T08:37:35Z</time>
      </trkpt>
      <trkpt lat="45.953567046672106" lon="9.503205763176084">
        <ele>1774.73</ele>
        <time>2014-09-28T08:37:47Z</time>
      </trkpt>
      <trkpt lat="45.953622618690133" lon="9.503121776506305">
        <ele>1773.77</ele>
        <time>2014-09-28T08:37:54Z</time>
      </trkpt>
      <trkpt lat="45.953641477972269" lon="9.503103336319327">
        <ele>1774.25</ele>
        <time>2014-09-28T08:37:56Z</time>
      </trkpt>
      <trkpt lat="45.953659331426024" lon="9.503089003264904">
        <ele>1774.73</ele>
        <time>2014-09-28T08:37:58Z</time>
      </trkpt>
      <trkpt lat="45.953673496842384" lon="9.50307073071599">
        <ele>1775.21</ele>
        <time>2014-09-28T08:38:00Z</time>
      </trkpt>
      <trkpt lat="45.953737534582615" lon="9.502886245027185">
        <ele>1775.21</ele>
        <time>2014-09-28T08:38:13Z</time>
      </trkpt>
      <trkpt lat="45.953737450763583" lon="9.502807790413499">
        <ele>1774.73</ele>
        <time>2014-09-28T08:38:23Z</time>
      </trkpt>
      <trkpt lat="45.953753963112831" lon="9.502755152061582">
        <ele>1775.21</ele>
        <time>2014-09-28T08:38:28Z</time>
      </trkpt>
      <trkpt lat="45.953767793253064" lon="9.502734867855907">
        <ele>1775.21</ele>
        <time>2014-09-28T08:38:30Z</time>
      </trkpt>
      <trkpt lat="45.953798471018672" lon="9.502533785998821">
        <ele>1774.73</ele>
        <time>2014-09-28T08:38:44Z</time>
      </trkpt>
      <trkpt lat="45.953864688053727" lon="9.502350306138396">
        <ele>1776.6500000000001</ele>
        <time>2014-09-28T08:38:57Z</time>
      </trkpt>
      <trkpt lat="45.953900562599301" lon="9.502101112157106">
        <ele>1777.6099999999999</ele>
        <time>2014-09-28T08:39:13Z</time>
      </trkpt>
      <trkpt lat="45.953917074948549" lon="9.501932132989168">
        <ele>1779.54</ele>
        <time>2014-09-28T08:39:25Z</time>
      </trkpt>
      <trkpt lat="45.953933000564575" lon="9.501743037253618">
        <ele>1781.46</ele>
        <time>2014-09-28T08:39:39Z</time>
      </trkpt>
      <trkpt lat="45.953945908695459" lon="9.50160046108067">
        <ele>1783.8599999999999</ele>
        <time>2014-09-28T08:39:51Z</time>
      </trkpt>
      <trkpt lat="45.953977424651384" lon="9.501457130536437">
        <ele>1785.3099999999999</ele>
        <time>2014-09-28T08:40:03Z</time>
      </trkpt>
      <trkpt lat="45.953993098810315" lon="9.501355793327093">
        <ele>1787.23</ele>
        <time>2014-09-28T08:40:14Z</time>
      </trkpt>
      <trkpt lat="45.954002654179931" lon="9.501277171075344">
        <ele>1789.1500000000001</ele>
        <time>2014-09-28T08:40:24Z</time>
      </trkpt>
      <trkpt lat="45.954038528725505" lon="9.501216905191541">
        <ele>1789.6300000000001</ele>
        <time>2014-09-28T08:40:36Z</time>
      </trkpt>
      <trkpt lat="45.954025033861399" lon="9.501215731725097">
        <ele>1790.1099999999999</ele>
        <time>2014-09-28T08:40:53Z</time>
      </trkpt>
      <trkpt lat="45.954024530947208" lon="9.501208104193211">
        <ele>1789.6300000000001</ele>
        <time>2014-09-28T08:41:07Z</time>
      </trkpt>
      <trkpt lat="45.954034756869078" lon="9.501186730340123">
        <ele>1790.1099999999999</ele>
        <time>2014-09-28T08:41:22Z</time>
      </trkpt>
      <trkpt lat="45.954025788232684" lon="9.501193184405565">
        <ele>1789.6300000000001</ele>
        <time>2014-09-28T08:41:38Z</time>
      </trkpt>
      <trkpt lat="45.954024279490113" lon="9.501182036474347">
        <ele>1789.6300000000001</ele>
        <time>2014-09-28T08:41:50Z</time>
      </trkpt>
      <trkpt lat="45.954020256176591" lon="9.501185724511743">
        <ele>1789.6300000000001</ele>
        <time>2014-09-28T08:42:12Z</time>
      </trkpt>
      <trkpt lat="45.954021513462067" lon="9.501181533560157">
        <ele>1789.6300000000001</ele>
        <time>2014-09-28T08:42:27Z</time>
      </trkpt>
      <trkpt lat="45.95401925034821" lon="9.501178516075015">
        <ele>1789.6300000000001</ele>
        <time>2014-09-28T08:42:42Z</time>
      </trkpt>
      <trkpt lat="45.954029057174921" lon="9.501172313466668">
        <ele>1789.1500000000001</ele>
        <time>2014-09-28T08:43:00Z</time>
      </trkpt>
      <trkpt lat="45.954027129337192" lon="9.501163512468338">
        <ele>1788.6700000000001</ele>
        <time>2014-09-28T08:43:09Z</time>
      </trkpt>
      <trkpt lat="45.954026207327843" lon="9.501161919906735">
        <ele>1788.1900000000001</ele>
        <time>2014-09-28T08:43:37Z</time>
      </trkpt>
      <trkpt lat="45.954024950042367" lon="9.501162758097053">
        <ele>1788.6700000000001</ele>
        <time>2014-09-28T08:43:57Z</time>
      </trkpt>
      <trkpt lat="45.954020256176591" lon="9.501174995675683">
        <ele>1788.6700000000001</ele>
        <time>2014-09-28T08:44:15Z</time>
      </trkpt>
      <trkpt lat="45.954014891758561" lon="9.5011948607862">
        <ele>1789.6300000000001</ele>
        <time>2014-09-28T08:44:23Z</time>
      </trkpt>
      <trkpt lat="45.954017993062735" lon="9.501193352043629">
        <ele>1789.6300000000001</ele>
        <time>2014-09-28T08:44:38Z</time>
      </trkpt>
      <trkpt lat="45.954012209549546" lon="9.501177174970508">
        <ele>1789.6300000000001</ele>
        <time>2014-09-28T08:44:58Z</time>
      </trkpt>
      <trkpt lat="45.954005336388946" lon="9.501201566308737">
        <ele>1789.1500000000001</ele>
        <time>2014-09-28T08:45:22Z</time>
      </trkpt>
      <trkpt lat="45.954016149044037" lon="9.501175582408905">
        <ele>1789.1500000000001</ele>
        <time>2014-09-28T08:45:42Z</time>
      </trkpt>
      <trkpt lat="45.95403291285038" lon="9.501178096979857">
        <ele>1789.6300000000001</ele>
        <time>2014-09-28T08:45:56Z</time>
      </trkpt>
      <trkpt lat="45.954035259783268" lon="9.501179940998554">
        <ele>1789.1500000000001</ele>
        <time>2014-09-28T08:46:16Z</time>
      </trkpt>
      <trkpt lat="45.954045485705137" lon="9.501179102808237">
        <ele>1789.1500000000001</ele>
        <time>2014-09-28T08:46:19Z</time>
      </trkpt>
      <trkpt lat="45.954187056049705" lon="9.501191508024931">
        <ele>1785.3099999999999</ele>
        <time>2014-09-28T08:46:35Z</time>
      </trkpt>
      <trkpt lat="45.954202562570572" lon="9.501199387013912">
        <ele>1784.8199999999999</ele>
        <time>2014-09-28T08:46:37Z</time>
      </trkpt>
      <trkpt lat="45.954223182052374" lon="9.501244649291039">
        <ele>1783.3800000000001</ele>
        <time>2014-09-28T08:46:41Z</time>
      </trkpt>
      <trkpt lat="45.954298116266727" lon="9.501429302617908">
        <ele>1780.02</ele>
        <time>2014-09-28T08:46:58Z</time>
      </trkpt>
      <trkpt lat="45.954344049096107" lon="9.501674138009548">
        <ele>1780.02</ele>
        <time>2014-09-28T08:47:14Z</time>
      </trkpt>
      <trkpt lat="45.954407248646021" lon="9.501807074993849">
        <ele>1777.1300000000001</ele>
        <time>2014-09-28T08:47:26Z</time>
      </trkpt>
      <trkpt lat="45.954467933624983" lon="9.502013521268964">
        <ele>1776.1700000000001</ele>
        <time>2014-09-28T08:47:40Z</time>
      </trkpt>
      <trkpt lat="45.954507747665048" lon="9.502202365547419">
        <ele>1775.6900000000001</ele>
        <time>2014-09-28T08:47:52Z</time>
      </trkpt>
      <trkpt lat="45.954528618603945" lon="9.502286855131388">
        <ele>1775.21</ele>
        <time>2014-09-28T08:47:58Z</time>
      </trkpt>
      <trkpt lat="45.95460070297122" lon="9.502485673874617">
        <ele>1772.8099999999999</ele>
        <time>2014-09-28T08:48:12Z</time>
      </trkpt>
      <trkpt lat="45.954652586951852" lon="9.502632860094309">
        <ele>1771.3699999999999</ele>
        <time>2014-09-28T08:48:23Z</time>
      </trkpt>
      <trkpt lat="45.954656945541501" lon="9.502662364393473">
        <ele>1770.8900000000001</ele>
        <time>2014-09-28T08:48:25Z</time>
      </trkpt>
      <trkpt lat="45.954775214195251" lon="9.502846598625183">
        <ele>1768.48</ele>
        <time>2014-09-28T08:48:41Z</time>
      </trkpt>
      <trkpt lat="45.954881748184562" lon="9.50293779373169">
        <ele>1767.04</ele>
        <time>2014-09-28T08:48:53Z</time>
      </trkpt>
      <trkpt lat="45.954902870580554" lon="9.503018762916327">
        <ele>1767.04</ele>
        <time>2014-09-28T08:48:58Z</time>
      </trkpt>
      <trkpt lat="45.954954922199249" lon="9.503039717674255">
        <ele>1766.5599999999999</ele>
        <time>2014-09-28T08:49:03Z</time>
      </trkpt>
      <trkpt lat="45.955058941617608" lon="9.503070395439863">
        <ele>1766.5599999999999</ele>
        <time>2014-09-28T08:49:16Z</time>
      </trkpt>
      <trkpt lat="45.955085512250662" lon="9.503084979951382">
        <ele>1766.0799999999999</ele>
        <time>2014-09-28T08:49:19Z</time>
      </trkpt>
      <trkpt lat="45.955102443695068" lon="9.503127560019493">
        <ele>1765.5999999999999</ele>
        <time>2014-09-28T08:49:22Z</time>
      </trkpt>
      <trkpt lat="45.955101689323783" lon="9.503228310495615">
        <ele>1765.5999999999999</ele>
        <time>2014-09-28T08:49:36Z</time>
      </trkpt>
      <trkpt lat="45.95512012951076" lon="9.503198470920324">
        <ele>1765.1199999999999</ele>
        <time>2014-09-28T08:49:54Z</time>
      </trkpt>
      <trkpt lat="45.955121722072363" lon="9.50317332521081">
        <ele>1765.5999999999999</ele>
        <time>2014-09-28T08:49:56Z</time>
      </trkpt>
      <trkpt lat="45.955142676830292" lon="9.503172067925334">
        <ele>1765.1199999999999</ele>
        <time>2014-09-28T08:49:58Z</time>
      </trkpt>
      <trkpt lat="45.955256335437298" lon="9.503100151196122">
        <ele>1767.52</ele>
        <time>2014-09-28T08:50:13Z</time>
      </trkpt>
      <trkpt lat="45.955260777845979" lon="9.503090931102634">
        <ele>1767.52</ele>
        <time>2014-09-28T08:50:14Z</time>
      </trkpt>
      <trkpt lat="45.955278715118766" lon="9.503068132326007">
        <ele>1768</ele>
        <time>2014-09-28T08:50:17Z</time>
      </trkpt>
      <trkpt lat="45.955344093963504" lon="9.503060420975089">
        <ele>1769.9200000000001</ele>
        <time>2014-09-28T08:50:25Z</time>
      </trkpt>
      <trkpt lat="45.955410394817591" lon="9.503021528944373">
        <ele>1771.3699999999999</ele>
        <time>2014-09-28T08:50:33Z</time>
      </trkpt>
      <trkpt lat="45.955441072583199" lon="9.502976015210152">
        <ele>1772.8099999999999</ele>
        <time>2014-09-28T08:50:38Z</time>
      </trkpt>
      <trkpt lat="45.955504439771175" lon="9.502830086275935">
        <ele>1774.73</ele>
        <time>2014-09-28T08:50:50Z</time>
      </trkpt>
      <trkpt lat="45.955511815845966" lon="9.502818351611495">
        <ele>1774.73</ele>
        <time>2014-09-28T08:50:51Z</time>
      </trkpt>
      <trkpt lat="45.955521035939455" lon="9.502794547006488">
        <ele>1774.73</ele>
        <time>2014-09-28T08:50:53Z</time>
      </trkpt>
      <trkpt lat="45.955620361492038" lon="9.502714332193136">
        <ele>1777.1300000000001</ele>
        <time>2014-09-28T08:51:06Z</time>
      </trkpt>
      <trkpt lat="45.955720525234938" lon="9.502672422677279">
        <ele>1779.54</ele>
        <time>2014-09-28T08:51:17Z</time>
      </trkpt>
      <trkpt lat="45.955802667886019" lon="9.502670830115676">
        <ele>1778.5799999999999</ele>
        <time>2014-09-28T08:51:25Z</time>
      </trkpt>
      <trkpt lat="45.955849103629589" lon="9.502654233947396">
        <ele>1779.0599999999999</ele>
        <time>2014-09-28T08:51:29Z</time>
      </trkpt>
      <trkpt lat="45.955868298187852" lon="9.502639230340719">
        <ele>1779.0599999999999</ele>
        <time>2014-09-28T08:51:31Z</time>
      </trkpt>
      <trkpt lat="45.955962175503373" lon="9.502630177885294">
        <ele>1780.5</ele>
        <time>2014-09-28T08:51:46Z</time>
      </trkpt>
      <trkpt lat="45.955960834398866" lon="9.502656664699316">
        <ele>1779.54</ele>
        <time>2014-09-28T08:52:00Z</time>
      </trkpt>
      <trkpt lat="45.955974161624908" lon="9.502627411857247">
        <ele>1779.54</ele>
        <time>2014-09-28T08:52:28Z</time>
      </trkpt>
      <trkpt lat="45.955957062542439" lon="9.502651803195477">
        <ele>1779.54</ele>
        <time>2014-09-28T08:52:49Z</time>
      </trkpt>
      <trkpt lat="45.955958487465978" lon="9.502647276967764">
        <ele>1779.54</ele>
        <time>2014-09-28T08:53:22Z</time>
      </trkpt>
      <trkpt lat="45.955944238230586" lon="9.502646438777447">
        <ele>1779.54</ele>
        <time>2014-09-28T08:53:59Z</time>
      </trkpt>
      <trkpt lat="45.955936191603541" lon="9.502688767388463">
        <ele>1779.54</ele>
        <time>2014-09-28T08:54:26Z</time>
      </trkpt>
      <trkpt lat="45.955930827185512" lon="9.502680972218514">
        <ele>1779.54</ele>
        <time>2014-09-28T08:54:56Z</time>
      </trkpt>
      <trkpt lat="45.95596301369369" lon="9.502627160400152">
        <ele>1779.54</ele>
        <time>2014-09-28T08:55:25Z</time>
      </trkpt>
      <trkpt lat="45.955973574891686" lon="9.502623975276947">
        <ele>1779.54</ele>
        <time>2014-09-28T08:55:54Z</time>
      </trkpt>
      <trkpt lat="45.955957900732756" lon="9.502648115158081">
        <ele>1779.54</ele>
        <time>2014-09-28T08:56:26Z</time>
      </trkpt>
      <trkpt lat="45.955972904339433" lon="9.502628250047565">
        <ele>1779.54</ele>
        <time>2014-09-28T08:56:57Z</time>
      </trkpt>
      <trkpt lat="45.955965360626578" lon="9.502634704113007">
        <ele>1779.54</ele>
        <time>2014-09-28T08:57:30Z</time>
      </trkpt>
      <trkpt lat="45.955953625962138" lon="9.502661861479282">
        <ele>1779.54</ele>
        <time>2014-09-28T08:58:05Z</time>
      </trkpt>
      <trkpt lat="45.95597474835813" lon="9.502653311938047">
        <ele>1779.54</ele>
        <time>2014-09-28T08:58:32Z</time>
      </trkpt>
      <trkpt lat="45.955973574891686" lon="9.502624059095979">
        <ele>1779.54</ele>
        <time>2014-09-28T08:59:02Z</time>
      </trkpt>
      <trkpt lat="45.955978604033589" lon="9.502596985548735">
        <ele>1779.54</ele>
        <time>2014-09-28T08:59:39Z</time>
      </trkpt>
      <trkpt lat="45.955987991765141" lon="9.502594973891974">
        <ele>1779.54</ele>
        <time>2014-09-28T09:00:11Z</time>
      </trkpt>
      <trkpt lat="45.955977430567145" lon="9.502615509554744">
        <ele>1780.98</ele>
        <time>2014-09-28T09:00:29Z</time>
      </trkpt>
      <trkpt lat="45.955974915996194" lon="9.502615677192807">
        <ele>1779.54</ele>
        <time>2014-09-28T09:00:31Z</time>
      </trkpt>
      <trkpt lat="45.955953625962138" lon="9.5026402361691">
        <ele>1779.54</ele>
        <time>2014-09-28T09:00:46Z</time>
      </trkpt>
      <trkpt lat="45.955947171896696" lon="9.50270083732903">
        <ele>1779.54</ele>
        <time>2014-09-28T09:01:02Z</time>
      </trkpt>
      <trkpt lat="45.955960666760802" lon="9.502647696062923">
        <ele>1779.54</ele>
        <time>2014-09-28T09:01:21Z</time>
      </trkpt>
      <trkpt lat="45.955956978723407" lon="9.502649791538715">
        <ele>1779.54</ele>
        <time>2014-09-28T09:01:39Z</time>
      </trkpt>
      <trkpt lat="45.955958655104041" lon="9.50263780541718">
        <ele>1779.54</ele>
        <time>2014-09-28T09:01:53Z</time>
      </trkpt>
      <trkpt lat="45.955968629568815" lon="9.502662029117346">
        <ele>1779.54</ele>
        <time>2014-09-28T09:01:59Z</time>
      </trkpt>
      <trkpt lat="45.956029566004872" lon="9.50282690115273">
        <ele>1780.02</ele>
        <time>2014-09-28T09:02:11Z</time>
      </trkpt>
      <trkpt lat="45.956118414178491" lon="9.50298372656107">
        <ele>1781.46</ele>
        <time>2014-09-28T09:02:25Z</time>
      </trkpt>
      <trkpt lat="45.956133585423231" lon="9.503095960244536">
        <ele>1781.9400000000001</ele>
        <time>2014-09-28T09:02:36Z</time>
      </trkpt>
      <trkpt lat="45.956141715869308" lon="9.503171062096953">
        <ele>1781.9400000000001</ele>
        <time>2014-09-28T09:02:41Z</time>
      </trkpt>
      <trkpt lat="45.95613794401288" lon="9.503229567781091">
        <ele>1782.4200000000001</ele>
        <time>2014-09-28T09:02:45Z</time>
      </trkpt>
      <trkpt lat="45.956151271238923" lon="9.503429727628827">
        <ele>1782.9000000000001</ele>
        <time>2014-09-28T09:02:59Z</time>
      </trkpt>
      <trkpt lat="45.956161078065634" lon="9.503634246066213">
        <ele>1783.8599999999999</ele>
        <time>2014-09-28T09:03:14Z</time>
      </trkpt>
      <trkpt lat="45.956135932356119" lon="9.503861730918288">
        <ele>1784.8199999999999</ele>
        <time>2014-09-28T09:03:30Z</time>
      </trkpt>
      <trkpt lat="45.956128891557455" lon="9.504005229100585">
        <ele>1785.79</ele>
        <time>2014-09-28T09:03:44Z</time>
      </trkpt>
      <trkpt lat="45.956087904050946" lon="9.504191055893898">
        <ele>1786.75</ele>
        <time>2014-09-28T09:03:58Z</time>
      </trkpt>
      <trkpt lat="45.956076504662633" lon="9.504405381157994">
        <ele>1788.1900000000001</ele>
        <time>2014-09-28T09:04:13Z</time>
      </trkpt>
      <trkpt lat="45.95607440918684" lon="9.504595147445798">
        <ele>1790.1099999999999</ele>
        <time>2014-09-28T09:04:26Z</time>
      </trkpt>
      <trkpt lat="45.956022022292018" lon="9.50480293482542">
        <ele>1791.0699999999999</ele>
        <time>2014-09-28T09:04:42Z</time>
      </trkpt>
      <trkpt lat="45.955958822742105" lon="9.505008542910218">
        <ele>1792.52</ele>
        <time>2014-09-28T09:04:59Z</time>
      </trkpt>
      <trkpt lat="45.955955386161804" lon="9.505182802677155">
        <ele>1794.9200000000001</ele>
        <time>2014-09-28T09:05:15Z</time>
      </trkpt>
      <trkpt lat="45.955975754186511" lon="9.50534725561738">
        <ele>1796.8399999999999</ele>
        <time>2014-09-28T09:05:32Z</time>
      </trkpt>
      <trkpt lat="45.956001067534089" lon="9.505480024963617">
        <ele>1799.73</ele>
        <time>2014-09-28T09:05:48Z</time>
      </trkpt>
      <trkpt lat="45.955982794985175" lon="9.505630899220705">
        <ele>1801.6500000000001</ele>
        <time>2014-09-28T09:06:02Z</time>
      </trkpt>
      <trkpt lat="45.955938454717398" lon="9.50576551258564">
        <ele>1804.05</ele>
        <time>2014-09-28T09:06:17Z</time>
      </trkpt>
      <trkpt lat="45.955894030630589" lon="9.505904149264097">
        <ele>1805.97</ele>
        <time>2014-09-28T09:06:31Z</time>
      </trkpt>
      <trkpt lat="45.955860503017902" lon="9.506041277199984">
        <ele>1808.8599999999999</ele>
        <time>2014-09-28T09:06:46Z</time>
      </trkpt>
      <trkpt lat="45.955819096416235" lon="9.506182763725519">
        <ele>1810.78</ele>
        <time>2014-09-28T09:07:01Z</time>
      </trkpt>
      <trkpt lat="45.955764865502715" lon="9.506309330463409">
        <ele>1813.1800000000001</ele>
        <time>2014-09-28T09:07:16Z</time>
      </trkpt>
      <trkpt lat="45.955734690651298" lon="9.506356855854392">
        <ele>1812.7</ele>
        <time>2014-09-28T09:07:24Z</time>
      </trkpt>
      <trkpt lat="45.955737121403217" lon="9.506330452859402">
        <ele>1812.7</ele>
        <time>2014-09-28T09:07:40Z</time>
      </trkpt>
      <trkpt lat="45.955746006220579" lon="9.5063357334584">
        <ele>1814.1500000000001</ele>
        <time>2014-09-28T09:07:50Z</time>
      </trkpt>
      <trkpt lat="45.955745587125421" lon="9.506362471729517">
        <ele>1813.6600000000001</ele>
        <time>2014-09-28T09:08:10Z</time>
      </trkpt>
      <trkpt lat="45.955725386738777" lon="9.506484847515822">
        <ele>1815.1099999999999</ele>
        <time>2014-09-28T09:08:29Z</time>
      </trkpt>
      <trkpt lat="45.955715579912066" lon="9.506700010970235">
        <ele>1817.03</ele>
        <time>2014-09-28T09:08:45Z</time>
      </trkpt>
      <trkpt lat="45.955721866339445" lon="9.506905702874064">
        <ele>1819.4300000000001</ele>
        <time>2014-09-28T09:09:01Z</time>
      </trkpt>
      <trkpt lat="45.955728907138109" lon="9.50708482414484">
        <ele>1821.8399999999999</ele>
        <time>2014-09-28T09:09:16Z</time>
      </trkpt>
      <trkpt lat="45.955732762813568" lon="9.507248271256685">
        <ele>1823.28</ele>
        <time>2014-09-28T09:09:29Z</time>
      </trkpt>
      <trkpt lat="45.955723794177175" lon="9.507461758330464">
        <ele>1824.72</ele>
        <time>2014-09-28T09:09:44Z</time>
      </trkpt>
      <trkpt lat="45.955714825540781" lon="9.507633000612259">
        <ele>1826.1600000000001</ele>
        <time>2014-09-28T09:09:58Z</time>
      </trkpt>
      <trkpt lat="45.955714154988527" lon="9.507792256772518">
        <ele>1828.5599999999999</ele>
        <time>2014-09-28T09:10:10Z</time>
      </trkpt>
      <trkpt lat="45.955721279606223" lon="9.507948495447636">
        <ele>1830.97</ele>
        <time>2014-09-28T09:10:24Z</time>
      </trkpt>
      <trkpt lat="45.955724883824587" lon="9.5081299636513">
        <ele>1832.8900000000001</ele>
        <time>2014-09-28T09:10:38Z</time>
      </trkpt>
      <trkpt lat="45.955722536891699" lon="9.508310174569488">
        <ele>1835.29</ele>
        <time>2014-09-28T09:10:53Z</time>
      </trkpt>
      <trkpt lat="45.955717675387859" lon="9.508474376052618">
        <ele>1838.1800000000001</ele>
        <time>2014-09-28T09:11:10Z</time>
      </trkpt>
      <trkpt lat="45.955706443637609" lon="9.508624663576484">
        <ele>1841.0599999999999</ele>
        <time>2014-09-28T09:11:25Z</time>
      </trkpt>
      <trkpt lat="45.955707868561149" lon="9.508663807064295">
        <ele>1842.98</ele>
        <time>2014-09-28T09:11:29Z</time>
      </trkpt>
      <trkpt lat="45.955708790570498" lon="9.508807640522718">
        <ele>1844.4300000000001</ele>
        <time>2014-09-28T09:11:44Z</time>
      </trkpt>
      <trkpt lat="45.955758411437273" lon="9.508880982175469">
        <ele>1847.3099999999999</ele>
        <time>2014-09-28T09:12:00Z</time>
      </trkpt>
      <trkpt lat="45.955768972635269" lon="9.509025318548083">
        <ele>1848.75</ele>
        <time>2014-09-28T09:12:16Z</time>
      </trkpt>
      <trkpt lat="45.955759584903717" lon="9.509172337129712">
        <ele>1851.6400000000001</ele>
        <time>2014-09-28T09:12:33Z</time>
      </trkpt>
      <trkpt lat="45.955746257677674" lon="9.509335616603494">
        <ele>1853.5599999999999</ele>
        <time>2014-09-28T09:12:48Z</time>
      </trkpt>
      <trkpt lat="45.955727146938443" lon="9.509464111179113">
        <ele>1855.96</ele>
        <time>2014-09-28T09:13:01Z</time>
      </trkpt>
      <trkpt lat="45.955712897703052" lon="9.509579110890627">
        <ele>1857.4000000000001</ele>
        <time>2014-09-28T09:13:14Z</time>
      </trkpt>
      <trkpt lat="45.955709628760815" lon="9.509672233834863">
        <ele>1859.3299999999999</ele>
        <time>2014-09-28T09:13:23Z</time>
      </trkpt>
      <trkpt lat="45.955707198008895" lon="9.509694445878267">
        <ele>1859.3299999999999</ele>
        <time>2014-09-28T09:13:25Z</time>
      </trkpt>
      <trkpt lat="45.955699486657977" lon="9.509745659306645">
        <ele>1859.3299999999999</ele>
        <time>2014-09-28T09:13:29Z</time>
      </trkpt>
      <trkpt lat="45.955696552991867" lon="9.509760998189449">
        <ele>1860.77</ele>
        <time>2014-09-28T09:13:30Z</time>
      </trkpt>
      <trkpt lat="45.955688674002886" lon="9.509921595454216">
        <ele>1862.21</ele>
        <time>2014-09-28T09:13:45Z</time>
      </trkpt>
      <trkpt lat="45.955677777528763" lon="9.510071128606796">
        <ele>1864.6099999999999</ele>
        <time>2014-09-28T09:13:59Z</time>
      </trkpt>
      <trkpt lat="45.955676268786192" lon="9.510200209915638">
        <ele>1867.5</ele>
        <time>2014-09-28T09:14:13Z</time>
      </trkpt>
      <trkpt lat="45.955659421160817" lon="9.510231139138341">
        <ele>1867.98</ele>
        <time>2014-09-28T09:14:17Z</time>
      </trkpt>
      <trkpt lat="45.955646010115743" lon="9.510343121364713">
        <ele>1870.3800000000001</ele>
        <time>2014-09-28T09:14:30Z</time>
      </trkpt>
      <trkpt lat="45.955624300986528" lon="9.51044118963182">
        <ele>1872.3</ele>
        <time>2014-09-28T09:14:40Z</time>
      </trkpt>
      <trkpt lat="45.955618768930435" lon="9.510543700307608">
        <ele>1874.71</ele>
        <time>2014-09-28T09:14:53Z</time>
      </trkpt>
      <trkpt lat="45.955579793080688" lon="9.510671524330974">
        <ele>1877.1099999999999</ele>
        <time>2014-09-28T09:15:07Z</time>
      </trkpt>
      <trkpt lat="45.955555150285363" lon="9.510799935087562">
        <ele>1879.03</ele>
        <time>2014-09-28T09:15:20Z</time>
      </trkpt>
      <trkpt lat="45.95553545281291" lon="9.510904457420111">
        <ele>1881.9200000000001</ele>
        <time>2014-09-28T09:15:30Z</time>
      </trkpt>
      <trkpt lat="45.955536291003227" lon="9.510914431884885">
        <ele>1881.9200000000001</ele>
        <time>2014-09-28T09:15:31Z</time>
      </trkpt>
      <trkpt lat="45.955508043989539" lon="9.511023396626115">
        <ele>1882.4000000000001</ele>
        <time>2014-09-28T09:15:43Z</time>
      </trkpt>
      <trkpt lat="45.955484574660659" lon="9.511164044961333">
        <ele>1884.8</ele>
        <time>2014-09-28T09:15:56Z</time>
      </trkpt>
      <trkpt lat="45.955482227727771" lon="9.511236464604735">
        <ele>1886.24</ele>
        <time>2014-09-28T09:16:03Z</time>
      </trkpt>
      <trkpt lat="45.955466134473681" lon="9.511400079354644">
        <ele>1888.6500000000001</ele>
        <time>2014-09-28T09:16:18Z</time>
      </trkpt>
      <trkpt lat="45.955493375658989" lon="9.511525556445122">
        <ele>1891.05</ele>
        <time>2014-09-28T09:16:31Z</time>
      </trkpt>
      <trkpt lat="45.955530256032944" lon="9.51163929887116">
        <ele>1893.45</ele>
        <time>2014-09-28T09:16:43Z</time>
      </trkpt>
      <trkpt lat="45.955569734796882" lon="9.511826718226075">
        <ele>1895.8599999999999</ele>
        <time>2014-09-28T09:16:59Z</time>
      </trkpt>
      <trkpt lat="45.955588677898049" lon="9.51201262883842">
        <ele>1898.26</ele>
        <time>2014-09-28T09:17:13Z</time>
      </trkpt>
      <trkpt lat="45.955590270459652" lon="9.512061746791005">
        <ele>1899.22</ele>
        <time>2014-09-28T09:17:17Z</time>
      </trkpt>
      <trkpt lat="45.95562782138586" lon="9.512200970202684">
        <ele>1900.6600000000001</ele>
        <time>2014-09-28T09:17:28Z</time>
      </trkpt>
      <trkpt lat="45.955663695931435" lon="9.51241135597229">
        <ele>1899.7</ele>
        <time>2014-09-28T09:17:41Z</time>
      </trkpt>
      <trkpt lat="45.955654811114073" lon="9.512519650161266">
        <ele>1900.6600000000001</ele>
        <time>2014-09-28T09:17:49Z</time>
      </trkpt>
      <trkpt lat="45.955697558820248" lon="9.512651581317186">
        <ele>1901.1400000000001</ele>
        <time>2014-09-28T09:17:58Z</time>
      </trkpt>
      <trkpt lat="45.95572404563427" lon="9.512876300141215">
        <ele>1903.0699999999999</ele>
        <time>2014-09-28T09:18:15Z</time>
      </trkpt>
      <trkpt lat="45.955727649852633" lon="9.513036897405982">
        <ele>1904.51</ele>
        <time>2014-09-28T09:18:26Z</time>
      </trkpt>
      <trkpt lat="45.955751873552799" lon="9.513150807470083">
        <ele>1908.8299999999999</ele>
        <time>2014-09-28T09:18:36Z</time>
      </trkpt>
      <trkpt lat="45.955754555761814" lon="9.513163045048714">
        <ele>1906.9100000000001</ele>
        <time>2014-09-28T09:18:37Z</time>
      </trkpt>
      <trkpt lat="45.955765955150127" lon="9.513283828273416">
        <ele>1908.8299999999999</ele>
        <time>2014-09-28T09:18:49Z</time>
      </trkpt>
      <trkpt lat="45.955785065889359" lon="9.513408886268735">
        <ele>1911.72</ele>
        <time>2014-09-28T09:19:05Z</time>
      </trkpt>
      <trkpt lat="45.955749191343784" lon="9.513543080538511">
        <ele>1913.6400000000001</ele>
        <time>2014-09-28T09:19:16Z</time>
      </trkpt>
      <trkpt lat="45.95576805062592" lon="9.513568477705121">
        <ele>1916.04</ele>
        <time>2014-09-28T09:19:30Z</time>
      </trkpt>
      <trkpt lat="45.955775510519743" lon="9.513580882921815">
        <ele>1917.97</ele>
        <time>2014-09-28T09:19:33Z</time>
      </trkpt>
      <trkpt lat="45.955775091424584" lon="9.513669144362211">
        <ele>1918.9300000000001</ele>
        <time>2014-09-28T09:19:44Z</time>
      </trkpt>
      <trkpt lat="45.955775594338775" lon="9.51373653486371">
        <ele>1920.8499999999999</ele>
        <time>2014-09-28T09:19:54Z</time>
      </trkpt>
      <trkpt lat="45.955782132223248" lon="9.513816833496094">
        <ele>1923.25</ele>
        <time>2014-09-28T09:20:07Z</time>
      </trkpt>
      <trkpt lat="45.955798057839274" lon="9.513839296996594">
        <ele>1925.1800000000001</ele>
        <time>2014-09-28T09:20:17Z</time>
      </trkpt>
      <trkpt lat="45.95577584579587" lon="9.513936275616288">
        <ele>1927.5799999999999</ele>
        <time>2014-09-28T09:20:28Z</time>
      </trkpt>
      <trkpt lat="45.955791184678674" lon="9.514009198173881">
        <ele>1929.5</ele>
        <time>2014-09-28T09:20:41Z</time>
      </trkpt>
      <trkpt lat="45.955794285982847" lon="9.514091843739152">
        <ele>1932.8699999999999</ele>
        <time>2014-09-28T09:20:57Z</time>
      </trkpt>
      <trkpt lat="45.955780791118741" lon="9.514252860099077">
        <ele>1935.75</ele>
        <time>2014-09-28T09:21:14Z</time>
      </trkpt>
      <trkpt lat="45.955792609602213" lon="9.514330644160509">
        <ele>1938.6400000000001</ele>
        <time>2014-09-28T09:21:28Z</time>
      </trkpt>
      <trkpt lat="45.955821024253964" lon="9.514303738251329">
        <ele>1942</ele>
        <time>2014-09-28T09:21:36Z</time>
      </trkpt>
      <trkpt lat="45.955821024253964" lon="9.514310862869024">
        <ele>1942</ele>
        <time>2014-09-28T09:21:37Z</time>
      </trkpt>
      <trkpt lat="45.955820186063647" lon="9.514447739347816">
        <ele>1942.96</ele>
        <time>2014-09-28T09:21:50Z</time>
      </trkpt>
      <trkpt lat="45.955827981233597" lon="9.514579502865672">
        <ele>1945.8499999999999</ele>
        <time>2014-09-28T09:22:05Z</time>
      </trkpt>
      <trkpt lat="45.955811636522412" lon="9.514714283868671">
        <ele>1947.77</ele>
        <time>2014-09-28T09:22:21Z</time>
      </trkpt>
      <trkpt lat="45.95582278445363" lon="9.514869851991534">
        <ele>1949.6900000000001</ele>
        <time>2014-09-28T09:22:35Z</time>
      </trkpt>
      <trkpt lat="45.955811971798539" lon="9.515038244426251">
        <ele>1951.6099999999999</ele>
        <time>2014-09-28T09:22:49Z</time>
      </trkpt>
      <trkpt lat="45.955790681764483" lon="9.515168163925409">
        <ele>1954.02</ele>
        <time>2014-09-28T09:23:03Z</time>
      </trkpt>
      <trkpt lat="45.955766709521413" lon="9.515263801440597">
        <ele>1956.4200000000001</ele>
        <time>2014-09-28T09:23:24Z</time>
      </trkpt>
      <trkpt lat="45.955748772248626" lon="9.515345357358456">
        <ele>1959.3</ele>
        <time>2014-09-28T09:23:38Z</time>
      </trkpt>
      <trkpt lat="45.955749275162816" lon="9.515448873862624">
        <ele>1961.23</ele>
        <time>2014-09-28T09:23:54Z</time>
      </trkpt>
      <trkpt lat="45.955769894644618" lon="9.51545599848032">
        <ele>1964.1099999999999</ele>
        <time>2014-09-28T09:24:05Z</time>
      </trkpt>
      <trkpt lat="45.955743994563818" lon="9.515587594360113">
        <ele>1966.51</ele>
        <time>2014-09-28T09:24:18Z</time>
      </trkpt>
      <trkpt lat="45.955775426700711" lon="9.515568232163787">
        <ele>1967.48</ele>
        <time>2014-09-28T09:24:27Z</time>
      </trkpt>
      <trkpt lat="45.955788418650627" lon="9.515528921037912">
        <ele>1969.8800000000001</ele>
        <time>2014-09-28T09:24:39Z</time>
      </trkpt>
      <trkpt lat="45.955816330388188" lon="9.515655655413866">
        <ele>1972.76</ele>
        <time>2014-09-28T09:24:53Z</time>
      </trkpt>
      <trkpt lat="45.955763272941113" lon="9.515840392559767">
        <ele>1975.6500000000001</ele>
        <time>2014-09-28T09:25:10Z</time>
      </trkpt>
      <trkpt lat="45.955728320404887" lon="9.5159094594419">
        <ele>1978.05</ele>
        <time>2014-09-28T09:25:21Z</time>
      </trkpt>
      <trkpt lat="45.955673921853304" lon="9.515989422798157">
        <ele>1980.45</ele>
        <time>2014-09-28T09:25:35Z</time>
      </trkpt>
      <trkpt lat="45.955657241865993" lon="9.515990260988474">
        <ele>1982.8599999999999</ele>
        <time>2014-09-28T09:25:39Z</time>
      </trkpt>
      <trkpt lat="45.955610722303391" lon="9.516013814136386">
        <ele>1983.3399999999999</ele>
        <time>2014-09-28T09:25:50Z</time>
      </trkpt>
      <trkpt lat="45.955574428662658" lon="9.516130909323692">
        <ele>1985.74</ele>
        <time>2014-09-28T09:26:03Z</time>
      </trkpt>
      <trkpt lat="45.955586833879352" lon="9.516175081953406">
        <ele>1988.6199999999999</ele>
        <time>2014-09-28T09:26:18Z</time>
      </trkpt>
      <trkpt lat="45.955605190247297" lon="9.516246411949396">
        <ele>1991.51</ele>
        <time>2014-09-28T09:26:36Z</time>
      </trkpt>
      <trkpt lat="45.955621032044291" lon="9.516333164647222">
        <ele>1993.9100000000001</ele>
        <time>2014-09-28T09:26:51Z</time>
      </trkpt>
      <trkpt lat="45.955660091713071" lon="9.516405500471592">
        <ele>1997.28</ele>
        <time>2014-09-28T09:27:06Z</time>
      </trkpt>
      <trkpt lat="45.955703761428595" lon="9.516372475773096">
        <ele>1997.28</ele>
        <time>2014-09-28T09:27:15Z</time>
      </trkpt>
      <trkpt lat="45.956333745270967" lon="9.515589103102684">
        <ele>2000.1600000000001</ele>
        <time>2014-09-28T09:27:31Z</time>
      </trkpt>
      <trkpt lat="45.956379007548094" lon="9.515581810846925">
        <ele>2002.0799999999999</ele>
        <time>2014-09-28T09:27:42Z</time>
      </trkpt>
      <trkpt lat="45.956420749425888" lon="9.515543589368463">
        <ele>2004.49</ele>
        <time>2014-09-28T09:27:55Z</time>
      </trkpt>
      <trkpt lat="45.956501131877303" lon="9.515456417575479">
        <ele>2006.4100000000001</ele>
        <time>2014-09-28T09:28:09Z</time>
      </trkpt>
      <trkpt lat="45.956551590934396" lon="9.515374526381493">
        <ele>2008.8099999999999</ele>
        <time>2014-09-28T09:28:22Z</time>
      </trkpt>
      <trkpt lat="45.956543376669288" lon="9.515284253284335">
        <ele>2010.25</ele>
        <time>2014-09-28T09:28:34Z</time>
      </trkpt>
      <trkpt lat="45.956563074141741" lon="9.515195405110717">
        <ele>2012.1800000000001</ele>
        <time>2014-09-28T09:28:47Z</time>
      </trkpt>
      <trkpt lat="45.956572210416198" lon="9.515161877498031">
        <ele>2012.1800000000001</ele>
        <time>2014-09-28T09:28:50Z</time>
      </trkpt>
      <trkpt lat="45.956614287570119" lon="9.515226921066642">
        <ele>2013.1400000000001</ele>
        <time>2014-09-28T09:29:03Z</time>
      </trkpt>
      <trkpt lat="45.956589477136731" lon="9.515440911054611">
        <ele>2013.1400000000001</ele>
        <time>2014-09-28T09:29:17Z</time>
      </trkpt>
      <trkpt lat="45.95657916739583" lon="9.515493717044592">
        <ele>2013.1400000000001</ele>
        <time>2014-09-28T09:29:30Z</time>
      </trkpt>
      <trkpt lat="45.956591404974461" lon="9.515544343739748">
        <ele>2011.7</ele>
        <time>2014-09-28T09:29:40Z</time>
      </trkpt>
      <trkpt lat="45.956611186265945" lon="9.515603017061949">
        <ele>2014.0999999999999</ele>
        <time>2014-09-28T09:29:54Z</time>
      </trkpt>
      <trkpt lat="45.956591572612524" lon="9.515730254352093">
        <ele>2017.46</ele>
        <time>2014-09-28T09:30:12Z</time>
      </trkpt>
      <trkpt lat="45.956591572612524" lon="9.515754310414195">
        <ele>2016.98</ele>
        <time>2014-09-28T09:30:14Z</time>
      </trkpt>
      <trkpt lat="45.956587884575129" lon="9.51586838811636">
        <ele>2020.3499999999999</ele>
        <time>2014-09-28T09:30:28Z</time>
      </trkpt>
      <trkpt lat="45.956594254821539" lon="9.515887247398496">
        <ele>2020.8299999999999</ele>
        <time>2014-09-28T09:30:31Z</time>
      </trkpt>
      <trkpt lat="45.956643875688314" lon="9.515970647335053">
        <ele>2024.1900000000001</ele>
        <time>2014-09-28T09:30:48Z</time>
      </trkpt>
      <trkpt lat="45.956698441877961" lon="9.516022279858589">
        <ele>2027.0799999999999</ele>
        <time>2014-09-28T09:31:03Z</time>
      </trkpt>
      <trkpt lat="45.956677990034223" lon="9.516092771664262">
        <ele>2029</ele>
        <time>2014-09-28T09:31:18Z</time>
      </trkpt>
      <trkpt lat="45.956622334197164" lon="9.516106015071273">
        <ele>2029.96</ele>
        <time>2014-09-28T09:31:36Z</time>
      </trkpt>
      <trkpt lat="45.956631135195494" lon="9.516172986477613">
        <ele>2032.8399999999999</ele>
        <time>2014-09-28T09:31:48Z</time>
      </trkpt>
      <trkpt lat="45.956584280356765" lon="9.516271976754069">
        <ele>2034.77</ele>
        <time>2014-09-28T09:32:01Z</time>
      </trkpt>
      <trkpt lat="45.956544885411859" lon="9.516368117183447">
        <ele>2036.21</ele>
        <time>2014-09-28T09:32:14Z</time>
      </trkpt>
      <trkpt lat="45.956517560407519" lon="9.516413128003478">
        <ele>2035.73</ele>
        <time>2014-09-28T09:32:27Z</time>
      </trkpt>
      <trkpt lat="45.956450924277306" lon="9.51644254848361">
        <ele>2038.1300000000001</ele>
        <time>2014-09-28T09:32:39Z</time>
      </trkpt>
      <trkpt lat="45.956437094137073" lon="9.516450427472591">
        <ele>2037.6500000000001</ele>
        <time>2014-09-28T09:32:41Z</time>
      </trkpt>
      <trkpt lat="45.956329135224223" lon="9.516551177948713">
        <ele>2037.6500000000001</ele>
        <time>2014-09-28T09:32:54Z</time>
      </trkpt>
      <trkpt lat="45.95622050575912" lon="9.516688892617822">
        <ele>2038.1300000000001</ele>
        <time>2014-09-28T09:33:08Z</time>
      </trkpt>
      <trkpt lat="45.956147331744432" lon="9.516795678064227">
        <ele>2041.02</ele>
        <time>2014-09-28T09:33:22Z</time>
      </trkpt>
      <trkpt lat="45.95605680719018" lon="9.5168920699507">
        <ele>2042.9400000000001</ele>
        <time>2014-09-28T09:33:38Z</time>
      </trkpt>
      <trkpt lat="45.956047251820564" lon="9.516918556764722">
        <ele>2044.8599999999999</ele>
        <time>2014-09-28T09:33:52Z</time>
      </trkpt>
      <trkpt lat="45.956046832725406" lon="9.516999525949359">
        <ele>2048.23</ele>
        <time>2014-09-28T09:34:04Z</time>
      </trkpt>
      <trkpt lat="45.956029314547777" lon="9.516915371641517">
        <ele>2048.71</ele>
        <time>2014-09-28T09:34:18Z</time>
      </trkpt>
      <trkpt lat="45.956042222678661" lon="9.516925429925323">
        <ele>2049.1900000000001</ele>
        <time>2014-09-28T09:34:38Z</time>
      </trkpt>
      <trkpt lat="45.956006096675992" lon="9.516977230086923">
        <ele>2048.23</ele>
        <time>2014-09-28T09:35:02Z</time>
      </trkpt>
      <trkpt lat="45.956035181879997" lon="9.517028108239174">
        <ele>2048.23</ele>
        <time>2014-09-28T09:35:33Z</time>
      </trkpt>
      <trkpt lat="45.956053202971816" lon="9.517048560082912">
        <ele>2048.23</ele>
        <time>2014-09-28T09:36:09Z</time>
      </trkpt>
      <trkpt lat="45.956052364781499" lon="9.517007069662213">
        <ele>2048.23</ele>
        <time>2014-09-28T09:36:47Z</time>
      </trkpt>
      <trkpt lat="45.956027135252953" lon="9.51700497418642">
        <ele>2048.23</ele>
        <time>2014-09-28T09:37:14Z</time>
      </trkpt>
      <trkpt lat="45.956038199365139" lon="9.517027605324984">
        <ele>2049.1900000000001</ele>
        <time>2014-09-28T09:37:45Z</time>
      </trkpt>
      <trkpt lat="45.956087820231915" lon="9.517047302797437">
        <ele>2047.75</ele>
        <time>2014-09-28T09:38:18Z</time>
      </trkpt>
      <trkpt lat="45.956100979819894" lon="9.517043950036168">
        <ele>2048.23</ele>
        <time>2014-09-28T09:38:49Z</time>
      </trkpt>
      <trkpt lat="45.956070218235254" lon="9.516977313905954">
        <ele>2047.75</ele>
        <time>2014-09-28T09:39:21Z</time>
      </trkpt>
      <trkpt lat="45.956053538247943" lon="9.516993742436171">
        <ele>2047.75</ele>
        <time>2014-09-28T09:39:53Z</time>
      </trkpt>
      <trkpt lat="45.956077007576823" lon="9.517010087147355">
        <ele>2047.26</ele>
        <time>2014-09-28T09:40:29Z</time>
      </trkpt>
      <trkpt lat="45.956067452207208" lon="9.517036490142345">
        <ele>2047.26</ele>
        <time>2014-09-28T09:40:55Z</time>
      </trkpt>
      <trkpt lat="45.95605680719018" lon="9.517027353867889">
        <ele>2047.26</ele>
        <time>2014-09-28T09:41:32Z</time>
      </trkpt>
      <trkpt lat="45.956070050597191" lon="9.517012098804116">
        <ele>2048.71</ele>
        <time>2014-09-28T09:41:47Z</time>
      </trkpt>
      <trkpt lat="45.956061584874988" lon="9.517037076875567">
        <ele>2046.78</ele>
        <time>2014-09-28T09:42:05Z</time>
      </trkpt>
      <trkpt lat="45.956038450822234" lon="9.517044620588422">
        <ele>2047.75</ele>
        <time>2014-09-28T09:42:19Z</time>
      </trkpt>
      <trkpt lat="45.95611497759819" lon="9.517008075490594">
        <ele>2047.26</ele>
        <time>2014-09-28T09:42:38Z</time>
      </trkpt>
      <trkpt lat="45.956121347844601" lon="9.517043028026819">
        <ele>2047.26</ele>
        <time>2014-09-28T09:43:10Z</time>
      </trkpt>
      <trkpt lat="45.956114139407873" lon="9.517067251726985">
        <ele>2047.26</ele>
        <time>2014-09-28T09:43:41Z</time>
      </trkpt>
      <trkpt lat="45.956081533804536" lon="9.51708510518074">
        <ele>2047.26</ele>
        <time>2014-09-28T09:44:11Z</time>
      </trkpt>
      <trkpt lat="45.95608807168901" lon="9.517052164301276">
        <ele>2047.26</ele>
        <time>2014-09-28T09:44:50Z</time>
      </trkpt>
      <trkpt lat="45.956115312874317" lon="9.517072197049856">
        <ele>2047.26</ele>
        <time>2014-09-28T09:45:21Z</time>
      </trkpt>
      <trkpt lat="45.956080527976155" lon="9.517025426030159">
        <ele>2047.26</ele>
        <time>2014-09-28T09:45:53Z</time>
      </trkpt>
      <trkpt lat="45.956056220456958" lon="9.517026012763381">
        <ele>2047.26</ele>
        <time>2014-09-28T09:46:29Z</time>
      </trkpt>
      <trkpt lat="45.956090083345771" lon="9.517056187614799">
        <ele>2047.26</ele>
        <time>2014-09-28T09:47:07Z</time>
      </trkpt>
      <trkpt lat="45.956093184649944" lon="9.517047386616468">
        <ele>2047.26</ele>
        <time>2014-09-28T09:47:33Z</time>
      </trkpt>
      <trkpt lat="45.956095783039927" lon="9.517089882865548">
        <ele>2045.8199999999999</ele>
        <time>2014-09-28T09:47:45Z</time>
      </trkpt>
      <trkpt lat="45.956098800525069" lon="9.517088457942009">
        <ele>2049.1900000000001</ele>
        <time>2014-09-28T09:47:46Z</time>
      </trkpt>
      <trkpt lat="45.956101147457957" lon="9.517086781561375">
        <ele>2047.75</ele>
        <time>2014-09-28T09:47:47Z</time>
      </trkpt>
      <trkpt lat="45.956116653978825" lon="9.517066748812795">
        <ele>2047.26</ele>
        <time>2014-09-28T09:48:22Z</time>
      </trkpt>
      <trkpt lat="45.956121264025569" lon="9.51702400110662">
        <ele>2047.75</ele>
        <time>2014-09-28T09:48:57Z</time>
      </trkpt>
      <trkpt lat="45.956131322309375" lon="9.516985025256872">
        <ele>2047.26</ele>
        <time>2014-09-28T09:49:24Z</time>
      </trkpt>
      <trkpt lat="45.95610617659986" lon="9.516968261450529">
        <ele>2048.71</ele>
        <time>2014-09-28T09:49:51Z</time>
      </trkpt>
      <trkpt lat="45.956133920699358" lon="9.516955437138677">
        <ele>2047.26</ele>
        <time>2014-09-28T09:50:23Z</time>
      </trkpt>
      <trkpt lat="45.956114726141095" lon="9.517011679708958">
        <ele>2047.26</ele>
        <time>2014-09-28T09:50:55Z</time>
      </trkpt>
      <trkpt lat="45.956132160499692" lon="9.516964489594102">
        <ele>2047.26</ele>
        <time>2014-09-28T09:51:28Z</time>
      </trkpt>
      <trkpt lat="45.956151522696018" lon="9.516934482380748">
        <ele>2048.71</ele>
        <time>2014-09-28T09:51:52Z</time>
      </trkpt>
      <trkpt lat="45.95612620934844" lon="9.516954179853201">
        <ele>2047.26</ele>
        <time>2014-09-28T09:52:30Z</time>
      </trkpt>
      <trkpt lat="45.956112295389175" lon="9.516947725787759">
        <ele>2047.75</ele>
        <time>2014-09-28T09:52:55Z</time>
      </trkpt>
      <trkpt lat="45.956113301217556" lon="9.516924927011132">
        <ele>2047.26</ele>
        <time>2014-09-28T09:53:26Z</time>
      </trkpt>
      <trkpt lat="45.956110032275319" lon="9.516896177083254">
        <ele>2047.75</ele>
        <time>2014-09-28T09:53:56Z</time>
      </trkpt>
      <trkpt lat="45.956140961498022" lon="9.516943702474237">
        <ele>2048.71</ele>
        <time>2014-09-28T09:54:15Z</time>
      </trkpt>
      <trkpt lat="45.9561403747648" lon="9.516969015821815">
        <ele>2048.71</ele>
        <time>2014-09-28T09:54:36Z</time>
      </trkpt>
      <trkpt lat="45.95610617659986" lon="9.517001621425152">
        <ele>2048.71</ele>
        <time>2014-09-28T09:54:58Z</time>
      </trkpt>
      <trkpt lat="45.956101063638926" lon="9.517013523727655">
        <ele>2048.71</ele>
        <time>2014-09-28T09:55:21Z</time>
      </trkpt>
      <trkpt lat="45.956117240712047" lon="9.517040261998773">
        <ele>2050.1500000000001</ele>
        <time>2014-09-28T09:55:41Z</time>
      </trkpt>
      <trkpt lat="45.956119671463966" lon="9.517031461000443">
        <ele>2049.6700000000001</ele>
        <time>2014-09-28T09:55:43Z</time>
      </trkpt>
      <trkpt lat="45.956139955669641" lon="9.517078399658203">
        <ele>2050.1500000000001</ele>
        <time>2014-09-28T09:55:58Z</time>
      </trkpt>
      <trkpt lat="45.956076588481665" lon="9.517119219526649">
        <ele>2050.6300000000001</ele>
        <time>2014-09-28T09:56:28Z</time>
      </trkpt>
      <trkpt lat="45.956070553511381" lon="9.517126679420471">
        <ele>2050.6300000000001</ele>
        <time>2014-09-28T09:56:46Z</time>
      </trkpt>
      <trkpt lat="45.956052448600531" lon="9.517150316387415">
        <ele>2052.0700000000002</ele>
        <time>2014-09-28T09:57:06Z</time>
      </trkpt>
      <trkpt lat="45.956052280962467" lon="9.517206558957696">
        <ele>2052.0700000000002</ele>
        <time>2014-09-28T09:57:29Z</time>
      </trkpt>
      <trkpt lat="45.956036942079663" lon="9.517210330814123">
        <ele>2052.0700000000002</ele>
        <time>2014-09-28T09:57:52Z</time>
      </trkpt>
      <trkpt lat="45.956039540469646" lon="9.51721259392798">
        <ele>2053.5100000000002</ele>
        <time>2014-09-28T09:57:55Z</time>
      </trkpt>
      <trkpt lat="45.956046916544437" lon="9.517224077135325">
        <ele>2052.0700000000002</ele>
        <time>2014-09-28T09:58:21Z</time>
      </trkpt>
      <trkpt lat="45.956042809411883" lon="9.517290210351348">
        <ele>2052.0700000000002</ele>
        <time>2014-09-28T09:58:45Z</time>
      </trkpt>
      <trkpt lat="45.956047084182501" lon="9.517242768779397">
        <ele>2052.0700000000002</ele>
        <time>2014-09-28T09:59:10Z</time>
      </trkpt>
      <trkpt lat="45.956035600975156" lon="9.517221059650183">
        <ele>2052.0700000000002</ele>
        <time>2014-09-28T09:59:33Z</time>
      </trkpt>
      <trkpt lat="45.956022357568145" lon="9.517243187874556">
        <ele>2053.5100000000002</ele>
        <time>2014-09-28T09:59:49Z</time>
      </trkpt>
      <trkpt lat="45.956036439165473" lon="9.517266489565373">
        <ele>2055.9200000000001</ele>
        <time>2014-09-28T09:59:56Z</time>
      </trkpt>
      <trkpt lat="45.956063764169812" lon="9.51728006824851">
        <ele>2054.96</ele>
        <time>2014-09-28T10:00:12Z</time>
      </trkpt>
      <trkpt lat="45.956092849373817" lon="9.517271434888244">
        <ele>2054.4699999999998</ele>
        <time>2014-09-28T10:00:37Z</time>
      </trkpt>
      <trkpt lat="45.956110954284668" lon="9.517300268635154">
        <ele>2055.4400000000001</ele>
        <time>2014-09-28T10:00:55Z</time>
      </trkpt>
      <trkpt lat="45.956095447763801" lon="9.517281241714954">
        <ele>2056.4000000000001</ele>
        <time>2014-09-28T10:01:10Z</time>
      </trkpt>
      <trkpt lat="45.956103913486004" lon="9.517289539799094">
        <ele>2057.8400000000001</ele>
        <time>2014-09-28T10:01:29Z</time>
      </trkpt>
      <trkpt lat="45.956110199913383" lon="9.517356092110276">
        <ele>2060.2399999999998</ele>
        <time>2014-09-28T10:01:45Z</time>
      </trkpt>
      <trkpt lat="45.956139955669641" lon="9.517364138737321">
        <ele>2059.2800000000002</ele>
        <time>2014-09-28T10:02:08Z</time>
      </trkpt>
      <trkpt lat="45.956253279000521" lon="9.517237991094589">
        <ele>2059.7600000000002</ele>
        <time>2014-09-28T10:02:30Z</time>
      </trkpt>
      <trkpt lat="45.956240370869637" lon="9.517314936965704">
        <ele>2063.1300000000001</ele>
        <time>2014-09-28T10:02:44Z</time>
      </trkpt>
      <trkpt lat="45.95626107417047" lon="9.517358774319291">
        <ele>2066.4899999999998</ele>
        <time>2014-09-28T10:02:58Z</time>
      </trkpt>
      <trkpt lat="45.956257050856948" lon="9.517481904476881">
        <ele>2067.4499999999998</ele>
        <time>2014-09-28T10:03:16Z</time>
      </trkpt>
      <trkpt lat="45.956293679773808" lon="9.517420548945665">
        <ele>2067.9299999999998</ele>
        <time>2014-09-28T10:03:33Z</time>
      </trkpt>
      <trkpt lat="45.95630700699985" lon="9.51744569465518">
        <ele>2069.3800000000001</ele>
        <time>2014-09-28T10:03:54Z</time>
      </trkpt>
      <trkpt lat="45.956297870725393" lon="9.517442006617785">
        <ele>2070.3400000000001</ele>
        <time>2014-09-28T10:04:16Z</time>
      </trkpt>
      <trkpt lat="45.95630893483758" lon="9.517491376027465">
        <ele>2071.3000000000002</ele>
        <time>2014-09-28T10:04:45Z</time>
      </trkpt>
      <trkpt lat="45.956318322569132" lon="9.517501182854176">
        <ele>2071.7800000000002</ele>
        <time>2014-09-28T10:05:11Z</time>
      </trkpt>
      <trkpt lat="45.956373559311032" lon="9.517495147883892">
        <ele>2072.2600000000002</ele>
        <time>2014-09-28T10:05:34Z</time>
      </trkpt>
      <trkpt lat="45.956296194344759" lon="9.517601849511266">
        <ele>2072.7399999999998</ele>
        <time>2014-09-28T10:05:55Z</time>
      </trkpt>
      <trkpt lat="45.956279933452606" lon="9.51761819422245">
        <ele>2074.1799999999998</ele>
        <time>2014-09-28T10:05:59Z</time>
      </trkpt>
      <trkpt lat="45.956301810219884" lon="9.517540326341987">
        <ele>2072.7399999999998</ele>
        <time>2014-09-28T10:06:24Z</time>
      </trkpt>
      <trkpt lat="45.956325279548764" lon="9.51751995831728">
        <ele>2073.6999999999998</ele>
        <time>2014-09-28T10:06:47Z</time>
      </trkpt>
      <trkpt lat="45.956349922344089" lon="9.517479138448834">
        <ele>2073.6999999999998</ele>
        <time>2014-09-28T10:07:13Z</time>
      </trkpt>
      <trkpt lat="45.956428712233901" lon="9.517440665513277">
        <ele>2075.1399999999999</ele>
        <time>2014-09-28T10:07:39Z</time>
      </trkpt>
      <trkpt lat="45.956433238461614" lon="9.51752339489758">
        <ele>2076.5900000000001</ele>
        <time>2014-09-28T10:07:59Z</time>
      </trkpt>
      <trkpt lat="45.95645260065794" lon="9.517546193674207">
        <ele>2077.0700000000002</ele>
        <time>2014-09-28T10:08:24Z</time>
      </trkpt>
      <trkpt lat="45.956454612314701" lon="9.517500679939985">
        <ele>2078.9899999999998</ele>
        <time>2014-09-28T10:08:48Z</time>
      </trkpt>
      <trkpt lat="45.956516051664948" lon="9.517456842586398">
        <ele>2079.4699999999998</ele>
        <time>2014-09-28T10:09:15Z</time>
      </trkpt>
      <trkpt lat="45.956589058041573" lon="9.517402863129973">
        <ele>2080.9099999999999</ele>
        <time>2014-09-28T10:09:31Z</time>
      </trkpt>
      <trkpt lat="45.956629458814859" lon="9.517451813444495">
        <ele>2083.79</ele>
        <time>2014-09-28T10:09:41Z</time>
      </trkpt>
      <trkpt lat="45.956662148237228" lon="9.517473774030805">
        <ele>2086.1999999999998</ele>
        <time>2014-09-28T10:09:58Z</time>
      </trkpt>
      <trkpt lat="45.956653514876962" lon="9.517501099035144">
        <ele>2085.7199999999998</ele>
        <time>2014-09-28T10:10:26Z</time>
      </trkpt>
      <trkpt lat="45.956612443551421" lon="9.517588606104255">
        <ele>2086.1999999999998</ele>
        <time>2014-09-28T10:10:52Z</time>
      </trkpt>
      <trkpt lat="45.956623172387481" lon="9.517562286928296">
        <ele>2085.7199999999998</ele>
        <time>2014-09-28T10:11:12Z</time>
      </trkpt>
      <trkpt lat="45.956636583432555" lon="9.517533369362354">
        <ele>2085.7199999999998</ele>
        <time>2014-09-28T10:11:38Z</time>
      </trkpt>
      <trkpt lat="45.956656783819199" lon="9.517535548657179">
        <ele>2088.1199999999999</ele>
        <time>2014-09-28T10:12:01Z</time>
      </trkpt>
      <trkpt lat="45.956656029447913" lon="9.517534039914608">
        <ele>2087.1599999999999</ele>
        <time>2014-09-28T10:12:31Z</time>
      </trkpt>
      <trkpt lat="45.95669005997479" lon="9.517548121511936">
        <ele>2088.5999999999999</ele>
        <time>2014-09-28T10:12:57Z</time>
      </trkpt>
      <trkpt lat="45.956747978925705" lon="9.517540745437145">
        <ele>2090.52</ele>
        <time>2014-09-28T10:13:14Z</time>
      </trkpt>
      <trkpt lat="45.956773376092315" lon="9.517541248351336">
        <ele>2092.9299999999998</ele>
        <time>2014-09-28T10:13:35Z</time>
      </trkpt>
      <trkpt lat="45.956784104928374" lon="9.517636634409428">
        <ele>2093.8899999999999</ele>
        <time>2014-09-28T10:13:54Z</time>
      </trkpt>
      <trkpt lat="45.956729957833886" lon="9.517670245841146">
        <ele>2093.8899999999999</ele>
        <time>2014-09-28T10:14:21Z</time>
      </trkpt>
      <trkpt lat="45.956798689439893" lon="9.517632024362683">
        <ele>2094.8499999999999</ele>
        <time>2014-09-28T10:14:52Z</time>
      </trkpt>
      <trkpt lat="45.956863146275282" lon="9.517684997990727">
        <ele>2096.77</ele>
        <time>2014-09-28T10:15:14Z</time>
      </trkpt>
      <trkpt lat="45.956861218437552" lon="9.51766655780375">
        <ele>2099.1799999999998</ele>
        <time>2014-09-28T10:15:35Z</time>
      </trkpt>
      <trkpt lat="45.95687915571034" lon="9.517689691856504">
        <ele>2100.6199999999999</ele>
        <time>2014-09-28T10:15:51Z</time>
      </trkpt>
      <trkpt lat="45.956907402724028" lon="9.517713161185384">
        <ele>2102.54</ele>
        <time>2014-09-28T10:16:11Z</time>
      </trkpt>
      <trkpt lat="45.956904804334044" lon="9.517779797315598">
        <ele>2103.5</ele>
        <time>2014-09-28T10:16:32Z</time>
      </trkpt>
      <trkpt lat="45.956963561475277" lon="9.517804607748985">
        <ele>2104.46</ele>
        <time>2014-09-28T10:16:54Z</time>
      </trkpt>
      <trkpt lat="45.956945288926363" lon="9.517762782052159">
        <ele>2104.9400000000001</ele>
        <time>2014-09-28T10:17:20Z</time>
      </trkpt>
      <trkpt lat="45.956966327503324" lon="9.517714334651828">
        <ele>2104.9400000000001</ele>
        <time>2014-09-28T10:17:41Z</time>
      </trkpt>
      <trkpt lat="45.956946294754744" lon="9.517684411257505">
        <ele>2104.9400000000001</ele>
        <time>2014-09-28T10:18:02Z</time>
      </trkpt>
      <trkpt lat="45.956977307796478" lon="9.518084647133946">
        <ele>2105.4200000000001</ele>
        <time>2014-09-28T10:18:29Z</time>
      </trkpt>
      <trkpt lat="45.956988791003823" lon="9.517929246649146">
        <ele>2106.3899999999999</ele>
        <time>2014-09-28T10:18:54Z</time>
      </trkpt>
      <trkpt lat="45.956823080778122" lon="9.517330024391413">
        <ele>2109.27</ele>
        <time>2014-09-28T10:19:17Z</time>
      </trkpt>
      <trkpt lat="45.956746302545071" lon="9.517232123762369">
        <ele>2109.27</ele>
        <time>2014-09-28T10:19:34Z</time>
      </trkpt>
      <trkpt lat="45.956710930913687" lon="9.517230782657862">
        <ele>2108.79</ele>
        <time>2014-09-28T10:19:59Z</time>
      </trkpt>
      <trkpt lat="45.956707829609513" lon="9.517212845385075">
        <ele>2109.27</ele>
        <time>2014-09-28T10:20:27Z</time>
      </trkpt>
      <trkpt lat="45.956715876236558" lon="9.517204714938998">
        <ele>2108.79</ele>
        <time>2014-09-28T10:20:57Z</time>
      </trkpt>
      <trkpt lat="45.956718390807509" lon="9.517235727980733">
        <ele>2108.79</ele>
        <time>2014-09-28T10:21:22Z</time>
      </trkpt>
      <trkpt lat="45.956714367493987" lon="9.517229441553354">
        <ele>2109.27</ele>
        <time>2014-09-28T10:21:42Z</time>
      </trkpt>
      <trkpt lat="45.956710763275623" lon="9.517222652211785">
        <ele>2108.79</ele>
        <time>2014-09-28T10:21:57Z</time>
      </trkpt>
      <trkpt lat="45.956711182370782" lon="9.517183676362038">
        <ele>2109.27</ele>
        <time>2014-09-28T10:22:16Z</time>
      </trkpt>
      <trkpt lat="45.956701543182135" lon="9.51719406992197">
        <ele>2109.75</ele>
        <time>2014-09-28T10:22:33Z</time>
      </trkpt>
      <trkpt lat="45.956674637272954" lon="9.517224244773388">
        <ele>2108.79</ele>
        <time>2014-09-28T10:22:52Z</time>
      </trkpt>
      <trkpt lat="45.956613533198833" lon="9.517269758507609">
        <ele>2108.79</ele>
        <time>2014-09-28T10:23:21Z</time>
      </trkpt>
      <trkpt lat="45.956596350297332" lon="9.517274284735322">
        <ele>2109.27</ele>
        <time>2014-09-28T10:23:54Z</time>
      </trkpt>
      <trkpt lat="45.956608420237899" lon="9.517266573384404">
        <ele>2109.27</ele>
        <time>2014-09-28T10:24:32Z</time>
      </trkpt>
      <trkpt lat="45.956650413572788" lon="9.517201697453857">
        <ele>2109.75</ele>
        <time>2014-09-28T10:25:07Z</time>
      </trkpt>
      <trkpt lat="45.956616466864944" lon="9.517280235886574">
        <ele>2109.75</ele>
        <time>2014-09-28T10:25:42Z</time>
      </trkpt>
      <trkpt lat="45.95664706081152" lon="9.517237320542336">
        <ele>2109.75</ele>
        <time>2014-09-28T10:26:27Z</time>
      </trkpt>
      <trkpt lat="45.956668937578797" lon="9.517215779051185">
        <ele>2110.23</ele>
        <time>2014-09-28T10:27:00Z</time>
      </trkpt>
      <trkpt lat="45.956656700000167" lon="9.517246205359697">
        <ele>2110.23</ele>
        <time>2014-09-28T10:27:34Z</time>
      </trkpt>
      <trkpt lat="45.956691652536392" lon="9.517186693847179">
        <ele>2110.71</ele>
        <time>2014-09-28T10:28:06Z</time>
      </trkpt>
      <trkpt lat="45.956711433827877" lon="9.517243439331651">
        <ele>2110.71</ele>
        <time>2014-09-28T10:28:23Z</time>
      </trkpt>
      <trkpt lat="45.956742614507675" lon="9.517220472916961">
        <ele>2110.23</ele>
        <time>2014-09-28T10:28:45Z</time>
      </trkpt>
      <trkpt lat="45.956730963662267" lon="9.51725659891963">
        <ele>2109.27</ele>
        <time>2014-09-28T10:29:06Z</time>
      </trkpt>
      <trkpt lat="45.956665752455592" lon="9.51724830083549">
        <ele>2109.27</ele>
        <time>2014-09-28T10:29:33Z</time>
      </trkpt>
      <trkpt lat="45.956611437723041" lon="9.517252072691917">
        <ele>2110.23</ele>
        <time>2014-09-28T10:29:57Z</time>
      </trkpt>
      <trkpt lat="45.956583358347416" lon="9.517315439879894">
        <ele>2110.71</ele>
        <time>2014-09-28T10:30:28Z</time>
      </trkpt>
      <trkpt lat="45.956574724987149" lon="9.517320888116956">
        <ele>2110.71</ele>
        <time>2014-09-28T10:30:59Z</time>
      </trkpt>
      <trkpt lat="45.956549914553761" lon="9.517333880066872">
        <ele>2112.1500000000001</ele>
        <time>2014-09-28T10:31:30Z</time>
      </trkpt>
      <trkpt lat="45.956528875976801" lon="9.517411664128304">
        <ele>2111.6700000000001</ele>
        <time>2014-09-28T10:32:01Z</time>
      </trkpt>
      <trkpt lat="45.956597104668617" lon="9.517382411286235">
        <ele>2113.1199999999999</ele>
        <time>2014-09-28T10:32:24Z</time>
      </trkpt>
      <trkpt lat="45.956589728593826" lon="9.517336310818791">
        <ele>2113.1199999999999</ele>
        <time>2014-09-28T10:32:49Z</time>
      </trkpt>
      <trkpt lat="45.956493923440576" lon="9.517370676621795">
        <ele>2114.5599999999999</ele>
        <time>2014-09-28T10:33:16Z</time>
      </trkpt>
      <trkpt lat="45.956479925662279" lon="9.517201194539666">
        <ele>2116.96</ele>
        <time>2014-09-28T10:36:59Z</time>
      </trkpt>
      <trkpt lat="45.956557961180806" lon="9.517326503992081">
        <ele>2116.96</ele>
        <time>2014-09-28T10:37:35Z</time>
      </trkpt>
      <trkpt lat="45.956519488245249" lon="9.517299178987742">
        <ele>2117.4400000000001</ele>
        <time>2014-09-28T10:37:59Z</time>
      </trkpt>
      <trkpt lat="45.956652425229549" lon="9.517369335517287">
        <ele>2117.9200000000001</ele>
        <time>2014-09-28T10:38:21Z</time>
      </trkpt>
      <trkpt lat="45.956636080518365" lon="9.517303369939327">
        <ele>2118.4000000000001</ele>
        <time>2014-09-28T10:38:50Z</time>
      </trkpt>
      <trkpt lat="45.956415636464953" lon="9.51720823533833">
        <ele>2119.3600000000001</ele>
        <time>2014-09-28T10:39:15Z</time>
      </trkpt>
      <trkpt lat="45.95636953599751" lon="9.517200691625476">
        <ele>2120.8099999999999</ele>
        <time>2014-09-28T10:39:38Z</time>
      </trkpt>
      <trkpt lat="45.956409936770797" lon="9.517318792641163">
        <ele>2121.77</ele>
        <time>2014-09-28T10:40:04Z</time>
      </trkpt>
      <trkpt lat="45.956399459391832" lon="9.51731619425118">
        <ele>2122.73</ele>
        <time>2014-09-28T10:40:15Z</time>
      </trkpt>
      <trkpt lat="45.956472298130393" lon="9.517302699387074">
        <ele>2122.73</ele>
        <time>2014-09-28T10:40:50Z</time>
      </trkpt>
      <trkpt lat="45.956424521282315" lon="9.517283588647842">
        <ele>2123.21</ele>
        <time>2014-09-28T10:41:18Z</time>
      </trkpt>
      <trkpt lat="45.956428628414869" lon="9.517302364110947">
        <ele>2124.1700000000001</ele>
        <time>2014-09-28T10:41:39Z</time>
      </trkpt>
      <trkpt lat="45.95652493648231" lon="9.517389954999089">
        <ele>2124.1700000000001</ele>
        <time>2014-09-28T10:42:03Z</time>
      </trkpt>
      <trkpt lat="45.956539269536734" lon="9.51739045791328">
        <ele>2124.1700000000001</ele>
        <time>2014-09-28T10:42:26Z</time>
      </trkpt>
      <trkpt lat="45.956538515165448" lon="9.51741736382246">
        <ele>2123.6900000000001</ele>
        <time>2014-09-28T10:42:54Z</time>
      </trkpt>
      <trkpt lat="45.956578329205513" lon="9.51745055615902">
        <ele>2122.73</ele>
        <time>2014-09-28T10:43:13Z</time>
      </trkpt>
      <trkpt lat="45.95658109523356" lon="9.51746036298573">
        <ele>2122.25</ele>
        <time>2014-09-28T10:43:44Z</time>
      </trkpt>
      <trkpt lat="45.956595931202173" lon="9.517423314973712">
        <ele>2124.1700000000001</ele>
        <time>2014-09-28T10:44:13Z</time>
      </trkpt>
      <trkpt lat="45.956597942858934" lon="9.517388781532645">
        <ele>2124.1700000000001</ele>
        <time>2014-09-28T10:44:30Z</time>
      </trkpt>
      <trkpt lat="45.956575311720371" lon="9.517455501481891">
        <ele>2122.73</ele>
        <time>2014-09-28T10:44:49Z</time>
      </trkpt>
      <trkpt lat="45.95660506747663" lon="9.517429601401091">
        <ele>2124.6500000000001</ele>
        <time>2014-09-28T10:45:13Z</time>
      </trkpt>
      <trkpt lat="45.956621747463942" lon="9.517478132620454">
        <ele>2125.1300000000001</ele>
        <time>2014-09-28T10:45:43Z</time>
      </trkpt>
      <trkpt lat="45.95659869723022" lon="9.517458351328969">
        <ele>2125.6100000000001</ele>
        <time>2014-09-28T10:46:09Z</time>
      </trkpt>
      <trkpt lat="45.956609174609184" lon="9.51744913123548">
        <ele>2126.0900000000001</ele>
        <time>2014-09-28T10:46:41Z</time>
      </trkpt>
      <trkpt lat="45.956577658653259" lon="9.517447119578719">
        <ele>2127.0500000000002</ele>
        <time>2014-09-28T10:47:01Z</time>
      </trkpt>
      <trkpt lat="45.95659819431603" lon="9.517445778474212">
        <ele>2128.5</ele>
        <time>2014-09-28T10:47:29Z</time>
      </trkpt>
      <trkpt lat="45.956513537093997" lon="9.51743052341044">
        <ele>2129.9400000000001</ele>
        <time>2014-09-28T10:47:51Z</time>
      </trkpt>
      <trkpt lat="45.956517057493329" lon="9.517409484833479">
        <ele>2131.3800000000001</ele>
        <time>2014-09-28T10:48:09Z</time>
      </trkpt>
      <trkpt lat="45.956455869600177" lon="9.517412586137652">
        <ele>2130.4200000000001</ele>
        <time>2014-09-28T10:48:27Z</time>
      </trkpt>
      <trkpt lat="45.956424688920379" lon="9.517397582530975">
        <ele>2131.3800000000001</ele>
        <time>2014-09-28T10:48:40Z</time>
      </trkpt>
      <trkpt lat="45.956413121894002" lon="9.517389619722962">
        <ele>2130.9000000000001</ele>
        <time>2014-09-28T10:49:16Z</time>
      </trkpt>
      <trkpt lat="45.956399627029896" lon="9.517390206456184">
        <ele>2128.98</ele>
        <time>2014-09-28T10:49:34Z</time>
      </trkpt>
      <trkpt lat="45.95636903308332" lon="9.517398336902261">
        <ele>2126.5700000000002</ele>
        <time>2014-09-28T10:49:55Z</time>
      </trkpt>
      <trkpt lat="45.956356460228562" lon="9.51740755699575">
        <ele>2126.5700000000002</ele>
        <time>2014-09-28T10:50:02Z</time>
      </trkpt>
      <trkpt lat="45.956278843805194" lon="9.51730152592063">
        <ele>2125.1300000000001</ele>
        <time>2014-09-28T10:50:10Z</time>
      </trkpt>
      <trkpt lat="45.956247998401523" lon="9.517287695780397">
        <ele>2126.0900000000001</ele>
        <time>2014-09-28T10:50:27Z</time>
      </trkpt>
      <trkpt lat="45.956097459420562" lon="9.517325917258859">
        <ele>2123.21</ele>
        <time>2014-09-28T10:50:43Z</time>
      </trkpt>
      <trkpt lat="45.956053622066975" lon="9.517350560054183">
        <ele>2121.77</ele>
        <time>2014-09-28T10:51:04Z</time>
      </trkpt>
      <trkpt lat="45.956026129424572" lon="9.517321642488241">
        <ele>2119.3600000000001</ele>
        <time>2014-09-28T10:51:20Z</time>
      </trkpt>
      <trkpt lat="45.956008192151785" lon="9.517318708822131">
        <ele>2118.4000000000001</ele>
        <time>2014-09-28T10:51:47Z</time>
      </trkpt>
      <trkpt lat="45.956003498286009" lon="9.517322396859527">
        <ele>2118.4000000000001</ele>
        <time>2014-09-28T10:52:20Z</time>
      </trkpt>
      <trkpt lat="45.956061920151114" lon="9.517358019948006">
        <ele>2121.29</ele>
        <time>2014-09-28T10:52:37Z</time>
      </trkpt>
      <trkpt lat="45.956098129972816" lon="9.517383249476552">
        <ele>2123.21</ele>
        <time>2014-09-28T10:52:56Z</time>
      </trkpt>
      <trkpt lat="45.956104081124067" lon="9.5173445250839">
        <ele>2122.73</ele>
        <time>2014-09-28T10:53:30Z</time>
      </trkpt>
      <trkpt lat="45.956023531034589" lon="9.517305381596088">
        <ele>2119.3600000000001</ele>
        <time>2014-09-28T10:53:44Z</time>
      </trkpt>
      <trkpt lat="45.955990171059966" lon="9.517348296940327">
        <ele>2119.3600000000001</ele>
        <time>2014-09-28T10:54:01Z</time>
      </trkpt>
      <trkpt lat="45.955991512164474" lon="9.517376376315951">
        <ele>2119.3600000000001</ele>
        <time>2014-09-28T10:54:25Z</time>
      </trkpt>
      <trkpt lat="45.95597181469202" lon="9.517406886443496">
        <ele>2119.3600000000001</ele>
        <time>2014-09-28T10:54:40Z</time>
      </trkpt>
      <trkpt lat="45.95591020770371" lon="9.517427170649171">
        <ele>2118.8800000000001</ele>
        <time>2014-09-28T10:54:54Z</time>
      </trkpt>
      <trkpt lat="45.955921607092023" lon="9.517408898100257">
        <ele>2119.3600000000001</ele>
        <time>2014-09-28T10:55:23Z</time>
      </trkpt>
      <trkpt lat="45.955923367291689" lon="9.517414346337318">
        <ele>2117.9200000000001</ele>
        <time>2014-09-28T10:55:54Z</time>
      </trkpt>
      <trkpt lat="45.955875925719738" lon="9.517463212832809">
        <ele>2116</ele>
        <time>2014-09-28T10:56:10Z</time>
      </trkpt>
      <trkpt lat="45.95587651245296" lon="9.517451142892242">
        <ele>2113.1199999999999</ele>
        <time>2014-09-28T10:56:29Z</time>
      </trkpt>
      <trkpt lat="45.955865615978837" lon="9.517453238368034">
        <ele>2116.48</ele>
        <time>2014-09-28T10:56:45Z</time>
      </trkpt>
      <trkpt lat="45.955851953476667" lon="9.517501769587398">
        <ele>2117.4400000000001</ele>
        <time>2014-09-28T10:57:09Z</time>
      </trkpt>
      <trkpt lat="45.955888833850622" lon="9.517421890050173">
        <ele>2118.4000000000001</ele>
        <time>2014-09-28T10:57:32Z</time>
      </trkpt>
      <trkpt lat="45.955795794725418" lon="9.517390793189406">
        <ele>2121.29</ele>
        <time>2014-09-28T10:57:57Z</time>
      </trkpt>
      <trkpt lat="45.955803338438272" lon="9.517397666350007">
        <ele>2122.73</ele>
        <time>2014-09-28T10:58:17Z</time>
      </trkpt>
      <trkpt lat="45.955798393115401" lon="9.517372520640492">
        <ele>2122.25</ele>
        <time>2014-09-28T10:58:43Z</time>
      </trkpt>
      <trkpt lat="45.955707198008895" lon="9.51740219257772">
        <ele>2122.73</ele>
        <time>2014-09-28T10:59:11Z</time>
      </trkpt>
      <trkpt lat="45.955719519406557" lon="9.517414011061192">
        <ele>2123.21</ele>
        <time>2014-09-28T10:59:32Z</time>
      </trkpt>
      <trkpt lat="45.955708874389529" lon="9.517412586137652">
        <ele>2123.6900000000001</ele>
        <time>2014-09-28T10:59:58Z</time>
      </trkpt>
      <trkpt lat="45.955699319019914" lon="9.517437480390072">
        <ele>2125.1300000000001</ele>
        <time>2014-09-28T11:00:19Z</time>
      </trkpt>
      <trkpt lat="45.95571231096983" lon="9.517442593351007">
        <ele>2126.0900000000001</ele>
        <time>2014-09-28T11:00:43Z</time>
      </trkpt>
      <trkpt lat="45.9557103831321" lon="9.517466397956014">
        <ele>2126.0900000000001</ele>
        <time>2014-09-28T11:01:09Z</time>
      </trkpt>
      <trkpt lat="45.955744497478008" lon="9.517491459846497">
        <ele>2125.6100000000001</ele>
        <time>2014-09-28T11:01:30Z</time>
      </trkpt>
      <trkpt lat="45.955691523849964" lon="9.517436726018786">
        <ele>2124.6500000000001</ele>
        <time>2014-09-28T11:01:52Z</time>
      </trkpt>
      <trkpt lat="45.955677190795541" lon="9.517544601112604">
        <ele>2123.6900000000001</ele>
        <time>2014-09-28T11:02:17Z</time>
      </trkpt>
      <trkpt lat="45.955634107813239" lon="9.517539571970701">
        <ele>2122.73</ele>
        <time>2014-09-28T11:02:40Z</time>
      </trkpt>
      <trkpt lat="45.955598820000887" lon="9.517518868669868">
        <ele>2121.77</ele>
        <time>2014-09-28T11:03:05Z</time>
      </trkpt>
      <trkpt lat="45.955609967932105" lon="9.517566477879882">
        <ele>2121.29</ele>
        <time>2014-09-28T11:03:28Z</time>
      </trkpt>
      <trkpt lat="45.955578200519085" lon="9.517546026036143">
        <ele>2122.25</ele>
        <time>2014-09-28T11:03:47Z</time>
      </trkpt>
      <trkpt lat="45.955528747290373" lon="9.51751115731895">
        <ele>2123.6900000000001</ele>
        <time>2014-09-28T11:04:14Z</time>
      </trkpt>
      <trkpt lat="45.955567639321089" lon="9.517406551167369">
        <ele>2126.5700000000002</ele>
        <time>2014-09-28T11:04:30Z</time>
      </trkpt>
      <trkpt lat="45.955572333186865" lon="9.51739196665585">
        <ele>2128.98</ele>
        <time>2014-09-28T11:04:53Z</time>
      </trkpt>
      <trkpt lat="45.955530926585197" lon="9.517409987747669">
        <ele>2128.5</ele>
        <time>2014-09-28T11:05:23Z</time>
      </trkpt>
      <trkpt lat="45.955514246597886" lon="9.517403617501259">
        <ele>2128.98</ele>
        <time>2014-09-28T11:05:47Z</time>
      </trkpt>
      <trkpt lat="45.9555808827281" lon="9.517417112365365">
        <ele>2130.4200000000001</ele>
        <time>2014-09-28T11:06:10Z</time>
      </trkpt>
      <trkpt lat="45.955594377592206" lon="9.517342010512948">
        <ele>2132.8200000000002</ele>
        <time>2014-09-28T11:06:31Z</time>
      </trkpt>
      <trkpt lat="45.955599909648299" lon="9.517158782109618">
        <ele>2132.8200000000002</ele>
        <time>2014-09-28T11:06:55Z</time>
      </trkpt>
      <trkpt lat="45.955689176917076" lon="9.517122991383076">
        <ele>2133.3000000000002</ele>
        <time>2014-09-28T11:07:09Z</time>
      </trkpt>
      <trkpt lat="45.955773247405887" lon="9.51723120175302">
        <ele>2132.8200000000002</ele>
        <time>2014-09-28T11:07:30Z</time>
      </trkpt>
      <trkpt lat="45.955681884661317" lon="9.517316780984402">
        <ele>2134.7399999999998</ele>
        <time>2014-09-28T11:07:48Z</time>
      </trkpt>
      <trkpt lat="45.955523550510406" lon="9.517320636659861">
        <ele>2135.71</ele>
        <time>2014-09-28T11:08:09Z</time>
      </trkpt>
      <trkpt lat="45.955494968220592" lon="9.517306052148342">
        <ele>2135.71</ele>
        <time>2014-09-28T11:08:35Z</time>
      </trkpt>
      <trkpt lat="45.955476611852646" lon="9.517292808741331">
        <ele>2135.23</ele>
        <time>2014-09-28T11:08:53Z</time>
      </trkpt>
      <trkpt lat="45.955495219677687" lon="9.517275625839829">
        <ele>2134.7399999999998</ele>
        <time>2014-09-28T11:09:16Z</time>
      </trkpt>
      <trkpt lat="45.955528412014246" lon="9.517274955287576">
        <ele>2135.23</ele>
        <time>2014-09-28T11:09:37Z</time>
      </trkpt>
      <trkpt lat="45.955513240769506" lon="9.517272356897593">
        <ele>2135.23</ele>
        <time>2014-09-28T11:10:01Z</time>
      </trkpt>
      <trkpt lat="45.955463284626603" lon="9.517257269471884">
        <ele>2134.7399999999998</ele>
        <time>2014-09-28T11:10:22Z</time>
      </trkpt>
      <trkpt lat="45.955460518598557" lon="9.517257269471884">
        <ele>2134.7399999999998</ele>
        <time>2014-09-28T11:10:57Z</time>
      </trkpt>
      <trkpt lat="45.955475438386202" lon="9.517268920317292">
        <ele>2133.7800000000002</ele>
        <time>2014-09-28T11:11:19Z</time>
      </trkpt>
      <trkpt lat="45.9554513823241" lon="9.517292222008109">
        <ele>2134.2600000000002</ele>
        <time>2014-09-28T11:11:36Z</time>
      </trkpt>
      <trkpt lat="45.955446437001228" lon="9.517277218401432">
        <ele>2134.7399999999998</ele>
        <time>2014-09-28T11:11:58Z</time>
      </trkpt>
      <trkpt lat="45.955432690680027" lon="9.517277469858527">
        <ele>2134.7399999999998</ele>
        <time>2014-09-28T11:12:27Z</time>
      </trkpt>
      <trkpt lat="45.955433025956154" lon="9.517285684123635">
        <ele>2135.23</ele>
        <time>2014-09-28T11:12:49Z</time>
      </trkpt>
      <trkpt lat="45.95543528907001" lon="9.517294820398092">
        <ele>2134.7399999999998</ele>
        <time>2014-09-28T11:13:14Z</time>
      </trkpt>
      <trkpt lat="45.955430930480361" lon="9.517285348847508">
        <ele>2135.23</ele>
        <time>2014-09-28T11:13:33Z</time>
      </trkpt>
      <trkpt lat="45.955445179715753" lon="9.51729129999876">
        <ele>2134.7399999999998</ele>
        <time>2014-09-28T11:13:54Z</time>
      </trkpt>
      <trkpt lat="45.955423470586538" lon="9.517281325533986">
        <ele>2134.7399999999998</ele>
        <time>2014-09-28T11:14:24Z</time>
      </trkpt>
      <trkpt lat="45.955416345968843" lon="9.517293144017458">
        <ele>2135.23</ele>
        <time>2014-09-28T11:14:41Z</time>
      </trkpt>
      <trkpt lat="45.955425649881363" lon="9.517301190644503">
        <ele>2135.23</ele>
        <time>2014-09-28T11:15:03Z</time>
      </trkpt>
      <trkpt lat="45.955418273806572" lon="9.51731619425118">
        <ele>2135.23</ele>
        <time>2014-09-28T11:15:27Z</time>
      </trkpt>
      <trkpt lat="45.955422380939126" lon="9.517290126532316">
        <ele>2135.23</ele>
        <time>2014-09-28T11:15:53Z</time>
      </trkpt>
      <trkpt lat="45.955408131703734" lon="9.517279732972384">
        <ele>2135.23</ele>
        <time>2014-09-28T11:16:18Z</time>
      </trkpt>
      <trkpt lat="45.955405365675688" lon="9.517285181209445">
        <ele>2135.23</ele>
        <time>2014-09-28T11:16:47Z</time>
      </trkpt>
      <trkpt lat="45.955400252714753" lon="9.517289623618126">
        <ele>2135.23</ele>
        <time>2014-09-28T11:17:05Z</time>
      </trkpt>
      <trkpt lat="45.955404443666339" lon="9.517283588647842">
        <ele>2135.23</ele>
        <time>2014-09-28T11:17:31Z</time>
      </trkpt>
      <trkpt lat="45.955406120046973" lon="9.517278391867876">
        <ele>2135.23</ele>
        <time>2014-09-28T11:18:04Z</time>
      </trkpt>
      <trkpt lat="45.955400336533785" lon="9.517289036884904">
        <ele>2136.1900000000001</ele>
        <time>2014-09-28T11:18:28Z</time>
      </trkpt>
      <trkpt lat="45.955394636839628" lon="9.517289120703936">
        <ele>2135.23</ele>
        <time>2014-09-28T11:18:51Z</time>
      </trkpt>
      <trkpt lat="45.955386003479362" lon="9.517280906438828">
        <ele>2135.23</ele>
        <time>2014-09-28T11:19:15Z</time>
      </trkpt>
      <trkpt lat="45.955404611304402" lon="9.517294401302934">
        <ele>2134.7399999999998</ele>
        <time>2014-09-28T11:19:44Z</time>
      </trkpt>
      <trkpt lat="45.955411903560162" lon="9.517303286120296">
        <ele>2134.2600000000002</ele>
        <time>2014-09-28T11:20:03Z</time>
      </trkpt>
      <trkpt lat="45.955411987379193" lon="9.517301693558693">
        <ele>2133.3000000000002</ele>
        <time>2014-09-28T11:20:28Z</time>
      </trkpt>
      <trkpt lat="45.955395894125104" lon="9.51728593558073">
        <ele>2133.3000000000002</ele>
        <time>2014-09-28T11:20:57Z</time>
      </trkpt>
      <trkpt lat="45.955365970730782" lon="9.517258610576391">
        <ele>2131.3800000000001</ele>
        <time>2014-09-28T11:21:26Z</time>
      </trkpt>
      <trkpt lat="45.955327078700066" lon="9.517366904765368">
        <ele>2129.9400000000001</ele>
        <time>2014-09-28T11:21:48Z</time>
      </trkpt>
      <trkpt lat="45.955280559137464" lon="9.51734553091228">
        <ele>2129.46</ele>
        <time>2014-09-28T11:22:07Z</time>
      </trkpt>
      <trkpt lat="45.955268321558833" lon="9.517360115423799">
        <ele>2128.5</ele>
        <time>2014-09-28T11:22:14Z</time>
      </trkpt>
      <trkpt lat="45.955278798937798" lon="9.517385344952345">
        <ele>2127.5300000000002</ele>
        <time>2014-09-28T11:22:31Z</time>
      </trkpt>
      <trkpt lat="45.95529455691576" lon="9.517317702993751">
        <ele>2129.9400000000001</ele>
        <time>2014-09-28T11:22:57Z</time>
      </trkpt>
      <trkpt lat="45.955313164740801" lon="9.517202787101269">
        <ele>2130.4200000000001</ele>
        <time>2014-09-28T11:23:17Z</time>
      </trkpt>
      <trkpt lat="45.955208223313093" lon="9.517419040203095">
        <ele>2130.9000000000001</ele>
        <time>2014-09-28T11:23:44Z</time>
      </trkpt>
      <trkpt lat="45.955228758975863" lon="9.517396576702595">
        <ele>2131.3800000000001</ele>
        <time>2014-09-28T11:24:10Z</time>
      </trkpt>
      <trkpt lat="45.955163966864347" lon="9.517355421558023">
        <ele>2131.8600000000001</ele>
        <time>2014-09-28T11:24:36Z</time>
      </trkpt>
      <trkpt lat="45.955154495313764" lon="9.517369503155351">
        <ele>2131.8600000000001</ele>
        <time>2014-09-28T11:24:59Z</time>
      </trkpt>
      <trkpt lat="45.9551802277565" lon="9.517475366592407">
        <ele>2131.3800000000001</ele>
        <time>2014-09-28T11:25:27Z</time>
      </trkpt>
      <trkpt lat="45.955323139205575" lon="9.517590114846826">
        <ele>2132.3400000000001</ele>
        <time>2014-09-28T11:26:02Z</time>
      </trkpt>
      <trkpt lat="45.95526815392077" lon="9.517563711851835">
        <ele>2132.3400000000001</ele>
        <time>2014-09-28T11:26:36Z</time>
      </trkpt>
      <trkpt lat="45.95527796074748" lon="9.517540745437145">
        <ele>2132.3400000000001</ele>
        <time>2014-09-28T11:27:07Z</time>
      </trkpt>
      <trkpt lat="45.955235380679369" lon="9.517544098198414">
        <ele>2131.3800000000001</ele>
        <time>2014-09-28T11:27:39Z</time>
      </trkpt>
      <trkpt lat="45.955276368185878" lon="9.517453908920288">
        <ele>2130.9000000000001</ele>
        <time>2014-09-28T11:28:08Z</time>
      </trkpt>
      <trkpt lat="45.95528332516551" lon="9.517383668571711">
        <ele>2131.3800000000001</ele>
        <time>2014-09-28T11:28:40Z</time>
      </trkpt>
      <trkpt lat="45.955275110900402" lon="9.517362462356687">
        <ele>2131.3800000000001</ele>
        <time>2014-09-28T11:29:06Z</time>
      </trkpt>
      <trkpt lat="45.95531802624464" lon="9.517372269183397">
        <ele>2131.3800000000001</ele>
        <time>2014-09-28T11:29:42Z</time>
      </trkpt>
      <trkpt lat="45.955290449783206" lon="9.517375035211444">
        <ele>2130.9000000000001</ele>
        <time>2014-09-28T11:30:03Z</time>
      </trkpt>
      <trkpt lat="45.955296736210585" lon="9.517382327467203">
        <ele>2130.9000000000001</ele>
        <time>2014-09-28T11:30:42Z</time>
      </trkpt>
      <trkpt lat="45.955285923555493" lon="9.517446113750339">
        <ele>2130.9000000000001</ele>
        <time>2014-09-28T11:31:09Z</time>
      </trkpt>
      <trkpt lat="45.955254072323442" lon="9.517497913911939">
        <ele>2129.9400000000001</ele>
        <time>2014-09-28T11:31:37Z</time>
      </trkpt>
      <trkpt lat="45.95521979033947" lon="9.517500847578049">
        <ele>2129.9400000000001</ele>
        <time>2014-09-28T11:32:04Z</time>
      </trkpt>
      <trkpt lat="45.955216018483043" lon="9.517484754323959">
        <ele>2129.46</ele>
        <time>2014-09-28T11:32:36Z</time>
      </trkpt>
      <trkpt lat="45.955188777297735" lon="9.517507553100586">
        <ele>2128.5</ele>
        <time>2014-09-28T11:33:01Z</time>
      </trkpt>
      <trkpt lat="45.955174611881375" lon="9.51752389781177">
        <ele>2128.02</ele>
        <time>2014-09-28T11:33:25Z</time>
      </trkpt>
      <trkpt lat="45.955203445628285" lon="9.51747695915401">
        <ele>2127.0500000000002</ele>
        <time>2014-09-28T11:33:50Z</time>
      </trkpt>
      <trkpt lat="45.955213755369186" lon="9.517492046579719">
        <ele>2126.5700000000002</ele>
        <time>2014-09-28T11:34:17Z</time>
      </trkpt>
      <trkpt lat="45.955203864723444" lon="9.517467739060521">
        <ele>2124.6500000000001</ele>
        <time>2014-09-28T11:34:41Z</time>
      </trkpt>
      <trkpt lat="45.955056427046657" lon="9.517387859523296">
        <ele>2124.1700000000001</ele>
        <time>2014-09-28T11:35:01Z</time>
      </trkpt>
      <trkpt lat="45.955069670453668" lon="9.517390374094248">
        <ele>2122.25</ele>
        <time>2014-09-28T11:35:27Z</time>
      </trkpt>
      <trkpt lat="45.955103700980544" lon="9.517403449863195">
        <ele>2122.25</ele>
        <time>2014-09-28T11:35:49Z</time>
      </trkpt>
      <trkpt lat="45.954977972432971" lon="9.517356343567371">
        <ele>2122.73</ele>
        <time>2014-09-28T11:36:19Z</time>
      </trkpt>
      <trkpt lat="45.954902451485395" lon="9.51730546541512">
        <ele>2122.73</ele>
        <time>2014-09-28T11:36:42Z</time>
      </trkpt>
      <trkpt lat="45.954954922199249" lon="9.51735089533031">
        <ele>2123.21</ele>
        <time>2014-09-28T11:37:11Z</time>
      </trkpt>
      <trkpt lat="45.95489339902997" lon="9.517346536740661">
        <ele>2122.73</ele>
        <time>2014-09-28T11:37:36Z</time>
      </trkpt>
      <trkpt lat="45.954912845045328" lon="9.517309824004769">
        <ele>2123.21</ele>
        <time>2014-09-28T11:38:02Z</time>
      </trkpt>
      <trkpt lat="45.95493296161294" lon="9.517240673303604">
        <ele>2123.21</ele>
        <time>2014-09-28T11:38:24Z</time>
      </trkpt>
      <trkpt lat="45.95496179535985" lon="9.517269171774387">
        <ele>2123.21</ele>
        <time>2014-09-28T11:38:51Z</time>
      </trkpt>
      <trkpt lat="45.95504242926836" lon="9.517362043261528">
        <ele>2123.21</ele>
        <time>2014-09-28T11:39:19Z</time>
      </trkpt>
      <trkpt lat="45.955121135339141" lon="9.517358019948006">
        <ele>2123.6900000000001</ele>
        <time>2014-09-28T11:39:51Z</time>
      </trkpt>
      <trkpt lat="45.955141754820943" lon="9.517359025776386">
        <ele>2123.6900000000001</ele>
        <time>2014-09-28T11:40:19Z</time>
      </trkpt>
      <trkpt lat="45.955141503363848" lon="9.517351984977722">
        <ele>2123.6900000000001</ele>
        <time>2014-09-28T11:40:45Z</time>
      </trkpt>
      <trkpt lat="45.95512742176652" lon="9.517383333295584">
        <ele>2123.21</ele>
        <time>2014-09-28T11:41:09Z</time>
      </trkpt>
      <trkpt lat="45.955177545547485" lon="9.517387608066201">
        <ele>2123.21</ele>
        <time>2014-09-28T11:41:35Z</time>
      </trkpt>
      <trkpt lat="45.955168744549155" lon="9.517352906987071">
        <ele>2123.6900000000001</ele>
        <time>2014-09-28T11:42:04Z</time>
      </trkpt>
      <trkpt lat="45.955186514183879" lon="9.517401522025466">
        <ele>2123.21</ele>
        <time>2014-09-28T11:42:29Z</time>
      </trkpt>
      <trkpt lat="45.955216521397233" lon="9.517409652471542">
        <ele>2123.6900000000001</ele>
        <time>2014-09-28T11:43:01Z</time>
      </trkpt>
      <trkpt lat="45.955178635194898" lon="9.517383920028806">
        <ele>2123.21</ele>
        <time>2014-09-28T11:43:26Z</time>
      </trkpt>
      <trkpt lat="45.955268740653992" lon="9.517404539510608">
        <ele>2123.21</ele>
        <time>2014-09-28T11:43:51Z</time>
      </trkpt>
      <trkpt lat="45.955164805054665" lon="9.517421973869205">
        <ele>2123.21</ele>
        <time>2014-09-28T11:44:25Z</time>
      </trkpt>
      <trkpt lat="45.955157680436969" lon="9.517355421558023">
        <ele>2122.25</ele>
        <time>2014-09-28T11:44:53Z</time>
      </trkpt>
      <trkpt lat="45.955115770921111" lon="9.517377717420459">
        <ele>2120.8099999999999</ele>
        <time>2014-09-28T11:45:20Z</time>
      </trkpt>
      <trkpt lat="45.955140581354499" lon="9.517373777925968">
        <ele>2120.3200000000002</ele>
        <time>2014-09-28T11:45:43Z</time>
      </trkpt>
      <trkpt lat="45.955082830041647" lon="9.517419124022126">
        <ele>2119.3600000000001</ele>
        <time>2014-09-28T11:46:11Z</time>
      </trkpt>
      <trkpt lat="45.955057349056005" lon="9.517436726018786">
        <ele>2117.9200000000001</ele>
        <time>2014-09-28T11:46:38Z</time>
      </trkpt>
      <trkpt lat="45.955088697373867" lon="9.517389200627804">
        <ele>2117.4400000000001</ele>
        <time>2014-09-28T11:47:02Z</time>
      </trkpt>
      <trkpt lat="45.955142006278038" lon="9.517280152067542">
        <ele>2120.3200000000002</ele>
        <time>2014-09-28T11:47:27Z</time>
      </trkpt>
      <trkpt lat="45.955184167250991" lon="9.517312003299594">
        <ele>2121.29</ele>
        <time>2014-09-28T11:47:48Z</time>
      </trkpt>
      <trkpt lat="45.955282989889383" lon="9.517391715198755">
        <ele>2122.73</ele>
        <time>2014-09-28T11:48:14Z</time>
      </trkpt>
      <trkpt lat="45.95526329241693" lon="9.517144029960036">
        <ele>2122.73</ele>
        <time>2014-09-28T11:48:30Z</time>
      </trkpt>
      <trkpt lat="45.955005381256342" lon="9.517009500414133">
        <ele>2122.73</ele>
        <time>2014-09-28T11:48:48Z</time>
      </trkpt>
      <trkpt lat="45.954992976039648" lon="9.517049565911293">
        <ele>2122.73</ele>
        <time>2014-09-28T11:48:53Z</time>
      </trkpt>
      <trkpt lat="45.954992054030299" lon="9.517092062160373">
        <ele>2123.21</ele>
        <time>2014-09-28T11:49:13Z</time>
      </trkpt>
      <trkpt lat="45.954957520589232" lon="9.517157021909952">
        <ele>2123.6900000000001</ele>
        <time>2014-09-28T11:49:33Z</time>
      </trkpt>
      <trkpt lat="45.95494813285768" lon="9.517155596986413">
        <ele>2123.21</ele>
        <time>2014-09-28T11:49:35Z</time>
      </trkpt>
      <trkpt lat="45.954993814229965" lon="9.517149226740003">
        <ele>2123.6900000000001</ele>
        <time>2014-09-28T11:49:52Z</time>
      </trkpt>
      <trkpt lat="45.955065060406923" lon="9.517153417691588">
        <ele>2125.1300000000001</ele>
        <time>2014-09-28T11:50:11Z</time>
      </trkpt>
      <trkpt lat="45.955129349604249" lon="9.517357517033815">
        <ele>2127.0500000000002</ele>
        <time>2014-09-28T11:50:31Z</time>
      </trkpt>
      <trkpt lat="45.955148795619607" lon="9.517475953325629">
        <ele>2128.5</ele>
        <time>2014-09-28T11:50:51Z</time>
      </trkpt>
      <trkpt lat="45.955132450908422" lon="9.517479138448834">
        <ele>2128.98</ele>
        <time>2014-09-28T11:50:53Z</time>
      </trkpt>
      <trkpt lat="45.955066485330462" lon="9.51749456115067">
        <ele>2128.98</ele>
        <time>2014-09-28T11:51:16Z</time>
      </trkpt>
      <trkpt lat="45.955033292993903" lon="9.517464553937316">
        <ele>2129.46</ele>
        <time>2014-09-28T11:51:40Z</time>
      </trkpt>
      <trkpt lat="45.955127254128456" lon="9.51734603382647">
        <ele>2128.98</ele>
        <time>2014-09-28T11:52:04Z</time>
      </trkpt>
      <trkpt lat="45.955123482272029" lon="9.517319798469544">
        <ele>2129.46</ele>
        <time>2014-09-28T11:52:23Z</time>
      </trkpt>
      <trkpt lat="45.955176707357168" lon="9.517358941957355">
        <ele>2131.8600000000001</ele>
        <time>2014-09-28T11:52:45Z</time>
      </trkpt>
      <trkpt lat="45.955410562455654" lon="9.517391882836819">
        <ele>2130.9000000000001</ele>
        <time>2014-09-28T11:53:13Z</time>
      </trkpt>
      <trkpt lat="45.95542011782527" lon="9.517395487055183">
        <ele>2130.4200000000001</ele>
        <time>2014-09-28T11:53:14Z</time>
      </trkpt>
      <trkpt lat="45.955594545230269" lon="9.517462877556682">
        <ele>2131.3800000000001</ele>
        <time>2014-09-28T11:53:33Z</time>
      </trkpt>
      <trkpt lat="45.955528663471341" lon="9.517467906698585">
        <ele>2131.8600000000001</ele>
        <time>2014-09-28T11:53:55Z</time>
      </trkpt>
      <trkpt lat="45.955516928806901" lon="9.517433205619454">
        <ele>2132.3400000000001</ele>
        <time>2014-09-28T11:53:59Z</time>
      </trkpt>
      <trkpt lat="45.955388769507408" lon="9.517378387972713">
        <ele>2132.8200000000002</ele>
        <time>2014-09-28T11:54:20Z</time>
      </trkpt>
      <trkpt lat="45.95533705316484" lon="9.517397498711944">
        <ele>2132.3400000000001</ele>
        <time>2014-09-28T11:54:40Z</time>
      </trkpt>
      <trkpt lat="45.9554030187428" lon="9.517446029931307">
        <ele>2132.3400000000001</ele>
        <time>2014-09-28T11:55:05Z</time>
      </trkpt>
      <trkpt lat="45.955478707328439" lon="9.517426081001759">
        <ele>2132.3400000000001</ele>
        <time>2014-09-28T11:55:14Z</time>
      </trkpt>
      <trkpt lat="45.955645255744457" lon="9.517413256689906">
        <ele>2133.3000000000002</ele>
        <time>2014-09-28T11:55:36Z</time>
      </trkpt>
      <trkpt lat="45.955457920208573" lon="9.517426416277885">
        <ele>2133.7800000000002</ele>
        <time>2014-09-28T11:56:03Z</time>
      </trkpt>
      <trkpt lat="45.955210234969854" lon="9.517436977475882">
        <ele>2133.7800000000002</ele>
        <time>2014-09-28T11:56:27Z</time>
      </trkpt>
      <trkpt lat="45.955236805602908" lon="9.517430607229471">
        <ele>2133.7800000000002</ele>
        <time>2014-09-28T11:56:54Z</time>
      </trkpt>
      <trkpt lat="45.955107305198908" lon="9.51741149649024">
        <ele>2133.3000000000002</ele>
        <time>2014-09-28T11:57:18Z</time>
      </trkpt>
      <trkpt lat="45.955092217773199" lon="9.517402276396751">
        <ele>2133.7800000000002</ele>
        <time>2014-09-28T11:57:38Z</time>
      </trkpt>
      <trkpt lat="45.955095319077373" lon="9.517416525632143">
        <ele>2133.7800000000002</ele>
        <time>2014-09-28T11:58:05Z</time>
      </trkpt>
      <trkpt lat="45.955102192237973" lon="9.517393056303263">
        <ele>2134.7399999999998</ele>
        <time>2014-09-28T11:58:34Z</time>
      </trkpt>
      <trkpt lat="45.955099174752831" lon="9.517380651086569">
        <ele>2136.6700000000001</ele>
        <time>2014-09-28T11:58:59Z</time>
      </trkpt>
      <trkpt lat="45.955100180581212" lon="9.517370006069541">
        <ele>2136.6700000000001</ele>
        <time>2014-09-28T11:59:20Z</time>
      </trkpt>
      <trkpt lat="45.955111077055335" lon="9.517365898936987">
        <ele>2136.1900000000001</ele>
        <time>2014-09-28T11:59:40Z</time>
      </trkpt>
      <trkpt lat="45.955216102302074" lon="9.51733086258173">
        <ele>2136.6700000000001</ele>
        <time>2014-09-28T12:00:04Z</time>
      </trkpt>
      <trkpt lat="45.95523496158421" lon="9.517252659425139">
        <ele>2136.6700000000001</ele>
        <time>2014-09-28T12:00:27Z</time>
      </trkpt>
      <trkpt lat="45.955160697922111" lon="9.517284510657191">
        <ele>2137.1500000000001</ele>
        <time>2014-09-28T12:00:51Z</time>
      </trkpt>
      <trkpt lat="45.955222053453326" lon="9.517250480130315">
        <ele>2138.5900000000001</ele>
        <time>2014-09-28T12:01:11Z</time>
      </trkpt>
      <trkpt lat="45.955280475318432" lon="9.517255928367376">
        <ele>2138.1100000000001</ele>
        <time>2014-09-28T12:01:38Z</time>
      </trkpt>
      <trkpt lat="45.955193052068353" lon="9.517282918095589">
        <ele>2138.5900000000001</ele>
        <time>2014-09-28T12:02:03Z</time>
      </trkpt>
      <trkpt lat="45.955240242183208" lon="9.51726439408958">
        <ele>2139.5500000000002</ele>
        <time>2014-09-28T12:02:28Z</time>
      </trkpt>
      <trkpt lat="45.955238733440638" lon="9.517217958346009">
        <ele>2140.0300000000002</ele>
        <time>2014-09-28T12:02:44Z</time>
      </trkpt>
      <trkpt lat="45.955279469490051" lon="9.517167918384075">
        <ele>2140.0300000000002</ele>
        <time>2014-09-28T12:03:04Z</time>
      </trkpt>
      <trkpt lat="45.955348117277026" lon="9.517191639170051">
        <ele>2140.0300000000002</ele>
        <time>2014-09-28T12:03:26Z</time>
      </trkpt>
      <trkpt lat="45.955449035391212" lon="9.517217958346009">
        <ele>2142.4400000000001</ele>
        <time>2014-09-28T12:03:53Z</time>
      </trkpt>
      <trkpt lat="45.955499662086368" lon="9.517252743244171">
        <ele>2144.3600000000001</ele>
        <time>2014-09-28T12:04:18Z</time>
      </trkpt>
      <trkpt lat="45.95548365265131" lon="9.517235225066543">
        <ele>2145.3200000000002</ele>
        <time>2014-09-28T12:04:44Z</time>
      </trkpt>
      <trkpt lat="45.95525742508471" lon="9.517193734645844">
        <ele>2146.2800000000002</ele>
        <time>2014-09-28T12:05:02Z</time>
      </trkpt>
      <trkpt lat="45.955181568861008" lon="9.517265064641833">
        <ele>2147.2399999999998</ele>
        <time>2014-09-28T12:05:29Z</time>
      </trkpt>
      <trkpt lat="45.955115603283048" lon="9.517298005521298">
        <ele>2148.1999999999998</ele>
        <time>2014-09-28T12:05:53Z</time>
      </trkpt>
      <trkpt lat="45.95506145618856" lon="9.517288282513619">
        <ele>2147.7199999999998</ele>
        <time>2014-09-28T12:06:14Z</time>
      </trkpt>
      <trkpt lat="45.955046871677041" lon="9.517274871468544">
        <ele>2147.2399999999998</ele>
        <time>2014-09-28T12:06:35Z</time>
      </trkpt>
      <trkpt lat="45.954986354336143" lon="9.517228938639164">
        <ele>2146.7600000000002</ele>
        <time>2014-09-28T12:06:54Z</time>
      </trkpt>
      <trkpt lat="45.954969255253673" lon="9.517190800979734">
        <ele>2146.7600000000002</ele>
        <time>2014-09-28T12:07:10Z</time>
      </trkpt>
      <trkpt lat="45.954935140907764" lon="9.517185185104609">
        <ele>2146.2800000000002</ele>
        <time>2014-09-28T12:07:29Z</time>
      </trkpt>
      <trkpt lat="45.954924914985895" lon="9.517211001366377">
        <ele>2146.2800000000002</ele>
        <time>2014-09-28T12:07:53Z</time>
      </trkpt>
      <trkpt lat="45.95491586253047" lon="9.517197087407112">
        <ele>2146.7600000000002</ele>
        <time>2014-09-28T12:08:12Z</time>
      </trkpt>
      <trkpt lat="45.954906558617949" lon="9.517187112942338">
        <ele>2146.2800000000002</ele>
        <time>2014-09-28T12:08:44Z</time>
      </trkpt>
      <trkpt lat="45.954884178936481" lon="9.517151992768049">
        <ele>2146.2800000000002</ele>
        <time>2014-09-28T12:09:09Z</time>
      </trkpt>
      <trkpt lat="45.954878898337483" lon="9.517193315550685">
        <ele>2146.2800000000002</ele>
        <time>2014-09-28T12:09:33Z</time>
      </trkpt>
      <trkpt lat="45.954874036833644" lon="9.517173869535327">
        <ele>2145.8000000000002</ele>
        <time>2014-09-28T12:09:58Z</time>
      </trkpt>
      <trkpt lat="45.95489289611578" lon="9.517149059101939">
        <ele>2144.3600000000001</ele>
        <time>2014-09-28T12:10:26Z</time>
      </trkpt>
      <trkpt lat="45.954756522551179" lon="9.517128188163042">
        <ele>2144.3600000000001</ele>
        <time>2014-09-28T12:10:49Z</time>
      </trkpt>
      <trkpt lat="45.954747470095754" lon="9.517135983332992">
        <ele>2144.3600000000001</ele>
        <time>2014-09-28T12:11:08Z</time>
      </trkpt>
      <trkpt lat="45.954805891960859" lon="9.517150819301605">
        <ele>2143.8800000000001</ele>
        <time>2014-09-28T12:11:41Z</time>
      </trkpt>
      <trkpt lat="45.954859787598252" lon="9.517157524824143">
        <ele>2144.3600000000001</ele>
        <time>2014-09-28T12:11:59Z</time>
      </trkpt>
      <trkpt lat="45.954858278855681" lon="9.517138162627816">
        <ele>2144.3600000000001</ele>
        <time>2014-09-28T12:12:26Z</time>
      </trkpt>
      <trkpt lat="45.954808238893747" lon="9.517133049666882">
        <ele>2144.3600000000001</ele>
        <time>2014-09-28T12:12:55Z</time>
      </trkpt>
      <trkpt lat="45.954866074025631" lon="9.517144029960036">
        <ele>2143.4000000000001</ele>
        <time>2014-09-28T12:13:19Z</time>
      </trkpt>
      <trkpt lat="45.954934470355511" lon="9.51711586676538">
        <ele>2142.9200000000001</ele>
        <time>2014-09-28T12:13:46Z</time>
      </trkpt>
      <trkpt lat="45.954846711829305" lon="9.517040764912963">
        <ele>2142.9200000000001</ele>
        <time>2014-09-28T12:14:07Z</time>
      </trkpt>
      <trkpt lat="45.954806227236986" lon="9.517032885923982">
        <ele>2141.9499999999998</ele>
        <time>2014-09-28T12:14:29Z</time>
      </trkpt>
      <trkpt lat="45.954723414033651" lon="9.517044285312295">
        <ele>2142.9200000000001</ele>
        <time>2014-09-28T12:14:49Z</time>
      </trkpt>
      <trkpt lat="45.954719223082066" lon="9.517049062997103">
        <ele>2142.4400000000001</ele>
        <time>2014-09-28T12:15:14Z</time>
      </trkpt>
      <trkpt lat="45.954706147313118" lon="9.517027940601111">
        <ele>2143.4000000000001</ele>
        <time>2014-09-28T12:15:40Z</time>
      </trkpt>
      <trkpt lat="45.954711427912116" lon="9.517076974734664">
        <ele>2144.8400000000001</ele>
        <time>2014-09-28T12:16:03Z</time>
      </trkpt>
      <trkpt lat="45.954788876697421" lon="9.517109245061874">
        <ele>2145.3200000000002</ele>
        <time>2014-09-28T12:16:28Z</time>
      </trkpt>
      <trkpt lat="45.955007812008262" lon="9.517099438235164">
        <ele>2146.2800000000002</ele>
        <time>2014-09-28T12:16:49Z</time>
      </trkpt>
      <trkpt lat="45.954975625500083" lon="9.51709876768291">
        <ele>2148.1999999999998</ele>
        <time>2014-09-28T12:17:15Z</time>
      </trkpt>
      <trkpt lat="45.954978559166193" lon="9.517096253111959">
        <ele>2148.6799999999998</ele>
        <time>2014-09-28T12:17:42Z</time>
      </trkpt>
      <trkpt lat="45.95491393469274" lon="9.51708166860044">
        <ele>2150.6100000000001</ele>
        <time>2014-09-28T12:18:06Z</time>
      </trkpt>
      <trkpt lat="45.954888369888067" lon="9.517050990834832">
        <ele>2152.5300000000002</ele>
        <time>2014-09-28T12:18:27Z</time>
      </trkpt>
      <trkpt lat="45.954891974106431" lon="9.517037076875567">
        <ele>2153.9699999999998</ele>
        <time>2014-09-28T12:18:53Z</time>
      </trkpt>
      <trkpt lat="45.954934135079384" lon="9.517021737992764">
        <ele>2155.8899999999999</ele>
        <time>2014-09-28T12:19:18Z</time>
      </trkpt>
      <trkpt lat="45.954859452322125" lon="9.516950156539679">
        <ele>2158.7800000000002</ele>
        <time>2014-09-28T12:19:42Z</time>
      </trkpt>
      <trkpt lat="45.954843023791909" lon="9.516946636140347">
        <ele>2158.3000000000002</ele>
        <time>2014-09-28T12:20:02Z</time>
      </trkpt>
      <trkpt lat="45.95478787086904" lon="9.516921825706959">
        <ele>2158.3000000000002</ele>
        <time>2014-09-28T12:20:20Z</time>
      </trkpt>
      <trkpt lat="45.954681755974889" lon="9.516919646412134">
        <ele>2155.8899999999999</ele>
        <time>2014-09-28T12:20:40Z</time>
      </trkpt>
      <trkpt lat="45.954615538939834" lon="9.516991982236505">
        <ele>2159.2600000000002</ele>
        <time>2014-09-28T12:20:56Z</time>
      </trkpt>
      <trkpt lat="45.954618137329817" lon="9.517062557861209">
        <ele>2162.1399999999999</ele>
        <time>2014-09-28T12:21:15Z</time>
      </trkpt>
      <trkpt lat="45.954648479819298" lon="9.517052667215467">
        <ele>2165.0300000000002</ele>
        <time>2014-09-28T12:21:35Z</time>
      </trkpt>
      <trkpt lat="45.954667422920465" lon="9.517067084088922">
        <ele>2165.0300000000002</ele>
        <time>2014-09-28T12:21:59Z</time>
      </trkpt>
      <trkpt lat="45.954664070159197" lon="9.517040094360709">
        <ele>2165.9899999999998</ele>
        <time>2014-09-28T12:22:16Z</time>
      </trkpt>
      <trkpt lat="45.954649485647678" lon="9.517000028863549">
        <ele>2165.9899999999998</ele>
        <time>2014-09-28T12:22:36Z</time>
      </trkpt>
      <trkpt lat="45.954616377130151" lon="9.516971111297607">
        <ele>2165.5100000000002</ele>
        <time>2014-09-28T12:22:51Z</time>
      </trkpt>
      <trkpt lat="45.954661555588245" lon="9.516984103247523">
        <ele>2165.5100000000002</ele>
        <time>2014-09-28T12:23:09Z</time>
      </trkpt>
      <trkpt lat="45.95466666854918" lon="9.517028778791428">
        <ele>2166.4699999999998</ele>
        <time>2014-09-28T12:23:26Z</time>
      </trkpt>
      <trkpt lat="45.954670691862702" lon="9.517016708850861">
        <ele>2165.9899999999998</ele>
        <time>2014-09-28T12:23:54Z</time>
      </trkpt>
      <trkpt lat="45.95466130413115" lon="9.517013607546687">
        <ele>2164.5500000000002</ele>
        <time>2014-09-28T12:24:11Z</time>
      </trkpt>
      <trkpt lat="45.954670775681734" lon="9.516999358311296">
        <ele>2164.5500000000002</ele>
        <time>2014-09-28T12:24:43Z</time>
      </trkpt>
      <trkpt lat="45.954679409042001" lon="9.516999945044518">
        <ele>2165.0300000000002</ele>
        <time>2014-09-28T12:24:59Z</time>
      </trkpt>
      <trkpt lat="45.954678235575557" lon="9.516999609768391">
        <ele>2165.0300000000002</ele>
        <time>2014-09-28T12:25:19Z</time>
      </trkpt>
      <trkpt lat="45.954683013260365" lon="9.517006734386087">
        <ele>2164.0599999999999</ele>
        <time>2014-09-28T12:25:41Z</time>
      </trkpt>
      <trkpt lat="45.954684773460031" lon="9.517000699415803">
        <ele>2164.0599999999999</ele>
        <time>2014-09-28T12:26:11Z</time>
      </trkpt>
      <trkpt lat="45.954686617478728" lon="9.517001872882247">
        <ele>2164.0599999999999</ele>
        <time>2014-09-28T12:26:40Z</time>
      </trkpt>
      <trkpt lat="45.954684605821967" lon="9.517005812376738">
        <ele>2164.0599999999999</ele>
        <time>2014-09-28T12:27:00Z</time>
      </trkpt>
      <trkpt lat="45.954690221697092" lon="9.517008494585753">
        <ele>2163.5799999999999</ele>
        <time>2014-09-28T12:27:47Z</time>
      </trkpt>
      <trkpt lat="45.954689467325807" lon="9.51701033860445">
        <ele>2163.5799999999999</ele>
        <time>2014-09-28T12:28:21Z</time>
      </trkpt>
      <trkpt lat="45.954694580286741" lon="9.517019307240844">
        <ele>2163.5799999999999</ele>
        <time>2014-09-28T12:28:45Z</time>
      </trkpt>
      <trkpt lat="45.954694161191583" lon="9.517012014985085">
        <ele>2163.5799999999999</ele>
        <time>2014-09-28T12:29:11Z</time>
      </trkpt>
      <trkpt lat="45.954693825915456" lon="9.517009500414133">
        <ele>2163.5799999999999</ele>
        <time>2014-09-28T12:29:46Z</time>
      </trkpt>
      <trkpt lat="45.954694245010614" lon="9.517007991671562">
        <ele>2163.5799999999999</ele>
        <time>2014-09-28T12:30:22Z</time>
      </trkpt>
      <trkpt lat="45.954692317172885" lon="9.51700639910996">
        <ele>2163.5799999999999</ele>
        <time>2014-09-28T12:30:54Z</time>
      </trkpt>
      <trkpt lat="45.954690808430314" lon="9.517000615596771">
        <ele>2163.5799999999999</ele>
        <time>2014-09-28T12:31:23Z</time>
      </trkpt>
      <trkpt lat="45.954694412648678" lon="9.517004806548357">
        <ele>2163.5799999999999</ele>
        <time>2014-09-28T12:31:53Z</time>
      </trkpt>
      <trkpt lat="45.954692903906107" lon="9.517012517899275">
        <ele>2163.5799999999999</ele>
        <time>2014-09-28T12:32:31Z</time>
      </trkpt>
      <trkpt lat="45.954687455669045" lon="9.517005896195769">
        <ele>2163.5799999999999</ele>
        <time>2014-09-28T12:33:10Z</time>
      </trkpt>
      <trkpt lat="45.9546949993819" lon="9.517011679708958">
        <ele>2163.5799999999999</ele>
        <time>2014-09-28T12:33:36Z</time>
      </trkpt>
      <trkpt lat="45.954700279980898" lon="9.517016876488924">
        <ele>2163.5799999999999</ele>
        <time>2014-09-28T12:34:09Z</time>
      </trkpt>
      <trkpt lat="45.954699944704771" lon="9.517013691365719">
        <ele>2163.5799999999999</ele>
        <time>2014-09-28T12:34:47Z</time>
      </trkpt>
      <trkpt lat="45.954702543094754" lon="9.517018469050527">
        <ele>2163.5799999999999</ele>
        <time>2014-09-28T12:35:23Z</time>
      </trkpt>
      <trkpt lat="45.954702794551849" lon="9.517011009156704">
        <ele>2163.5799999999999</ele>
        <time>2014-09-28T12:35:56Z</time>
      </trkpt>
      <trkpt lat="45.954698184505105" lon="9.517019726336002">
        <ele>2163.5799999999999</ele>
        <time>2014-09-28T12:36:37Z</time>
      </trkpt>
      <trkpt lat="45.95469256862998" lon="9.51700053177774">
        <ele>2163.5799999999999</ele>
        <time>2014-09-28T12:37:05Z</time>
      </trkpt>
      <trkpt lat="45.954692233353853" lon="9.517004890367389">
        <ele>2163.5799999999999</ele>
        <time>2014-09-28T12:37:22Z</time>
      </trkpt>
      <trkpt lat="45.954692987725139" lon="9.516998352482915">
        <ele>2163.5799999999999</ele>
        <time>2014-09-28T12:37:44Z</time>
      </trkpt>
      <trkpt lat="45.954693993553519" lon="9.517008410766721">
        <ele>2164.0599999999999</ele>
        <time>2014-09-28T12:38:08Z</time>
      </trkpt>
      <trkpt lat="45.954684186726809" lon="9.516993574798107">
        <ele>2163.5799999999999</ele>
        <time>2014-09-28T12:38:34Z</time>
      </trkpt>
      <trkpt lat="45.95469256862998" lon="9.516979577019811">
        <ele>2164.5500000000002</ele>
        <time>2014-09-28T12:38:49Z</time>
      </trkpt>
      <trkpt lat="45.954674547538161" lon="9.516986114904285">
        <ele>2164.5500000000002</ele>
        <time>2014-09-28T12:39:14Z</time>
      </trkpt>
      <trkpt lat="45.954696424305439" lon="9.517000950872898">
        <ele>2163.5799999999999</ele>
        <time>2014-09-28T12:39:34Z</time>
      </trkpt>
      <trkpt lat="45.954700447618961" lon="9.517011344432831">
        <ele>2163.5799999999999</ele>
        <time>2014-09-28T12:40:12Z</time>
      </trkpt>
      <trkpt lat="45.954690556973219" lon="9.516996089369059">
        <ele>2163.5799999999999</ele>
        <time>2014-09-28T12:40:49Z</time>
      </trkpt>
      <trkpt lat="45.954691478982568" lon="9.516990724951029">
        <ele>2164.0599999999999</ele>
        <time>2014-09-28T12:41:29Z</time>
      </trkpt>
      <trkpt lat="45.954694915562868" lon="9.516986617818475">
        <ele>2164.0599999999999</ele>
        <time>2014-09-28T12:42:07Z</time>
      </trkpt>
      <trkpt lat="45.954699860885739" lon="9.516996340826154">
        <ele>2164.0599999999999</ele>
        <time>2014-09-28T12:42:39Z</time>
      </trkpt>
      <trkpt lat="45.95470430329442" lon="9.517004806548357">
        <ele>2164.0599999999999</ele>
        <time>2014-09-28T12:43:16Z</time>
      </trkpt>
      <trkpt lat="45.954700112342834" lon="9.517004638910294">
        <ele>2164.0599999999999</ele>
        <time>2014-09-28T12:43:55Z</time>
      </trkpt>
      <trkpt lat="45.954698268324137" lon="9.517005393281579">
        <ele>2164.0599999999999</ele>
        <time>2014-09-28T12:44:31Z</time>
      </trkpt>
      <trkpt lat="45.954672787338495" lon="9.51701226644218">
        <ele>2165.0300000000002</ele>
        <time>2014-09-28T12:44:46Z</time>
      </trkpt>
      <trkpt lat="45.954672368243337" lon="9.516986785456538">
        <ele>2165.0300000000002</ele>
        <time>2014-09-28T12:45:00Z</time>
      </trkpt>
      <trkpt lat="45.954704890027642" lon="9.517004555091262">
        <ele>2165.0300000000002</ele>
        <time>2014-09-28T12:45:19Z</time>
      </trkpt>
      <trkpt lat="45.954691311344504" lon="9.516987204551697">
        <ele>2165.0300000000002</ele>
        <time>2014-09-28T12:45:48Z</time>
      </trkpt>
      <trkpt lat="45.9547018725425" lon="9.516986450180411">
        <ele>2165.0300000000002</ele>
        <time>2014-09-28T12:46:11Z</time>
      </trkpt>
      <trkpt lat="45.954691059887409" lon="9.516982845962048">
        <ele>2165.0300000000002</ele>
        <time>2014-09-28T12:46:32Z</time>
      </trkpt>
      <trkpt lat="45.954682594165206" lon="9.51696440577507">
        <ele>2164.5500000000002</ele>
        <time>2014-09-28T12:46:49Z</time>
      </trkpt>
      <trkpt lat="45.95467203296721" lon="9.516932806000114">
        <ele>2163.5799999999999</ele>
        <time>2014-09-28T12:47:00Z</time>
      </trkpt>
      <trkpt lat="45.95467890612781" lon="9.516958706080914">
        <ele>2163.5799999999999</ele>
        <time>2014-09-28T12:47:27Z</time>
      </trkpt>
      <trkpt lat="45.954687790945172" lon="9.516958622261882">
        <ele>2163.5799999999999</ele>
        <time>2014-09-28T12:47:51Z</time>
      </trkpt>
      <trkpt lat="45.954689802601933" lon="9.516965327784419">
        <ele>2164.0599999999999</ele>
        <time>2014-09-28T12:48:06Z</time>
      </trkpt>
      <trkpt lat="45.954674798995256" lon="9.516973290592432">
        <ele>2164.5500000000002</ele>
        <time>2014-09-28T12:48:23Z</time>
      </trkpt>
      <trkpt lat="45.954669434577227" lon="9.516962226480246">
        <ele>2164.5500000000002</ele>
        <time>2014-09-28T12:48:34Z</time>
      </trkpt>
      <trkpt lat="45.954673290252686" lon="9.516971865668893">
        <ele>2164.0599999999999</ele>
        <time>2014-09-28T12:49:00Z</time>
      </trkpt>
      <trkpt lat="45.954667087644339" lon="9.516968345269561">
        <ele>2164.0599999999999</ele>
        <time>2014-09-28T12:49:14Z</time>
      </trkpt>
      <trkpt lat="45.954678738489747" lon="9.516948480159044">
        <ele>2164.0599999999999</ele>
        <time>2014-09-28T12:49:24Z</time>
      </trkpt>
      <trkpt lat="45.954669183120131" lon="9.516985192894936">
        <ele>2164.0599999999999</ele>
        <time>2014-09-28T12:49:29Z</time>
      </trkpt>
      <trkpt lat="45.954688964411616" lon="9.51701327227056">
        <ele>2164.5500000000002</ele>
        <time>2014-09-28T12:49:32Z</time>
      </trkpt>
      <trkpt lat="45.954672954976559" lon="9.517062222585082">
        <ele>2162.6199999999999</ele>
        <time>2014-09-28T12:49:40Z</time>
      </trkpt>
      <trkpt lat="45.954622328281403" lon="9.517061468213797">
        <ele>2160.6999999999998</ele>
        <time>2014-09-28T12:49:47Z</time>
      </trkpt>
      <trkpt lat="45.954597936943173" lon="9.517011931166053">
        <ele>2159.2600000000002</ele>
        <time>2014-09-28T12:49:51Z</time>
      </trkpt>
      <trkpt lat="45.954563319683075" lon="9.516948983073235">
        <ele>2157.3400000000001</ele>
        <time>2014-09-28T12:49:55Z</time>
      </trkpt>
      <trkpt lat="45.954554351046681" lon="9.516945043578744">
        <ele>2157.3400000000001</ele>
        <time>2014-09-28T12:49:56Z</time>
      </trkpt>
      <trkpt lat="45.954478494822979" lon="9.516913862898946">
        <ele>2157.3400000000001</ele>
        <time>2014-09-28T12:50:08Z</time>
      </trkpt>
      <trkpt lat="45.954411858692765" lon="9.516932051628828">
        <ele>2155.8899999999999</ele>
        <time>2014-09-28T12:50:27Z</time>
      </trkpt>
      <trkpt lat="45.954420827329159" lon="9.516885448247194">
        <ele>2155.8899999999999</ele>
        <time>2014-09-28T12:50:41Z</time>
      </trkpt>
      <trkpt lat="45.954400040209293" lon="9.516847059130669">
        <ele>2153.9699999999998</ele>
        <time>2014-09-28T12:50:59Z</time>
      </trkpt>
      <trkpt lat="45.954373637214303" lon="9.516886789351702">
        <ele>2151.5700000000002</ele>
        <time>2014-09-28T12:51:13Z</time>
      </trkpt>
      <trkpt lat="45.954337930306792" lon="9.516864828765392">
        <ele>2149.6500000000001</ele>
        <time>2014-09-28T12:51:23Z</time>
      </trkpt>
      <trkpt lat="45.954327872022986" lon="9.516873881220818">
        <ele>2148.1999999999998</ele>
        <time>2014-09-28T12:51:33Z</time>
      </trkpt>
      <trkpt lat="45.954303396865726" lon="9.51693020761013">
        <ele>2145.3200000000002</ele>
        <time>2014-09-28T12:51:46Z</time>
      </trkpt>
      <trkpt lat="45.954276993870735" lon="9.516986533999443">
        <ele>2141.9499999999998</ele>
        <time>2014-09-28T12:51:56Z</time>
      </trkpt>
      <trkpt lat="45.954281352460384" lon="9.517004638910294">
        <ele>2141.9499999999998</ele>
        <time>2014-09-28T12:52:09Z</time>
      </trkpt>
      <trkpt lat="45.954244388267398" lon="9.517040513455868">
        <ele>2142.4400000000001</ele>
        <time>2014-09-28T12:52:23Z</time>
      </trkpt>
      <trkpt lat="45.954229636117816" lon="9.517027772963047">
        <ele>2143.8800000000001</ele>
        <time>2014-09-28T12:52:35Z</time>
      </trkpt>
      <trkpt lat="45.954238940030336" lon="9.517036909237504">
        <ele>2144.3600000000001</ele>
        <time>2014-09-28T12:52:51Z</time>
      </trkpt>
      <trkpt lat="45.954233072698116" lon="9.517024755477905">
        <ele>2146.2800000000002</ele>
        <time>2014-09-28T12:53:07Z</time>
      </trkpt>
      <trkpt lat="45.954217733815312" lon="9.517055014148355">
        <ele>2148.1999999999998</ele>
        <time>2014-09-28T12:53:19Z</time>
      </trkpt>
      <trkpt lat="45.954188564792275" lon="9.51703917235136">
        <ele>2149.6500000000001</ele>
        <time>2014-09-28T12:53:31Z</time>
      </trkpt>
      <trkpt lat="45.954144392162561" lon="9.516938338056207">
        <ele>2152.5300000000002</ele>
        <time>2014-09-28T12:53:45Z</time>
      </trkpt>
      <trkpt lat="45.954119497910142" lon="9.516946133226156">
        <ele>2153.0100000000002</ele>
        <time>2014-09-28T12:53:48Z</time>
      </trkpt>
      <trkpt lat="45.954092089086771" lon="9.516977230086923">
        <ele>2152.0500000000002</ele>
        <time>2014-09-28T12:54:06Z</time>
      </trkpt>
      <trkpt lat="45.954077001661062" lon="9.516984103247523">
        <ele>2152.0500000000002</ele>
        <time>2014-09-28T12:54:08Z</time>
      </trkpt>
      <trkpt lat="45.953986812382936" lon="9.516976224258542">
        <ele>2151.0900000000001</ele>
        <time>2014-09-28T12:54:21Z</time>
      </trkpt>
      <trkpt lat="45.953914728015661" lon="9.516932219266892">
        <ele>2153.0100000000002</ele>
        <time>2014-09-28T12:54:32Z</time>
      </trkpt>
      <trkpt lat="45.953842559829354" lon="9.516900032758713">
        <ele>2154.4499999999998</ele>
        <time>2014-09-28T12:54:44Z</time>
      </trkpt>
      <trkpt lat="45.953724374994636" lon="9.516849154606462">
        <ele>2155.4099999999999</ele>
        <time>2014-09-28T12:54:56Z</time>
      </trkpt>
      <trkpt lat="45.953532597050071" lon="9.516833648085594">
        <ele>2153.0100000000002</ele>
        <time>2014-09-28T12:55:14Z</time>
      </trkpt>
      <trkpt lat="45.953444419428706" lon="9.516789391636848">
        <ele>2150.1300000000001</ele>
        <time>2014-09-28T12:55:29Z</time>
      </trkpt>
      <trkpt lat="45.953396474942565" lon="9.516824847087264">
        <ele>2147.7199999999998</ele>
        <time>2014-09-28T12:55:41Z</time>
      </trkpt>
      <trkpt lat="45.953302262350917" lon="9.516853932291269">
        <ele>2146.2800000000002</ele>
        <time>2014-09-28T12:55:54Z</time>
      </trkpt>
      <trkpt lat="45.95329555682838" lon="9.516859212890267">
        <ele>2146.2800000000002</ele>
        <time>2014-09-28T12:55:55Z</time>
      </trkpt>
      <trkpt lat="45.95320763066411" lon="9.516911013051868">
        <ele>2148.6799999999998</ele>
        <time>2014-09-28T12:56:09Z</time>
      </trkpt>
      <trkpt lat="45.953123895451427" lon="9.516946384683251">
        <ele>2150.6100000000001</ele>
        <time>2014-09-28T12:56:24Z</time>
      </trkpt>
      <trkpt lat="45.953042590990663" lon="9.516920987516642">
        <ele>2153.4899999999998</ele>
        <time>2014-09-28T12:56:39Z</time>
      </trkpt>
      <trkpt lat="45.95303270034492" lon="9.516946468502283">
        <ele>2154.4499999999998</ele>
        <time>2014-09-28T12:56:50Z</time>
      </trkpt>
      <trkpt lat="45.953022306784987" lon="9.516957364976406">
        <ele>2153.4899999999998</ele>
        <time>2014-09-28T12:57:05Z</time>
      </trkpt>
      <trkpt lat="45.953035885468125" lon="9.516947222873569">
        <ele>2154.4499999999998</ele>
        <time>2014-09-28T12:57:15Z</time>
      </trkpt>
      <trkpt lat="45.953040663152933" lon="9.516959963366389">
        <ele>2154.4499999999998</ele>
        <time>2014-09-28T12:57:28Z</time>
      </trkpt>
      <trkpt lat="45.953039573505521" lon="9.516962477937341">
        <ele>2154.4499999999998</ele>
        <time>2014-09-28T12:57:53Z</time>
      </trkpt>
      <trkpt lat="45.95304049551487" lon="9.516958957538009">
        <ele>2154.4499999999998</ele>
        <time>2014-09-28T12:58:09Z</time>
      </trkpt>
      <trkpt lat="45.953024737536907" lon="9.51696683652699">
        <ele>2153.9699999999998</ele>
        <time>2014-09-28T12:58:29Z</time>
      </trkpt>
      <trkpt lat="45.95302733592689" lon="9.51695267111063">
        <ele>2153.9699999999998</ele>
        <time>2014-09-28T12:58:46Z</time>
      </trkpt>
      <trkpt lat="45.953014679253101" lon="9.51695216819644">
        <ele>2153.9699999999998</ele>
        <time>2014-09-28T12:59:16Z</time>
      </trkpt>
      <trkpt lat="45.953017696738243" lon="9.516956359148026">
        <ele>2153.9699999999998</ele>
        <time>2014-09-28T12:59:44Z</time>
      </trkpt>
      <trkpt lat="45.953007889911532" lon="9.516957448795438">
        <ele>2153.9699999999998</ele>
        <time>2014-09-28T13:00:06Z</time>
      </trkpt>
      <trkpt lat="45.953021803870797" lon="9.516990808770061">
        <ele>2153.9699999999998</ele>
        <time>2014-09-28T13:00:29Z</time>
      </trkpt>
      <trkpt lat="45.953016020357609" lon="9.516956778243184">
        <ele>2153.9699999999998</ele>
        <time>2014-09-28T13:00:48Z</time>
      </trkpt>
      <trkpt lat="45.953003531321883" lon="9.51696733944118">
        <ele>2153.9699999999998</ele>
        <time>2014-09-28T13:01:11Z</time>
      </trkpt>
      <trkpt lat="45.95301509834826" lon="9.516971865668893">
        <ele>2153.9699999999998</ele>
        <time>2014-09-28T13:01:30Z</time>
      </trkpt>
      <trkpt lat="45.953014846891165" lon="9.516979828476906">
        <ele>2154.4499999999998</ele>
        <time>2014-09-28T13:01:49Z</time>
      </trkpt>
      <trkpt lat="45.953012332320213" lon="9.516990054398775">
        <ele>2154.4499999999998</ele>
        <time>2014-09-28T13:02:12Z</time>
      </trkpt>
      <trkpt lat="45.953010488301516" lon="9.516971111297607">
        <ele>2154.4499999999998</ele>
        <time>2014-09-28T13:02:27Z</time>
      </trkpt>
      <trkpt lat="45.953000094741583" lon="9.516976391896606">
        <ele>2153.9699999999998</ele>
        <time>2014-09-28T13:02:47Z</time>
      </trkpt>
      <trkpt lat="45.953006464987993" lon="9.5169922336936">
        <ele>2154.4499999999998</ele>
        <time>2014-09-28T13:03:04Z</time>
      </trkpt>
      <trkpt lat="45.953015685081482" lon="9.516989048570395">
        <ele>2154.4499999999998</ele>
        <time>2014-09-28T13:03:29Z</time>
      </trkpt>
      <trkpt lat="45.95300973393023" lon="9.516977984458208">
        <ele>2154.4499999999998</ele>
        <time>2014-09-28T13:03:46Z</time>
      </trkpt>
      <trkpt lat="45.953010655939579" lon="9.516984522342682">
        <ele>2154.4499999999998</ele>
        <time>2014-09-28T13:04:03Z</time>
      </trkpt>
      <trkpt lat="45.953012080863118" lon="9.517004135996103">
        <ele>2153.4899999999998</ele>
        <time>2014-09-28T13:04:16Z</time>
      </trkpt>
      <trkpt lat="45.953008057549596" lon="9.517001453787088">
        <ele>2154.4499999999998</ele>
        <time>2014-09-28T13:04:27Z</time>
      </trkpt>
      <trkpt lat="45.95298919826746" lon="9.517039004713297">
        <ele>2153.9699999999998</ele>
        <time>2014-09-28T13:04:34Z</time>
      </trkpt>
      <trkpt lat="45.952936308458447" lon="9.517029449343681">
        <ele>2151.5700000000002</ele>
        <time>2014-09-28T13:04:42Z</time>
      </trkpt>
      <trkpt lat="45.952874114736915" lon="9.517015116289258">
        <ele>2148.6799999999998</ele>
        <time>2014-09-28T13:04:50Z</time>
      </trkpt>
      <trkpt lat="45.952858189120889" lon="9.517023917287588">
        <ele>2147.7199999999998</ele>
        <time>2014-09-28T13:04:52Z</time>
      </trkpt>
      <trkpt lat="45.952831115573645" lon="9.51708510518074">
        <ele>2145.3200000000002</ele>
        <time>2014-09-28T13:04:56Z</time>
      </trkpt>
      <trkpt lat="45.95280890353024" lon="9.517142772674561">
        <ele>2144.3600000000001</ele>
        <time>2014-09-28T13:05:00Z</time>
      </trkpt>
      <trkpt lat="45.952776297926903" lon="9.51723120175302">
        <ele>2142.4400000000001</ele>
        <time>2014-09-28T13:05:08Z</time>
      </trkpt>
      <trkpt lat="45.952747715637088" lon="9.517299011349678">
        <ele>2140.9899999999998</ele>
        <time>2014-09-28T13:05:14Z</time>
      </trkpt>
      <trkpt lat="45.95268283970654" lon="9.51736606657505">
        <ele>2137.1500000000001</ele>
        <time>2014-09-28T13:05:24Z</time>
      </trkpt>
      <trkpt lat="45.952597679570317" lon="9.517444018274546">
        <ele>2133.7800000000002</ele>
        <time>2014-09-28T13:05:35Z</time>
      </trkpt>
      <trkpt lat="45.952583346515894" lon="9.517423650249839">
        <ele>2132.8200000000002</ele>
        <time>2014-09-28T13:05:39Z</time>
      </trkpt>
      <trkpt lat="45.952575216069818" lon="9.517519539222121">
        <ele>2129.46</ele>
        <time>2014-09-28T13:05:46Z</time>
      </trkpt>
      <trkpt lat="45.952578904107213" lon="9.517569076269865">
        <ele>2128.02</ele>
        <time>2014-09-28T13:05:50Z</time>
      </trkpt>
      <trkpt lat="45.952565493062139" lon="9.517630683258176">
        <ele>2126.5700000000002</ele>
        <time>2014-09-28T13:05:55Z</time>
      </trkpt>
      <trkpt lat="45.95255333930254" lon="9.517650967463851">
        <ele>2126.0900000000001</ele>
        <time>2014-09-28T13:05:57Z</time>
      </trkpt>
      <trkpt lat="45.952485697343946" lon="9.517794968560338">
        <ele>2123.6900000000001</ele>
        <time>2014-09-28T13:06:12Z</time>
      </trkpt>
      <trkpt lat="45.952482344582677" lon="9.517800668254495">
        <ele>2124.1700000000001</ele>
        <time>2014-09-28T13:06:33Z</time>
      </trkpt>
      <trkpt lat="45.95241361297667" lon="9.517850792035461">
        <ele>2123.21</ele>
        <time>2014-09-28T13:06:52Z</time>
      </trkpt>
      <trkpt lat="45.952412774786353" lon="9.517926815897226">
        <ele>2121.29</ele>
        <time>2014-09-28T13:06:58Z</time>
      </trkpt>
      <trkpt lat="45.952418642118573" lon="9.518023459240794">
        <ele>2119.3600000000001</ele>
        <time>2014-09-28T13:07:04Z</time>
      </trkpt>
      <trkpt lat="45.952400956302881" lon="9.51815421693027">
        <ele>2116.48</ele>
        <time>2014-09-28T13:07:12Z</time>
      </trkpt>
      <trkpt lat="45.952400201931596" lon="9.518198892474175">
        <ele>2115.52</ele>
        <time>2014-09-28T13:07:15Z</time>
      </trkpt>
      <trkpt lat="45.952393664047122" lon="9.518230073153973">
        <ele>2114.0799999999999</ele>
        <time>2014-09-28T13:07:18Z</time>
      </trkpt>
      <trkpt lat="45.952370697632432" lon="9.518308779224753">
        <ele>2111.6700000000001</ele>
        <time>2014-09-28T13:07:23Z</time>
      </trkpt>
      <trkpt lat="45.952342115342617" lon="9.518388407304883">
        <ele>2109.75</ele>
        <time>2014-09-28T13:07:29Z</time>
      </trkpt>
      <trkpt lat="45.952272210270166" lon="9.518587645143271">
        <ele>2106.3899999999999</ele>
        <time>2014-09-28T13:07:42Z</time>
      </trkpt>
      <trkpt lat="45.952245807275176" lon="9.51864330098033">
        <ele>2104.46</ele>
        <time>2014-09-28T13:07:47Z</time>
      </trkpt>
      <trkpt lat="45.952244466170669" lon="9.518685797229409">
        <ele>2103.02</ele>
        <time>2014-09-28T13:07:50Z</time>
      </trkpt>
      <trkpt lat="45.952258296310902" lon="9.518738267943263">
        <ele>2102.0599999999999</ele>
        <time>2014-09-28T13:07:54Z</time>
      </trkpt>
      <trkpt lat="45.952252764254808" lon="9.518782608211041">
        <ele>2101.0999999999999</ele>
        <time>2014-09-28T13:07:57Z</time>
      </trkpt>
      <trkpt lat="45.9522117767483" lon="9.51877330429852">
        <ele>2100.1399999999999</ele>
        <time>2014-09-28T13:08:00Z</time>
      </trkpt>
      <trkpt lat="45.952159222215414" lon="9.518919568508863">
        <ele>2096.77</ele>
        <time>2014-09-28T13:08:11Z</time>
      </trkpt>
      <trkpt lat="45.952139273285866" lon="9.518982684239745">
        <ele>2094.3699999999999</ele>
        <time>2014-09-28T13:08:17Z</time>
      </trkpt>
      <trkpt lat="45.952138854190707" lon="9.519021324813366">
        <ele>2093.4099999999999</ele>
        <time>2014-09-28T13:08:20Z</time>
      </trkpt>
      <trkpt lat="45.952172381803393" lon="9.519142946228385">
        <ele>2090.04</ele>
        <time>2014-09-28T13:08:29Z</time>
      </trkpt>
      <trkpt lat="45.952181601896882" lon="9.519222155213356">
        <ele>2088.1199999999999</ele>
        <time>2014-09-28T13:08:34Z</time>
      </trkpt>
      <trkpt lat="45.952195264399052" lon="9.519293317571282">
        <ele>2086.6799999999998</ele>
        <time>2014-09-28T13:08:38Z</time>
      </trkpt>
      <trkpt lat="45.95220398157835" lon="9.519334472715855">
        <ele>2085.2399999999998</ele>
        <time>2014-09-28T13:08:42Z</time>
      </trkpt>
      <trkpt lat="45.952240526676178" lon="9.519355595111847">
        <ele>2084.7600000000002</ele>
        <time>2014-09-28T13:08:46Z</time>
      </trkpt>
      <trkpt lat="45.952242370694876" lon="9.51942608691752">
        <ele>2082.8299999999999</ele>
        <time>2014-09-28T13:08:51Z</time>
      </trkpt>
      <trkpt lat="45.952234324067831" lon="9.519575787708163">
        <ele>2079.4699999999998</ele>
        <time>2014-09-28T13:09:02Z</time>
      </trkpt>
      <trkpt lat="45.952206999063492" lon="9.519622474908829">
        <ele>2078.0300000000002</ele>
        <time>2014-09-28T13:09:06Z</time>
      </trkpt>
      <trkpt lat="45.952214542776346" lon="9.519735630601645">
        <ele>2075.6199999999999</ele>
        <time>2014-09-28T13:09:14Z</time>
      </trkpt>
      <trkpt lat="45.952160228043795" lon="9.519821964204311">
        <ele>2074.1799999999998</ele>
        <time>2014-09-28T13:09:21Z</time>
      </trkpt>
      <trkpt lat="45.952126365154982" lon="9.519897485151887">
        <ele>2072.2600000000002</ele>
        <time>2014-09-28T13:09:28Z</time>
      </trkpt>
      <trkpt lat="45.952139021828771" lon="9.51994844712317">
        <ele>2071.3000000000002</ele>
        <time>2014-09-28T13:09:31Z</time>
      </trkpt>
      <trkpt lat="45.952150169759989" lon="9.519970742985606">
        <ele>2070.8200000000002</ele>
        <time>2014-09-28T13:09:33Z</time>
      </trkpt>
      <trkpt lat="45.952163580805063" lon="9.520057579502463">
        <ele>2069.8600000000001</ele>
        <time>2014-09-28T13:09:38Z</time>
      </trkpt>
      <trkpt lat="45.952149666845798" lon="9.52012388035655">
        <ele>2067.4499999999998</ele>
        <time>2014-09-28T13:09:48Z</time>
      </trkpt>
      <trkpt lat="45.952137177810073" lon="9.520157240331173">
        <ele>2066.4899999999998</ele>
        <time>2014-09-28T13:09:51Z</time>
      </trkpt>
      <trkpt lat="45.952110690996051" lon="9.520194120705128">
        <ele>2064.0900000000001</ele>
        <time>2014-09-28T13:09:55Z</time>
      </trkpt>
      <trkpt lat="45.952134830877185" lon="9.520280119031668">
        <ele>2062.6500000000001</ele>
        <time>2014-09-28T13:10:00Z</time>
      </trkpt>
      <trkpt lat="45.952052688226104" lon="9.520525289699435">
        <ele>2060.2399999999998</ele>
        <time>2014-09-28T13:10:15Z</time>
      </trkpt>
      <trkpt lat="45.952005162835121" lon="9.520710110664368">
        <ele>2058.8000000000002</ele>
        <time>2014-09-28T13:10:25Z</time>
      </trkpt>
      <trkpt lat="45.951961660757661" lon="9.521016301587224">
        <ele>2056.8800000000001</ele>
        <time>2014-09-28T13:10:42Z</time>
      </trkpt>
      <trkpt lat="45.951904077082872" lon="9.521268932148814">
        <ele>2056.8800000000001</ele>
        <time>2014-09-28T13:10:59Z</time>
      </trkpt>
      <trkpt lat="45.951867615804076" lon="9.521360127255321">
        <ele>2057.8400000000001</ele>
        <time>2014-09-28T13:11:06Z</time>
      </trkpt>
      <trkpt lat="45.951841045171022" lon="9.521405976265669">
        <ele>2058.8000000000002</ele>
        <time>2014-09-28T13:11:10Z</time>
      </trkpt>
      <trkpt lat="45.951844984665513" lon="9.521446796134114">
        <ele>2058.3200000000002</ele>
        <time>2014-09-28T13:11:13Z</time>
      </trkpt>
      <trkpt lat="45.951886139810085" lon="9.521583672612906">
        <ele>2056.4000000000001</ele>
        <time>2014-09-28T13:11:23Z</time>
      </trkpt>
      <trkpt lat="45.951952189207077" lon="9.52173387631774">
        <ele>2054.4699999999998</ele>
        <time>2014-09-28T13:11:34Z</time>
      </trkpt>
      <trkpt lat="45.95199091359973" lon="9.521794393658638">
        <ele>2054.4699999999998</ele>
        <time>2014-09-28T13:11:39Z</time>
      </trkpt>
      <trkpt lat="45.952006420120597" lon="9.521805122494698">
        <ele>2053.9899999999998</ele>
        <time>2014-09-28T13:11:41Z</time>
      </trkpt>
      <trkpt lat="45.952073894441128" lon="9.522034199908376">
        <ele>2052.5500000000002</ele>
        <time>2014-09-28T13:11:56Z</time>
      </trkpt>
      <trkpt lat="45.952112367376685" lon="9.52210821211338">
        <ele>2052.0700000000002</ele>
        <time>2014-09-28T13:12:01Z</time>
      </trkpt>
      <trkpt lat="45.952167101204395" lon="9.522165041416884">
        <ele>2053.0300000000002</ele>
        <time>2014-09-28T13:12:08Z</time>
      </trkpt>
      <trkpt lat="45.952177494764328" lon="9.522219188511372">
        <ele>2053.5100000000002</ele>
        <time>2014-09-28T13:12:12Z</time>
      </trkpt>
      <trkpt lat="45.95215511508286" lon="9.522318094968796">
        <ele>2054.96</ele>
        <time>2014-09-28T13:12:20Z</time>
      </trkpt>
      <trkpt lat="45.952165676280856" lon="9.522402668371797">
        <ele>2056.4000000000001</ele>
        <time>2014-09-28T13:12:28Z</time>
      </trkpt>
      <trkpt lat="45.952159808948636" lon="9.522518254816532">
        <ele>2054.4699999999998</ele>
        <time>2014-09-28T13:12:39Z</time>
      </trkpt>
      <trkpt lat="45.952162994071841" lon="9.522532001137734">
        <ele>2054.4699999999998</ele>
        <time>2014-09-28T13:12:45Z</time>
      </trkpt>
      <trkpt lat="45.952154695987701" lon="9.522684216499329">
        <ele>2053.0300000000002</ele>
        <time>2014-09-28T13:12:56Z</time>
      </trkpt>
      <trkpt lat="45.952143799513578" lon="9.522862834855914">
        <ele>2053.9899999999998</ele>
        <time>2014-09-28T13:13:09Z</time>
      </trkpt>
      <trkpt lat="45.952124102041125" lon="9.522900218144059">
        <ele>2054.96</ele>
        <time>2014-09-28T13:13:13Z</time>
      </trkpt>
      <trkpt lat="45.952138435095549" lon="9.522946989163756">
        <ele>2055.4400000000001</ele>
        <time>2014-09-28T13:13:17Z</time>
      </trkpt>
      <trkpt lat="45.952073810622096" lon="9.523201212286949">
        <ele>2054.4699999999998</ele>
        <time>2014-09-28T13:13:33Z</time>
      </trkpt>
      <trkpt lat="45.95207205042243" lon="9.523412520065904">
        <ele>2056.4000000000001</ele>
        <time>2014-09-28T13:13:47Z</time>
      </trkpt>
      <trkpt lat="45.95208277925849" lon="9.523605136200786">
        <ele>2055.4400000000001</ele>
        <time>2014-09-28T13:14:00Z</time>
      </trkpt>
      <trkpt lat="45.952069368213415" lon="9.523752573877573">
        <ele>2055.4400000000001</ele>
        <time>2014-09-28T13:14:09Z</time>
      </trkpt>
      <trkpt lat="45.952028296887875" lon="9.523877715691924">
        <ele>2054.4699999999998</ele>
        <time>2014-09-28T13:14:17Z</time>
      </trkpt>
      <trkpt lat="45.952029135078192" lon="9.524087263271213">
        <ele>2053.0300000000002</ele>
        <time>2014-09-28T13:14:30Z</time>
      </trkpt>
      <trkpt lat="45.952020166441798" lon="9.524172507226467">
        <ele>2051.5900000000001</ele>
        <time>2014-09-28T13:14:45Z</time>
      </trkpt>
      <trkpt lat="45.951972305774689" lon="9.524213830009103">
        <ele>2049.6700000000001</ele>
        <time>2014-09-28T13:14:52Z</time>
      </trkpt>
      <trkpt lat="45.951938778162003" lon="9.524204609915614">
        <ele>2048.23</ele>
        <time>2014-09-28T13:14:56Z</time>
      </trkpt>
      <trkpt lat="45.951941376551986" lon="9.524230845272541">
        <ele>2047.75</ele>
        <time>2014-09-28T13:14:58Z</time>
      </trkpt>
      <trkpt lat="45.951922768726945" lon="9.524273844435811">
        <ele>2046.78</ele>
        <time>2014-09-28T13:15:01Z</time>
      </trkpt>
      <trkpt lat="45.951916482299566" lon="9.524300247430801">
        <ele>2045.8199999999999</ele>
        <time>2014-09-28T13:15:03Z</time>
      </trkpt>
      <trkpt lat="45.9519337490201" lon="9.524404434487224">
        <ele>2044.3800000000001</ele>
        <time>2014-09-28T13:15:10Z</time>
      </trkpt>
      <trkpt lat="45.951881194487214" lon="9.524595541879535">
        <ele>2041.02</ele>
        <time>2014-09-28T13:15:23Z</time>
      </trkpt>
      <trkpt lat="45.951841715723276" lon="9.524709451943636">
        <ele>2039.5699999999999</ele>
        <time>2014-09-28T13:15:30Z</time>
      </trkpt>
      <trkpt lat="45.95183459110558" lon="9.52480785548687">
        <ele>2038.6099999999999</ele>
        <time>2014-09-28T13:15:37Z</time>
      </trkpt>
      <trkpt lat="45.951833836734295" lon="9.524831157177687">
        <ele>2038.6099999999999</ele>
        <time>2014-09-28T13:15:39Z</time>
      </trkpt>
      <trkpt lat="45.95180181786418" lon="9.524985132738948">
        <ele>2036.6900000000001</ele>
        <time>2014-09-28T13:15:49Z</time>
      </trkpt>
      <trkpt lat="45.951821515336633" lon="9.525068616494536">
        <ele>2035.73</ele>
        <time>2014-09-28T13:15:56Z</time>
      </trkpt>
      <trkpt lat="45.951881278306246" lon="9.525117734447122">
        <ele>2034.77</ele>
        <time>2014-09-28T13:16:02Z</time>
      </trkpt>
      <trkpt lat="45.951929306611419" lon="9.525310685858131">
        <ele>2032.8399999999999</ele>
        <time>2014-09-28T13:16:16Z</time>
      </trkpt>
      <trkpt lat="45.952030308544636" lon="9.525315798819065">
        <ele>2031.4000000000001</ele>
        <time>2014-09-28T13:16:29Z</time>
      </trkpt>
      <trkpt lat="45.952055957168341" lon="9.525388050824404">
        <ele>2030.4400000000001</ele>
        <time>2014-09-28T13:16:33Z</time>
      </trkpt>
      <trkpt lat="45.952071296051145" lon="9.52546457760036">
        <ele>2030.9200000000001</ele>
        <time>2014-09-28T13:16:39Z</time>
      </trkpt>
      <trkpt lat="45.952069368213415" lon="9.525492656975985">
        <ele>2030.9200000000001</ele>
        <time>2014-09-28T13:16:41Z</time>
      </trkpt>
      <trkpt lat="45.952182607725263" lon="9.525621654465795">
        <ele>2029</ele>
        <time>2014-09-28T13:16:53Z</time>
      </trkpt>
      <trkpt lat="45.952213620766997" lon="9.525716034695506">
        <ele>2028.52</ele>
        <time>2014-09-28T13:16:58Z</time>
      </trkpt>
      <trkpt lat="45.952225523069501" lon="9.525744449347258">
        <ele>2027.0799999999999</ele>
        <time>2014-09-28T13:17:00Z</time>
      </trkpt>
      <trkpt lat="45.952302217483521" lon="9.525915188714862">
        <ele>2028.04</ele>
        <time>2014-09-28T13:17:14Z</time>
      </trkpt>
      <trkpt lat="45.952308000996709" lon="9.525928348302841">
        <ele>2028.04</ele>
        <time>2014-09-28T13:17:15Z</time>
      </trkpt>
      <trkpt lat="45.952337170019746" lon="9.526019878685474">
        <ele>2029</ele>
        <time>2014-09-28T13:17:22Z</time>
      </trkpt>
      <trkpt lat="45.952330464497209" lon="9.526074444875121">
        <ele>2029.48</ele>
        <time>2014-09-28T13:17:26Z</time>
      </trkpt>
      <trkpt lat="45.952309425920248" lon="9.526139153167605">
        <ele>2029.96</ele>
        <time>2014-09-28T13:17:31Z</time>
      </trkpt>
      <trkpt lat="45.952265169471502" lon="9.526196233928204">
        <ele>2029.96</ele>
        <time>2014-09-28T13:17:36Z</time>
      </trkpt>
      <trkpt lat="45.95223817974329" lon="9.526221211999655">
        <ele>2029.48</ele>
        <time>2014-09-28T13:17:39Z</time>
      </trkpt>
      <trkpt lat="45.952202472835779" lon="9.526404105126858">
        <ele>2028.04</ele>
        <time>2014-09-28T13:17:50Z</time>
      </trkpt>
      <trkpt lat="45.952207166701555" lon="9.526459090411663">
        <ele>2027.5599999999999</ele>
        <time>2014-09-28T13:17:53Z</time>
      </trkpt>
      <trkpt lat="45.952172130346298" lon="9.526670062914491">
        <ele>2026.1199999999999</ele>
        <time>2014-09-28T13:18:06Z</time>
      </trkpt>
      <trkpt lat="45.952160228043795" lon="9.526742063462734">
        <ele>2024.6700000000001</ele>
        <time>2014-09-28T13:18:12Z</time>
      </trkpt>
      <trkpt lat="45.952141704037786" lon="9.526797384023666">
        <ele>2023.71</ele>
        <time>2014-09-28T13:18:16Z</time>
      </trkpt>
      <trkpt lat="45.952088059857488" lon="9.526972314342856">
        <ele>2021.79</ele>
        <time>2014-09-28T13:18:28Z</time>
      </trkpt>
      <trkpt lat="45.952088981866837" lon="9.527000477537513">
        <ele>2021.79</ele>
        <time>2014-09-28T13:18:31Z</time>
      </trkpt>
      <trkpt lat="45.952082695439458" lon="9.527046410366893">
        <ele>2020.8299999999999</ele>
        <time>2014-09-28T13:18:34Z</time>
      </trkpt>
      <trkpt lat="45.952070457860827" lon="9.527076166123152">
        <ele>2020.3499999999999</ele>
        <time>2014-09-28T13:18:36Z</time>
      </trkpt>
      <trkpt lat="45.952023016288877" lon="9.52710097655654">
        <ele>2018.4300000000001</ele>
        <time>2014-09-28T13:18:42Z</time>
      </trkpt>
      <trkpt lat="45.951970461755991" lon="9.527183705940843">
        <ele>2015.54</ele>
        <time>2014-09-28T13:18:51Z</time>
      </trkpt>
      <trkpt lat="45.951915811747313" lon="9.527291832491756">
        <ele>2011.7</ele>
        <time>2014-09-28T13:19:01Z</time>
      </trkpt>
      <trkpt lat="45.951872309669852" lon="9.527345895767212">
        <ele>2010.25</ele>
        <time>2014-09-28T13:19:10Z</time>
      </trkpt>
      <trkpt lat="45.951800979673862" lon="9.527473133057356">
        <ele>2006.8900000000001</ele>
        <time>2014-09-28T13:19:21Z</time>
      </trkpt>
      <trkpt lat="45.951772145926952" lon="9.527526861056685">
        <ele>2004.97</ele>
        <time>2014-09-28T13:19:26Z</time>
      </trkpt>
      <trkpt lat="45.951763847842813" lon="9.527544295415282">
        <ele>2004.49</ele>
        <time>2014-09-28T13:19:28Z</time>
      </trkpt>
      <trkpt lat="45.951749347150326" lon="9.527600035071373">
        <ele>2002.5599999999999</ele>
        <time>2014-09-28T13:19:33Z</time>
      </trkpt>
      <trkpt lat="45.951678939163685" lon="9.527699863538146">
        <ele>2000.1600000000001</ele>
        <time>2014-09-28T13:19:42Z</time>
      </trkpt>
      <trkpt lat="45.951647758483887" lon="9.527721237391233">
        <ele>1999.6800000000001</ele>
        <time>2014-09-28T13:19:45Z</time>
      </trkpt>
      <trkpt lat="45.951576931402087" lon="9.527765745297074">
        <ele>1998.24</ele>
        <time>2014-09-28T13:19:51Z</time>
      </trkpt>
      <trkpt lat="45.951587995514274" lon="9.527856772765517">
        <ele>1996.3199999999999</ele>
        <time>2014-09-28T13:19:59Z</time>
      </trkpt>
      <trkpt lat="45.95160685479641" lon="9.527871524915099">
        <ele>1995.3499999999999</ele>
        <time>2014-09-28T13:20:04Z</time>
      </trkpt>
      <trkpt lat="45.951663767918944" lon="9.527853420004249">
        <ele>1993.4300000000001</ele>
        <time>2014-09-28T13:20:10Z</time>
      </trkpt>
      <trkpt lat="45.951634598895907" lon="9.527943106368184">
        <ele>1991.03</ele>
        <time>2014-09-28T13:20:19Z</time>
      </trkpt>
      <trkpt lat="45.951600316911936" lon="9.528080485761166">
        <ele>1987.6600000000001</ele>
        <time>2014-09-28T13:20:32Z</time>
      </trkpt>
      <trkpt lat="45.951599813997746" lon="9.52811879105866">
        <ele>1985.74</ele>
        <time>2014-09-28T13:20:35Z</time>
      </trkpt>
      <trkpt lat="45.951571818441153" lon="9.52818475663662">
        <ele>1984.78</ele>
        <time>2014-09-28T13:20:41Z</time>
      </trkpt>
      <trkpt lat="45.951554719358683" lon="9.528232952579856">
        <ele>1983.8199999999999</ele>
        <time>2014-09-28T13:20:45Z</time>
      </trkpt>
      <trkpt lat="45.951539799571037" lon="9.528282070532441">
        <ele>1981.9000000000001</ele>
        <time>2014-09-28T13:20:51Z</time>
      </trkpt>
      <trkpt lat="45.951643483713269" lon="9.528291206806898">
        <ele>1979.01</ele>
        <time>2014-09-28T13:21:00Z</time>
      </trkpt>
      <trkpt lat="45.951568214222789" lon="9.52843839302659">
        <ele>1975.6500000000001</ele>
        <time>2014-09-28T13:21:14Z</time>
      </trkpt>
      <trkpt lat="45.951484479010105" lon="9.528494970872998">
        <ele>1972.28</ele>
        <time>2014-09-28T13:21:24Z</time>
      </trkpt>
      <trkpt lat="45.95145296305418" lon="9.52852388843894">
        <ele>1971.3199999999999</ele>
        <time>2014-09-28T13:21:28Z</time>
      </trkpt>
      <trkpt lat="45.951463356614113" lon="9.528562864288688">
        <ele>1969.8800000000001</ele>
        <time>2014-09-28T13:21:31Z</time>
      </trkpt>
      <trkpt lat="45.951446425169706" lon="9.528579879552126">
        <ele>1968.9200000000001</ele>
        <time>2014-09-28T13:21:35Z</time>
      </trkpt>
      <trkpt lat="45.951453298330307" lon="9.5286157540977">
        <ele>1968.4400000000001</ele>
        <time>2014-09-28T13:21:38Z</time>
      </trkpt>
      <trkpt lat="45.951424045488238" lon="9.528626147657633">
        <ele>1967.96</ele>
        <time>2014-09-28T13:21:41Z</time>
      </trkpt>
      <trkpt lat="45.951399235054851" lon="9.528665961697698">
        <ele>1966.51</ele>
        <time>2014-09-28T13:21:46Z</time>
      </trkpt>
      <trkpt lat="45.951344333589077" lon="9.528735615313053">
        <ele>1963.6300000000001</ele>
        <time>2014-09-28T13:21:57Z</time>
      </trkpt>
      <trkpt lat="45.951350620016456" lon="9.528744081035256">
        <ele>1963.1500000000001</ele>
        <time>2014-09-28T13:21:58Z</time>
      </trkpt>
      <trkpt lat="45.951382555067539" lon="9.528830666095018">
        <ele>1961.23</ele>
        <time>2014-09-28T13:22:05Z</time>
      </trkpt>
      <trkpt lat="45.951385907828808" lon="9.528859751299024">
        <ele>1960.75</ele>
        <time>2014-09-28T13:22:07Z</time>
      </trkpt>
      <trkpt lat="45.951416753232479" lon="9.52888548374176">
        <ele>1958.8199999999999</ele>
        <time>2014-09-28T13:22:14Z</time>
      </trkpt>
      <trkpt lat="45.951530244201422" lon="9.52897927723825">
        <ele>1955.46</ele>
        <time>2014-09-28T13:22:26Z</time>
      </trkpt>
      <trkpt lat="45.951486239209771" lon="9.529155381023884">
        <ele>1952.5699999999999</ele>
        <time>2014-09-28T13:22:37Z</time>
      </trkpt>
      <trkpt lat="45.951478444039822" lon="9.529169881716371">
        <ele>1952.0899999999999</ele>
        <time>2014-09-28T13:22:38Z</time>
      </trkpt>
      <trkpt lat="45.951439300552011" lon="9.529229728505015">
        <ele>1950.1700000000001</ele>
        <time>2014-09-28T13:22:44Z</time>
      </trkpt>
      <trkpt lat="45.951342657208443" lon="9.529295526444912">
        <ele>1949.6900000000001</ele>
        <time>2014-09-28T13:22:55Z</time>
      </trkpt>
      <trkpt lat="45.951264286413789" lon="9.529343638569117">
        <ele>1951.6099999999999</ele>
        <time>2014-09-28T13:23:07Z</time>
      </trkpt>
      <trkpt lat="45.951265962794423" lon="9.529355457052589">
        <ele>1951.6099999999999</ele>
        <time>2014-09-28T13:23:08Z</time>
      </trkpt>
      <trkpt lat="45.951249953359365" lon="9.529368616640568">
        <ele>1951.6099999999999</ele>
        <time>2014-09-28T13:23:10Z</time>
      </trkpt>
      <trkpt lat="45.951164960861206" lon="9.529444389045239">
        <ele>1950.1700000000001</ele>
        <time>2014-09-28T13:23:23Z</time>
      </trkpt>
      <trkpt lat="45.951146269217134" lon="9.529539942741394">
        <ele>1947.77</ele>
        <time>2014-09-28T13:23:30Z</time>
      </trkpt>
      <trkpt lat="45.951124643906951" lon="9.529551090672612">
        <ele>1947.29</ele>
        <time>2014-09-28T13:23:32Z</time>
      </trkpt>
      <trkpt lat="45.951044512912631" lon="9.529571793973446">
        <ele>1944.8800000000001</ele>
        <time>2014-09-28T13:23:40Z</time>
      </trkpt>
      <trkpt lat="45.95096773467958" lon="9.529563747346401">
        <ele>1944.8800000000001</ele>
        <time>2014-09-28T13:23:46Z</time>
      </trkpt>
      <trkpt lat="45.950917694717646" lon="9.529638094827533">
        <ele>1944.4000000000001</ele>
        <time>2014-09-28T13:23:53Z</time>
      </trkpt>
      <trkpt lat="45.950976870954037" lon="9.529745550826192">
        <ele>1941.52</ele>
        <time>2014-09-28T13:24:07Z</time>
      </trkpt>
      <trkpt lat="45.950995059683919" lon="9.529730211943388">
        <ele>1941.04</ele>
        <time>2014-09-28T13:24:09Z</time>
      </trkpt>
      <trkpt lat="45.951023977249861" lon="9.529747478663921">
        <ele>1940.0799999999999</ele>
        <time>2014-09-28T13:24:12Z</time>
      </trkpt>
      <trkpt lat="45.951108885928988" lon="9.529940010979772">
        <ele>1936.71</ele>
        <time>2014-09-28T13:24:26Z</time>
      </trkpt>
      <trkpt lat="45.951139144599438" lon="9.530012849718332">
        <ele>1936.23</ele>
        <time>2014-09-28T13:24:30Z</time>
      </trkpt>
      <trkpt lat="45.951145263388753" lon="9.530093483626843">
        <ele>1935.75</ele>
        <time>2014-09-28T13:24:35Z</time>
      </trkpt>
      <trkpt lat="45.951163116842508" lon="9.530194737017155">
        <ele>1934.79</ele>
        <time>2014-09-28T13:24:41Z</time>
      </trkpt>
      <trkpt lat="45.951317846775055" lon="9.530385509133339">
        <ele>1933.3499999999999</ele>
        <time>2014-09-28T13:24:58Z</time>
      </trkpt>
      <trkpt lat="45.951356235891581" lon="9.53042222186923">
        <ele>1929.98</ele>
        <time>2014-09-28T13:25:09Z</time>
      </trkpt>
      <trkpt lat="45.951355649158359" lon="9.530421886593103">
        <ele>1929.98</ele>
        <time>2014-09-28T13:25:10Z</time>
      </trkpt>
      <trkpt lat="45.951362689957023" lon="9.530428759753704">
        <ele>1930.95</ele>
        <time>2014-09-28T13:25:46Z</time>
      </trkpt>
      <trkpt lat="45.95135816372931" lon="9.530433034524322">
        <ele>1931.4300000000001</ele>
        <time>2014-09-28T13:26:13Z</time>
      </trkpt>
      <trkpt lat="45.951362354680896" lon="9.530427502468228">
        <ele>1931.4300000000001</ele>
        <time>2014-09-28T13:26:41Z</time>
      </trkpt>
      <trkpt lat="45.95135229639709" lon="9.530429681763053">
        <ele>1931.4300000000001</ele>
        <time>2014-09-28T13:27:10Z</time>
      </trkpt>
      <trkpt lat="45.951358918100595" lon="9.530416019260883">
        <ele>1930.95</ele>
        <time>2014-09-28T13:27:46Z</time>
      </trkpt>
      <trkpt lat="45.951357744634151" lon="9.530424568802118">
        <ele>1931.4300000000001</ele>
        <time>2014-09-28T13:28:18Z</time>
      </trkpt>
      <trkpt lat="45.951336286962032" lon="9.530405374243856">
        <ele>1931.9100000000001</ele>
        <time>2014-09-28T13:28:32Z</time>
      </trkpt>
      <trkpt lat="45.951330922544003" lon="9.530397243797779">
        <ele>1930.95</ele>
        <time>2014-09-28T13:28:51Z</time>
      </trkpt>
      <trkpt lat="45.951330754905939" lon="9.530395735055208">
        <ele>1931.4300000000001</ele>
        <time>2014-09-28T13:28:58Z</time>
      </trkpt>
      <trkpt lat="45.951379202306271" lon="9.530480140820146">
        <ele>1930.95</ele>
        <time>2014-09-28T13:29:21Z</time>
      </trkpt>
      <trkpt lat="45.951403426006436" lon="9.530537221580744">
        <ele>1930.46</ele>
        <time>2014-09-28T13:29:26Z</time>
      </trkpt>
      <trkpt lat="45.951416920870543" lon="9.530715588480234">
        <ele>1927.0999999999999</ele>
        <time>2014-09-28T13:29:40Z</time>
      </trkpt>
      <trkpt lat="45.951420860365033" lon="9.530770238488913">
        <ele>1926.1400000000001</ele>
        <time>2014-09-28T13:29:52Z</time>
      </trkpt>
      <trkpt lat="45.951423710212111" lon="9.530781134963036">
        <ele>1926.1400000000001</ele>
        <time>2014-09-28T13:29:53Z</time>
      </trkpt>
      <trkpt lat="45.951383812353015" lon="9.530998226255179">
        <ele>1923.25</ele>
        <time>2014-09-28T13:30:07Z</time>
      </trkpt>
      <trkpt lat="45.951353302225471" lon="9.531079446896911">
        <ele>1921.8099999999999</ele>
        <time>2014-09-28T13:30:13Z</time>
      </trkpt>
      <trkpt lat="45.951309381052852" lon="9.531119428575039">
        <ele>1921.3299999999999</ele>
        <time>2014-09-28T13:30:19Z</time>
      </trkpt>
      <trkpt lat="45.951289851218462" lon="9.531127475202084">
        <ele>1920.8499999999999</ele>
        <time>2014-09-28T13:30:22Z</time>
      </trkpt>
      <trkpt lat="45.951287504285574" lon="9.531153542920947">
        <ele>1920.3699999999999</ele>
        <time>2014-09-28T13:30:24Z</time>
      </trkpt>
      <trkpt lat="45.951252216473222" lon="9.531232165172696">
        <ele>1918.9300000000001</ele>
        <time>2014-09-28T13:30:31Z</time>
      </trkpt>
      <trkpt lat="45.951235787943006" lon="9.531267704442143">
        <ele>1918.45</ele>
        <time>2014-09-28T13:30:34Z</time>
      </trkpt>
      <trkpt lat="45.951137971132994" lon="9.531475575640798">
        <ele>1916.04</ele>
        <time>2014-09-28T13:30:49Z</time>
      </trkpt>
      <trkpt lat="45.951079130172729" lon="9.531583366915584">
        <ele>1915.5599999999999</ele>
        <time>2014-09-28T13:30:58Z</time>
      </trkpt>
      <trkpt lat="45.951037053018808" lon="9.531631898134947">
        <ele>1915.5599999999999</ele>
        <time>2014-09-28T13:31:03Z</time>
      </trkpt>
      <trkpt lat="45.95098583959043" lon="9.531704485416412">
        <ele>1915.5599999999999</ele>
        <time>2014-09-28T13:31:10Z</time>
      </trkpt>
      <trkpt lat="45.95094820484519" lon="9.531798614189029">
        <ele>1914.1199999999999</ele>
        <time>2014-09-28T13:31:16Z</time>
      </trkpt>
      <trkpt lat="45.950796995311975" lon="9.531905483454466">
        <ele>1914.1199999999999</ele>
        <time>2014-09-28T13:31:31Z</time>
      </trkpt>
      <trkpt lat="45.95066917128861" lon="9.5320107601583">
        <ele>1914.1199999999999</ele>
        <time>2014-09-28T13:31:45Z</time>
      </trkpt>
      <trkpt lat="45.950544783845544" lon="9.532084437087178">
        <ele>1913.6400000000001</ele>
        <time>2014-09-28T13:31:56Z</time>
      </trkpt>
      <trkpt lat="45.950439926236868" lon="9.532211925834417">
        <ele>1914.5999999999999</ele>
        <time>2014-09-28T13:32:10Z</time>
      </trkpt>
      <trkpt lat="45.950418300926685" lon="9.532237658277154">
        <ele>1915.5599999999999</ele>
        <time>2014-09-28T13:32:13Z</time>
      </trkpt>
      <trkpt lat="45.950358537957072" lon="9.532313095405698">
        <ele>1917.01</ele>
        <time>2014-09-28T13:32:24Z</time>
      </trkpt>
      <trkpt lat="45.950325848534703" lon="9.532378893345594">
        <ele>1917.49</ele>
        <time>2014-09-28T13:32:29Z</time>
      </trkpt>
      <trkpt lat="45.950306737795472" lon="9.53239917755127">
        <ele>1917.01</ele>
        <time>2014-09-28T13:32:31Z</time>
      </trkpt>
      <trkpt lat="45.950253428891301" lon="9.532637475058436">
        <ele>1918.9300000000001</ele>
        <time>2014-09-28T13:32:48Z</time>
      </trkpt>
      <trkpt lat="45.950226271525025" lon="9.532805951312184">
        <ele>1918.45</ele>
        <time>2014-09-28T13:33:00Z</time>
      </trkpt>
      <trkpt lat="45.950269773602486" lon="9.532849872484803">
        <ele>1918.45</ele>
        <time>2014-09-28T13:33:13Z</time>
      </trkpt>
      <trkpt lat="45.950271869078279" lon="9.532865295186639">
        <ele>1918.45</ele>
        <time>2014-09-28T13:33:14Z</time>
      </trkpt>
      <trkpt lat="45.950246891006827" lon="9.532994125038385">
        <ele>1919.4100000000001</ele>
        <time>2014-09-28T13:33:26Z</time>
      </trkpt>
      <trkpt lat="45.950232641771436" lon="9.532956071197987">
        <ele>1919.4100000000001</ele>
        <time>2014-09-28T13:33:47Z</time>
      </trkpt>
      <trkpt lat="45.950231719762087" lon="9.533070903271437">
        <ele>1918.45</ele>
        <time>2014-09-28T13:34:09Z</time>
      </trkpt>
      <trkpt lat="45.95022308640182" lon="9.533063611015678">
        <ele>1917.97</ele>
        <time>2014-09-28T13:34:21Z</time>
      </trkpt>
      <trkpt lat="45.950264828279614" lon="9.53296160325408">
        <ele>1919.8900000000001</ele>
        <time>2014-09-28T13:34:34Z</time>
      </trkpt>
      <trkpt lat="45.950270863249898" lon="9.532953556627035">
        <ele>1919.4100000000001</ele>
        <time>2014-09-28T13:34:47Z</time>
      </trkpt>
      <trkpt lat="45.950315454974771" lon="9.532920112833381">
        <ele>1918.45</ele>
        <time>2014-09-28T13:34:52Z</time>
      </trkpt>
      <trkpt lat="45.950330626219511" lon="9.532802011817694">
        <ele>1920.8499999999999</ele>
        <time>2014-09-28T13:35:03Z</time>
      </trkpt>
      <trkpt lat="45.950343534350395" lon="9.532782901078463">
        <ele>1920.8499999999999</ele>
        <time>2014-09-28T13:35:05Z</time>
      </trkpt>
      <trkpt lat="45.950350156053901" lon="9.532744009047747">
        <ele>1920.8499999999999</ele>
        <time>2014-09-28T13:35:21Z</time>
      </trkpt>
      <trkpt lat="45.95036038197577" lon="9.532744344323874">
        <ele>1920.8499999999999</ele>
        <time>2014-09-28T13:35:29Z</time>
      </trkpt>
      <trkpt lat="45.950331715866923" lon="9.532925393432379">
        <ele>1918.45</ele>
        <time>2014-09-28T13:35:42Z</time>
      </trkpt>
      <trkpt lat="45.950333224609494" lon="9.532942660152912">
        <ele>1918.9300000000001</ele>
        <time>2014-09-28T13:35:43Z</time>
      </trkpt>
      <trkpt lat="45.950275473296642" lon="9.532986916601658">
        <ele>1919.4100000000001</ele>
        <time>2014-09-28T13:35:49Z</time>
      </trkpt>
      <trkpt lat="45.950249657034874" lon="9.533012984320521">
        <ele>1918.9300000000001</ele>
        <time>2014-09-28T13:35:52Z</time>
      </trkpt>
      <trkpt lat="45.950226271525025" lon="9.533083811402321">
        <ele>1918.45</ele>
        <time>2014-09-28T13:35:57Z</time>
      </trkpt>
      <trkpt lat="45.950141027569771" lon="9.533262681216002">
        <ele>1916.53</ele>
        <time>2014-09-28T13:36:10Z</time>
      </trkpt>
      <trkpt lat="45.950021501630545" lon="9.533417243510485">
        <ele>1915.0799999999999</ele>
        <time>2014-09-28T13:36:25Z</time>
      </trkpt>
      <trkpt lat="45.950000546872616" lon="9.53343559987843">
        <ele>1914.5999999999999</ele>
        <time>2014-09-28T13:36:27Z</time>
      </trkpt>
      <trkpt lat="45.949882362037897" lon="9.533572308719158">
        <ele>1912.6800000000001</ele>
        <time>2014-09-28T13:36:39Z</time>
      </trkpt>
      <trkpt lat="45.949846906587481" lon="9.533683117479086">
        <ele>1910.76</ele>
        <time>2014-09-28T13:36:47Z</time>
      </trkpt>
      <trkpt lat="45.949718579649925" lon="9.533850168809295">
        <ele>1907.3900000000001</ele>
        <time>2014-09-28T13:37:01Z</time>
      </trkpt>
      <trkpt lat="45.949550522491336" lon="9.533852767199278">
        <ele>1907.3900000000001</ele>
        <time>2014-09-28T13:37:15Z</time>
      </trkpt>
      <trkpt lat="45.949361342936754" lon="9.533861484378576">
        <ele>1906.4300000000001</ele>
        <time>2014-09-28T13:37:31Z</time>
      </trkpt>
      <trkpt lat="45.949329743161798" lon="9.533876907080412">
        <ele>1905.95</ele>
        <time>2014-09-28T13:37:34Z</time>
      </trkpt>
      <trkpt lat="45.949290348216891" lon="9.533910853788257">
        <ele>1905.47</ele>
        <time>2014-09-28T13:37:38Z</time>
      </trkpt>
      <trkpt lat="45.949257742613554" lon="9.533899454399943">
        <ele>1904.99</ele>
        <time>2014-09-28T13:37:41Z</time>
      </trkpt>
      <trkpt lat="45.949144922196865" lon="9.533953852951527">
        <ele>1902.5899999999999</ele>
        <time>2014-09-28T13:37:55Z</time>
      </trkpt>
      <trkpt lat="45.94911927357316" lon="9.533990398049355">
        <ele>1902.1099999999999</ele>
        <time>2014-09-28T13:37:59Z</time>
      </trkpt>
      <trkpt lat="45.949121955782175" lon="9.534030966460705">
        <ele>1901.1400000000001</ele>
        <time>2014-09-28T13:38:02Z</time>
      </trkpt>
      <trkpt lat="45.94907090999186" lon="9.534118473529816">
        <ele>1898.26</ele>
        <time>2014-09-28T13:38:11Z</time>
      </trkpt>
      <trkpt lat="45.948933279141784" lon="9.534208495169878">
        <ele>1894.9000000000001</ele>
        <time>2014-09-28T13:38:25Z</time>
      </trkpt>
      <trkpt lat="45.948790451511741" lon="9.53426867723465">
        <ele>1892.97</ele>
        <time>2014-09-28T13:38:37Z</time>
      </trkpt>
      <trkpt lat="45.94873177818954" lon="9.534251661971211">
        <ele>1892.01</ele>
        <time>2014-09-28T13:38:42Z</time>
      </trkpt>
      <trkpt lat="45.948646701872349" lon="9.53424621373415">
        <ele>1890.5699999999999</ele>
        <time>2014-09-28T13:38:49Z</time>
      </trkpt>
      <trkpt lat="45.948615688830614" lon="9.534270521253347">
        <ele>1890.5699999999999</ele>
        <time>2014-09-28T13:38:53Z</time>
      </trkpt>
      <trkpt lat="45.948550896719098" lon="9.534375127404928">
        <ele>1888.6500000000001</ele>
        <time>2014-09-28T13:39:03Z</time>
      </trkpt>
      <trkpt lat="45.948478812351823" lon="9.534451235085726">
        <ele>1887.21</ele>
        <time>2014-09-28T13:39:14Z</time>
      </trkpt>
      <trkpt lat="45.948475627228618" lon="9.534490797668695">
        <ele>1886.72</ele>
        <time>2014-09-28T13:39:17Z</time>
      </trkpt>
      <trkpt lat="45.948463724926114" lon="9.534570509567857">
        <ele>1885.76</ele>
        <time>2014-09-28T13:39:24Z</time>
      </trkpt>
      <trkpt lat="45.948452409356833" lon="9.534680061042309">
        <ele>1883.8399999999999</ele>
        <time>2014-09-28T13:39:34Z</time>
      </trkpt>
      <trkpt lat="45.948458528146148" lon="9.534700512886047">
        <ele>1883.8399999999999</ele>
        <time>2014-09-28T13:39:36Z</time>
      </trkpt>
      <trkpt lat="45.948393316939473" lon="9.534830348566175">
        <ele>1880.48</ele>
        <time>2014-09-28T13:39:50Z</time>
      </trkpt>
      <trkpt lat="45.948356436565518" lon="9.534892207011581">
        <ele>1878.0699999999999</ele>
        <time>2014-09-28T13:39:59Z</time>
      </trkpt>
      <trkpt lat="45.948326764628291" lon="9.534935457631946">
        <ele>1876.6300000000001</ele>
        <time>2014-09-28T13:40:12Z</time>
      </trkpt>
      <trkpt lat="45.948320226743817" lon="9.534918190911412">
        <ele>1876.1500000000001</ele>
        <time>2014-09-28T13:40:32Z</time>
      </trkpt>
      <trkpt lat="45.948326513171196" lon="9.534875946119428">
        <ele>1876.1500000000001</ele>
        <time>2014-09-28T13:40:48Z</time>
      </trkpt>
      <trkpt lat="45.948310503736138" lon="9.534939229488373">
        <ele>1875.6700000000001</ele>
        <time>2014-09-28T13:41:08Z</time>
      </trkpt>
      <trkpt lat="45.948273036628962" lon="9.535082643851638">
        <ele>1872.79</ele>
        <time>2014-09-28T13:41:19Z</time>
      </trkpt>
      <trkpt lat="45.948276640847325" lon="9.535111309960485">
        <ele>1872.3</ele>
        <time>2014-09-28T13:41:21Z</time>
      </trkpt>
      <trkpt lat="45.948268007487059" lon="9.535137796774507">
        <ele>1871.8199999999999</ele>
        <time>2014-09-28T13:41:23Z</time>
      </trkpt>
      <trkpt lat="45.948246465995908" lon="9.535169145092368">
        <ele>1870.8599999999999</ele>
        <time>2014-09-28T13:41:26Z</time>
      </trkpt>
      <trkpt lat="45.948200281709433" lon="9.535242738202214">
        <ele>1868.9400000000001</ele>
        <time>2014-09-28T13:41:34Z</time>
      </trkpt>
      <trkpt lat="45.948153929784894" lon="9.535280456766486">
        <ele>1867.98</ele>
        <time>2014-09-28T13:41:42Z</time>
      </trkpt>
      <trkpt lat="45.948042366653681" lon="9.535464690998197">
        <ele>1868.9400000000001</ele>
        <time>2014-09-28T13:41:58Z</time>
      </trkpt>
      <trkpt lat="45.948030212894082" lon="9.535483382642269">
        <ele>1869.4200000000001</ele>
        <time>2014-09-28T13:42:00Z</time>
      </trkpt>
      <trkpt lat="45.947998948395252" lon="9.535565190017223">
        <ele>1868.9400000000001</ele>
        <time>2014-09-28T13:42:05Z</time>
      </trkpt>
      <trkpt lat="45.947908759117126" lon="9.535752357915044">
        <ele>1870.3800000000001</ele>
        <time>2014-09-28T13:42:20Z</time>
      </trkpt>
      <trkpt lat="45.947899874299765" lon="9.53591438010335">
        <ele>1872.79</ele>
        <time>2014-09-28T13:42:33Z</time>
      </trkpt>
      <trkpt lat="45.94779510051012" lon="9.536144379526377">
        <ele>1872.3</ele>
        <time>2014-09-28T13:42:52Z</time>
      </trkpt>
      <trkpt lat="45.947715472429991" lon="9.536346970126033">
        <ele>1872.79</ele>
        <time>2014-09-28T13:43:10Z</time>
      </trkpt>
      <trkpt lat="45.947573902085423" lon="9.536718539893627">
        <ele>1871.3399999999999</ele>
        <time>2014-09-28T13:43:33Z</time>
      </trkpt>
      <trkpt lat="45.947564514353871" lon="9.536785846576095">
        <ele>1871.8199999999999</ele>
        <time>2014-09-28T13:43:38Z</time>
      </trkpt>
      <trkpt lat="45.947555880993605" lon="9.536838065832853">
        <ele>1871.8199999999999</ele>
        <time>2014-09-28T13:43:41Z</time>
      </trkpt>
      <trkpt lat="45.947530651465058" lon="9.536890452727675">
        <ele>1872.3</ele>
        <time>2014-09-28T13:43:45Z</time>
      </trkpt>
      <trkpt lat="45.947458064183593" lon="9.53705825842917">
        <ele>1872.79</ele>
        <time>2014-09-28T13:43:57Z</time>
      </trkpt>
      <trkpt lat="45.947445323690772" lon="9.53707292675972">
        <ele>1872.79</ele>
        <time>2014-09-28T13:43:58Z</time>
      </trkpt>
      <trkpt lat="45.947426212951541" lon="9.537181640043855">
        <ele>1871.3399999999999</ele>
        <time>2014-09-28T13:44:04Z</time>
      </trkpt>
      <trkpt lat="45.947410874068737" lon="9.537208629772067">
        <ele>1871.3399999999999</ele>
        <time>2014-09-28T13:44:06Z</time>
      </trkpt>
      <trkpt lat="45.947398217394948" lon="9.537312062457204">
        <ele>1870.8599999999999</ele>
        <time>2014-09-28T13:44:13Z</time>
      </trkpt>
      <trkpt lat="45.94725270755589" lon="9.537554886192083">
        <ele>1870.3800000000001</ele>
        <time>2014-09-28T13:44:29Z</time>
      </trkpt>
      <trkpt lat="45.947093199938536" lon="9.537737527862191">
        <ele>1870.8599999999999</ele>
        <time>2014-09-28T13:44:44Z</time>
      </trkpt>
      <trkpt lat="45.946883400902152" lon="9.537834087386727">
        <ele>1869.9000000000001</ele>
        <time>2014-09-28T13:45:02Z</time>
      </trkpt>
      <trkpt lat="45.94686328433454" lon="9.537877002730966">
        <ele>1870.8599999999999</ele>
        <time>2014-09-28T13:45:06Z</time>
      </trkpt>
      <trkpt lat="45.946796899661422" lon="9.537947326898575">
        <ele>1871.3399999999999</ele>
        <time>2014-09-28T13:45:12Z</time>
      </trkpt>
      <trkpt lat="45.946552902460098" lon="9.538100380450487">
        <ele>1870.3800000000001</ele>
        <time>2014-09-28T13:45:32Z</time>
      </trkpt>
      <trkpt lat="45.946363639086485" lon="9.538326691836119">
        <ele>1869.9000000000001</ele>
        <time>2014-09-28T13:45:51Z</time>
      </trkpt>
      <trkpt lat="45.946177393198013" lon="9.538512686267495">
        <ele>1868.9400000000001</ele>
        <time>2014-09-28T13:46:07Z</time>
      </trkpt>
      <trkpt lat="45.945983938872814" lon="9.538639839738607">
        <ele>1868.9400000000001</ele>
        <time>2014-09-28T13:46:23Z</time>
      </trkpt>
      <trkpt lat="45.94582543708384" lon="9.538755677640438">
        <ele>1868.9400000000001</ele>
        <time>2014-09-28T13:46:37Z</time>
      </trkpt>
      <trkpt lat="45.945603400468826" lon="9.538850644603372">
        <ele>1869.9000000000001</ele>
        <time>2014-09-28T13:46:56Z</time>
      </trkpt>
      <trkpt lat="45.945474319159985" lon="9.539023647084832">
        <ele>1871.3399999999999</ele>
        <time>2014-09-28T13:47:11Z</time>
      </trkpt>
      <trkpt lat="45.945266699418426" lon="9.539196230471134">
        <ele>1871.3399999999999</ele>
        <time>2014-09-28T13:47:29Z</time>
      </trkpt>
      <trkpt lat="45.945256976410747" lon="9.539206204935908">
        <ele>1871.3399999999999</ele>
        <time>2014-09-28T13:47:30Z</time>
      </trkpt>
      <trkpt lat="45.945223364979029" lon="9.539200086146593">
        <ele>1871.3399999999999</ele>
        <time>2014-09-28T13:47:33Z</time>
      </trkpt>
      <trkpt lat="45.945132505148649" lon="9.539226237684488">
        <ele>1871.8199999999999</ele>
        <time>2014-09-28T13:47:40Z</time>
      </trkpt>
      <trkpt lat="45.945080872625113" lon="9.539230177178979">
        <ele>1872.3</ele>
        <time>2014-09-28T13:47:45Z</time>
      </trkpt>
      <trkpt lat="45.945015996694565" lon="9.539206372573972">
        <ele>1872.79</ele>
        <time>2014-09-28T13:47:52Z</time>
      </trkpt>
      <trkpt lat="45.944869983941317" lon="9.539167480543256">
        <ele>1874.23</ele>
        <time>2014-09-28T13:48:07Z</time>
      </trkpt>
      <trkpt lat="45.944856321439147" lon="9.539140909910202">
        <ele>1874.71</ele>
        <time>2014-09-28T13:48:09Z</time>
      </trkpt>
      <trkpt lat="45.944670075550675" lon="9.538912083953619">
        <ele>1871.8199999999999</ele>
        <time>2014-09-28T13:48:27Z</time>
      </trkpt>
      <trkpt lat="45.944488439708948" lon="9.538799012079835">
        <ele>1871.3399999999999</ele>
        <time>2014-09-28T13:48:44Z</time>
      </trkpt>
      <trkpt lat="45.944337146356702" lon="9.538829857483506">
        <ele>1870.3800000000001</ele>
        <time>2014-09-28T13:48:56Z</time>
      </trkpt>
      <trkpt lat="45.944169675931334" lon="9.538842933252454">
        <ele>1867.5</ele>
        <time>2014-09-28T13:49:10Z</time>
      </trkpt>
      <trkpt lat="45.943948645144701" lon="9.538779063150287">
        <ele>1867.02</ele>
        <time>2014-09-28T13:49:28Z</time>
      </trkpt>
      <trkpt lat="45.943661145865917" lon="9.538570521399379">
        <ele>1867.02</ele>
        <time>2014-09-28T13:49:52Z</time>
      </trkpt>
      <trkpt lat="45.943444306030869" lon="9.53838687390089">
        <ele>1867.5</ele>
        <time>2014-09-28T13:50:12Z</time>
      </trkpt>
      <trkpt lat="45.943218329921365" lon="9.538210099563003">
        <ele>1868.46</ele>
        <time>2014-09-28T13:50:33Z</time>
      </trkpt>
      <trkpt lat="45.943005513399839" lon="9.53799401409924">
        <ele>1868.46</ele>
        <time>2014-09-28T13:50:54Z</time>
      </trkpt>
      <trkpt lat="45.942812478169799" lon="9.5378562156111">
        <ele>1867.5</ele>
        <time>2014-09-28T13:51:12Z</time>
      </trkpt>
      <trkpt lat="45.942641571164131" lon="9.537849090993404">
        <ele>1867.98</ele>
        <time>2014-09-28T13:51:27Z</time>
      </trkpt>
      <trkpt lat="45.942621286958456" lon="9.537838781252503">
        <ele>1867.98</ele>
        <time>2014-09-28T13:51:29Z</time>
      </trkpt>
      <trkpt lat="45.94258826225996" lon="9.537811204791069">
        <ele>1867.5</ele>
        <time>2014-09-28T13:51:33Z</time>
      </trkpt>
      <trkpt lat="45.942576946690679" lon="9.537747753784061">
        <ele>1867.5</ele>
        <time>2014-09-28T13:51:38Z</time>
      </trkpt>
      <trkpt lat="45.942592704668641" lon="9.537731241434813">
        <ele>1867.5</ele>
        <time>2014-09-28T13:51:52Z</time>
      </trkpt>
      <trkpt lat="45.942566301673651" lon="9.537748591974378">
        <ele>1866.54</ele>
        <time>2014-09-28T13:52:13Z</time>
      </trkpt>
      <trkpt lat="45.94259362667799" lon="9.537744149565697">
        <ele>1867.02</ele>
        <time>2014-09-28T13:52:34Z</time>
      </trkpt>
      <trkpt lat="45.942560601979494" lon="9.537683632224798">
        <ele>1866.0599999999999</ele>
        <time>2014-09-28T13:52:47Z</time>
      </trkpt>
      <trkpt lat="45.942552890628576" lon="9.537679525092244">
        <ele>1865.5799999999999</ele>
        <time>2014-09-28T13:53:03Z</time>
      </trkpt>
      <trkpt lat="45.942555489018559" lon="9.537683632224798">
        <ele>1862.21</ele>
        <time>2014-09-28T13:53:08Z</time>
      </trkpt>
      <trkpt lat="45.942555321380496" lon="9.537682961672545">
        <ele>1867.98</ele>
        <time>2014-09-28T13:53:09Z</time>
      </trkpt>
      <trkpt lat="45.942574264481664" lon="9.537709951400757">
        <ele>1866.54</ele>
        <time>2014-09-28T13:53:25Z</time>
      </trkpt>
      <trkpt lat="45.942574180662632" lon="9.537711460143328">
        <ele>1865.5799999999999</ele>
        <time>2014-09-28T13:53:44Z</time>
      </trkpt>
      <trkpt lat="45.942583903670311" lon="9.53769444487989">
        <ele>1865.5799999999999</ele>
        <time>2014-09-28T13:54:05Z</time>
      </trkpt>
      <trkpt lat="45.942583233118057" lon="9.537705089896917">
        <ele>1865.5799999999999</ele>
        <time>2014-09-28T13:54:24Z</time>
      </trkpt>
      <trkpt lat="45.94257946126163" lon="9.537699641659856">
        <ele>1865.5799999999999</ele>
        <time>2014-09-28T13:54:45Z</time>
      </trkpt>
      <trkpt lat="45.942535288631916" lon="9.537658905610442">
        <ele>1864.1300000000001</ele>
        <time>2014-09-28T13:55:04Z</time>
      </trkpt>
      <trkpt lat="45.942534618079662" lon="9.537662426009774">
        <ele>1864.1300000000001</ele>
        <time>2014-09-28T13:55:24Z</time>
      </trkpt>
      <trkpt lat="45.942542161792517" lon="9.53764851205051">
        <ele>1864.1300000000001</ele>
        <time>2014-09-28T13:55:30Z</time>
      </trkpt>
      <trkpt lat="45.942529840394855" lon="9.537678770720959">
        <ele>1864.6099999999999</ele>
        <time>2014-09-28T13:55:43Z</time>
      </trkpt>
      <trkpt lat="45.942467143759131" lon="9.537668544799089">
        <ele>1862.6900000000001</ele>
        <time>2014-09-28T13:55:57Z</time>
      </trkpt>
      <trkpt lat="45.942439902573824" lon="9.537661084905267">
        <ele>1861.73</ele>
        <time>2014-09-28T13:56:05Z</time>
      </trkpt>
      <trkpt lat="45.942391874268651" lon="9.537640968337655">
        <ele>1859.8099999999999</ele>
        <time>2014-09-28T13:56:10Z</time>
      </trkpt>
      <trkpt lat="45.942344013601542" lon="9.537516580894589">
        <ele>1856.4400000000001</ele>
        <time>2014-09-28T13:56:19Z</time>
      </trkpt>
      <trkpt lat="45.942274276167154" lon="9.537389343604446">
        <ele>1853.5599999999999</ele>
        <time>2014-09-28T13:56:28Z</time>
      </trkpt>
      <trkpt lat="45.942136310040951" lon="9.537251712754369">
        <ele>1849.23</ele>
        <time>2014-09-28T13:56:42Z</time>
      </trkpt>
      <trkpt lat="45.942112002521753" lon="9.537233104929328">
        <ele>1848.75</ele>
        <time>2014-09-28T13:56:44Z</time>
      </trkpt>
      <trkpt lat="45.941978814080358" lon="9.537177113816142">
        <ele>1846.3499999999999</ele>
        <time>2014-09-28T13:56:55Z</time>
      </trkpt>
      <trkpt lat="45.941899186000228" lon="9.537116345018148">
        <ele>1845.3900000000001</ele>
        <time>2014-09-28T13:57:02Z</time>
      </trkpt>
      <trkpt lat="45.94172534532845" lon="9.537017187103629">
        <ele>1842.98</ele>
        <time>2014-09-28T13:57:18Z</time>
      </trkpt>
      <trkpt lat="45.941531388089061" lon="9.536987598985434">
        <ele>1839.6199999999999</ele>
        <time>2014-09-28T13:57:35Z</time>
      </trkpt>
      <trkpt lat="45.941399205476046" lon="9.536972008645535">
        <ele>1836.74</ele>
        <time>2014-09-28T13:57:46Z</time>
      </trkpt>
      <trkpt lat="45.941360397264361" lon="9.53695516102016">
        <ele>1834.8099999999999</ele>
        <time>2014-09-28T13:57:49Z</time>
      </trkpt>
      <trkpt lat="45.941239362582564" lon="9.536849046126008">
        <ele>1831.45</ele>
        <time>2014-09-28T13:58:02Z</time>
      </trkpt>
      <trkpt lat="45.941230896860361" lon="9.536837814375758">
        <ele>1831.45</ele>
        <time>2014-09-28T13:58:03Z</time>
      </trkpt>
      <trkpt lat="45.941187981516123" lon="9.536827923730016">
        <ele>1830.49</ele>
        <time>2014-09-28T13:58:07Z</time>
      </trkpt>
      <trkpt lat="45.941154537722468" lon="9.536819206550717">
        <ele>1829.53</ele>
        <time>2014-09-28T13:58:10Z</time>
      </trkpt>
      <trkpt lat="45.94111648388207" lon="9.536822307854891">
        <ele>1828.0799999999999</ele>
        <time>2014-09-28T13:58:13Z</time>
      </trkpt>
      <trkpt lat="45.941082118079066" lon="9.536800598725677">
        <ele>1826.6400000000001</ele>
        <time>2014-09-28T13:58:16Z</time>
      </trkpt>
      <trkpt lat="45.941057223826647" lon="9.536733962595463">
        <ele>1825.2</ele>
        <time>2014-09-28T13:58:20Z</time>
      </trkpt>
      <trkpt lat="45.941008189693093" lon="9.53673186711967">
        <ele>1823.76</ele>
        <time>2014-09-28T13:58:25Z</time>
      </trkpt>
      <trkpt lat="45.940968794748187" lon="9.536748714745045">
        <ele>1822.3199999999999</ele>
        <time>2014-09-28T13:58:28Z</time>
      </trkpt>
      <trkpt lat="45.940952952951193" lon="9.536770088598132">
        <ele>1821.3499999999999</ele>
        <time>2014-09-28T13:58:31Z</time>
      </trkpt>
      <trkpt lat="45.940927639603615" lon="9.536831947043538">
        <ele>1819.4300000000001</ele>
        <time>2014-09-28T13:58:35Z</time>
      </trkpt>
      <trkpt lat="45.940913977101445" lon="9.53686136752367">
        <ele>1818.95</ele>
        <time>2014-09-28T13:58:37Z</time>
      </trkpt>
      <trkpt lat="45.940803755074739" lon="9.536906713619828">
        <ele>1815.5899999999999</ele>
        <time>2014-09-28T13:58:47Z</time>
      </trkpt>
      <trkpt lat="45.940662268549204" lon="9.536941079422832">
        <ele>1812.22</ele>
        <time>2014-09-28T13:58:58Z</time>
      </trkpt>
      <trkpt lat="45.940474597737193" lon="9.536892715841532">
        <ele>1809.8199999999999</ele>
        <time>2014-09-28T13:59:14Z</time>
      </trkpt>
      <trkpt lat="45.940448949113488" lon="9.536898834630847">
        <ele>1809.8199999999999</ele>
        <time>2014-09-28T13:59:16Z</time>
      </trkpt>
      <trkpt lat="45.940373763442039" lon="9.536888943985105">
        <ele>1806.45</ele>
        <time>2014-09-28T13:59:23Z</time>
      </trkpt>
      <trkpt lat="45.940272342413664" lon="9.53691610135138">
        <ele>1802.6099999999999</ele>
        <time>2014-09-28T13:59:32Z</time>
      </trkpt>
      <trkpt lat="45.940160527825356" lon="9.536900008097291">
        <ele>1799.24</ele>
        <time>2014-09-28T13:59:42Z</time>
      </trkpt>
      <trkpt lat="45.940128844231367" lon="9.536877796053886">
        <ele>1798.28</ele>
        <time>2014-09-28T13:59:45Z</time>
      </trkpt>
      <trkpt lat="45.940081905573606" lon="9.53677830286324">
        <ele>1797.3199999999999</ele>
        <time>2014-09-28T13:59:51Z</time>
      </trkpt>
      <trkpt lat="45.940057598054409" lon="9.5367372315377">
        <ele>1796.3599999999999</ele>
        <time>2014-09-28T13:59:54Z</time>
      </trkpt>
      <trkpt lat="45.939980484545231" lon="9.536578813567758">
        <ele>1795.4000000000001</ele>
        <time>2014-09-28T14:00:05Z</time>
      </trkpt>
      <trkpt lat="45.939906723797321" lon="9.536469429731369">
        <ele>1793</ele>
        <time>2014-09-28T14:00:14Z</time>
      </trkpt>
      <trkpt lat="45.939884511753917" lon="9.53643087297678">
        <ele>1792.52</ele>
        <time>2014-09-28T14:00:17Z</time>
      </trkpt>
      <trkpt lat="45.939878895878792" lon="9.536353424191475">
        <ele>1791.0699999999999</ele>
        <time>2014-09-28T14:00:21Z</time>
      </trkpt>
      <trkpt lat="45.939835980534554" lon="9.536205567419529">
        <ele>1786.75</ele>
        <time>2014-09-28T14:00:31Z</time>
      </trkpt>
      <trkpt lat="45.939827598631382" lon="9.536192826926708">
        <ele>1786.75</ele>
        <time>2014-09-28T14:00:32Z</time>
      </trkpt>
      <trkpt lat="45.939807062968612" lon="9.536175057291985">
        <ele>1786.27</ele>
        <time>2014-09-28T14:00:34Z</time>
      </trkpt>
      <trkpt lat="45.939687201753259" lon="9.53610448166728">
        <ele>1782.9000000000001</ele>
        <time>2014-09-28T14:00:45Z</time>
      </trkpt>
      <trkpt lat="45.939609166234732" lon="9.536099368706346">
        <ele>1781.46</ele>
        <time>2014-09-28T14:00:51Z</time>
      </trkpt>
      <trkpt lat="45.939486790448427" lon="9.536088220775127">
        <ele>1777.6099999999999</ele>
        <time>2014-09-28T14:01:03Z</time>
      </trkpt>
      <trkpt lat="45.939445802941918" lon="9.536081263795495">
        <ele>1776.1700000000001</ele>
        <time>2014-09-28T14:01:07Z</time>
      </trkpt>
      <trkpt lat="45.939372628927231" lon="9.536118730902672">
        <ele>1774.25</ele>
        <time>2014-09-28T14:01:13Z</time>
      </trkpt>
      <trkpt lat="45.93929735943675" lon="9.5361811760813">
        <ele>1771.8499999999999</ele>
        <time>2014-09-28T14:01:20Z</time>
      </trkpt>
      <trkpt lat="45.939204320311546" lon="9.536174889653921">
        <ele>1768.48</ele>
        <time>2014-09-28T14:01:28Z</time>
      </trkpt>
      <trkpt lat="45.939147910103202" lon="9.536158377304673">
        <ele>1767.04</ele>
        <time>2014-09-28T14:01:33Z</time>
      </trkpt>
      <trkpt lat="45.939046069979668" lon="9.536182517185807">
        <ele>1765.5999999999999</ele>
        <time>2014-09-28T14:01:40Z</time>
      </trkpt>
      <trkpt lat="45.938981361687183" lon="9.536212356761098">
        <ele>1764.6400000000001</ele>
        <time>2014-09-28T14:01:46Z</time>
      </trkpt>
      <trkpt lat="45.938883796334267" lon="9.536206405609846">
        <ele>1762.23</ele>
        <time>2014-09-28T14:01:54Z</time>
      </trkpt>
      <trkpt lat="45.938841551542282" lon="9.536212859675288">
        <ele>1760.3099999999999</ele>
        <time>2014-09-28T14:01:58Z</time>
      </trkpt>
      <trkpt lat="45.938727306202054" lon="9.53625007532537">
        <ele>1756.95</ele>
        <time>2014-09-28T14:02:08Z</time>
      </trkpt>
      <trkpt lat="45.938502755016088" lon="9.536262815818191">
        <ele>1754.0599999999999</ele>
        <time>2014-09-28T14:02:24Z</time>
      </trkpt>
      <trkpt lat="45.938415583223104" lon="9.536274801939726">
        <ele>1750.7</ele>
        <time>2014-09-28T14:02:32Z</time>
      </trkpt>
      <trkpt lat="45.938323633745313" lon="9.536312939599156">
        <ele>1747.8099999999999</ele>
        <time>2014-09-28T14:02:41Z</time>
      </trkpt>
      <trkpt lat="45.938208382576704" lon="9.536318220198154">
        <ele>1744.9300000000001</ele>
        <time>2014-09-28T14:02:50Z</time>
      </trkpt>
      <trkpt lat="45.938194217160344" lon="9.536305395886302">
        <ele>1744.45</ele>
        <time>2014-09-28T14:02:51Z</time>
      </trkpt>
      <trkpt lat="45.93798634596169" lon="9.536322830244899">
        <ele>1742.05</ele>
        <time>2014-09-28T14:03:08Z</time>
      </trkpt>
      <trkpt lat="45.937863970175385" lon="9.536325093358755">
        <ele>1740.5999999999999</ele>
        <time>2014-09-28T14:03:17Z</time>
      </trkpt>
      <trkpt lat="45.937637826427817" lon="9.536294499412179">
        <ele>1738.6800000000001</ele>
        <time>2014-09-28T14:03:34Z</time>
      </trkpt>
      <trkpt lat="45.937500027939677" lon="9.536118563264608">
        <ele>1740.5999999999999</ele>
        <time>2014-09-28T14:03:50Z</time>
      </trkpt>
      <trkpt lat="45.937436409294605" lon="9.536051843315363">
        <ele>1741.0799999999999</ele>
        <time>2014-09-28T14:04:01Z</time>
      </trkpt>
      <trkpt lat="45.93743565492332" lon="9.536071540787816">
        <ele>1738.2</ele>
        <time>2014-09-28T14:04:14Z</time>
      </trkpt>
      <trkpt lat="45.937442779541016" lon="9.536062320694327">
        <ele>1739.6400000000001</ele>
        <time>2014-09-28T14:04:33Z</time>
      </trkpt>
      <trkpt lat="45.937435990199447" lon="9.536058129742742">
        <ele>1740.5999999999999</ele>
        <time>2014-09-28T14:04:52Z</time>
      </trkpt>
      <trkpt lat="45.937446970492601" lon="9.536075480282307">
        <ele>1740.5999999999999</ele>
        <time>2014-09-28T14:05:08Z</time>
      </trkpt>
      <trkpt lat="45.937434146180749" lon="9.53607321716845">
        <ele>1739.6400000000001</ele>
        <time>2014-09-28T14:05:13Z</time>
      </trkpt>
      <trkpt lat="45.937260137870908" lon="9.535903567448258">
        <ele>1738.6800000000001</ele>
        <time>2014-09-28T14:05:29Z</time>
      </trkpt>
      <trkpt lat="45.937094427645206" lon="9.535808516666293">
        <ele>1735.3199999999999</ele>
        <time>2014-09-28T14:05:43Z</time>
      </trkpt>
      <trkpt lat="45.937007004395127" lon="9.535658145323396">
        <ele>1732.4300000000001</ele>
        <time>2014-09-28T14:05:54Z</time>
      </trkpt>
      <trkpt lat="45.936893345788121" lon="9.53566811978817">
        <ele>1729.55</ele>
        <time>2014-09-28T14:06:04Z</time>
      </trkpt>
      <trkpt lat="45.936828218400478" lon="9.535738192498684">
        <ele>1728.1099999999999</ele>
        <time>2014-09-28T14:06:12Z</time>
      </trkpt>
      <trkpt lat="45.936792679131031" lon="9.53573458828032">
        <ele>1726.6700000000001</ele>
        <time>2014-09-28T14:06:15Z</time>
      </trkpt>
      <trkpt lat="45.936769293621182" lon="9.535737354308367">
        <ele>1725.7</ele>
        <time>2014-09-28T14:06:17Z</time>
      </trkpt>
      <trkpt lat="45.936637027189136" lon="9.535735258832574">
        <ele>1721.8599999999999</ele>
        <time>2014-09-28T14:06:28Z</time>
      </trkpt>
      <trkpt lat="45.936522111296654" lon="9.535709023475647">
        <ele>1718.97</ele>
        <time>2014-09-28T14:06:38Z</time>
      </trkpt>
      <trkpt lat="45.936489589512348" lon="9.535702234134078">
        <ele>1718.01</ele>
        <time>2014-09-28T14:06:41Z</time>
      </trkpt>
      <trkpt lat="45.936446087434888" lon="9.53570039011538">
        <ele>1716.5699999999999</ele>
        <time>2014-09-28T14:06:45Z</time>
      </trkpt>
      <trkpt lat="45.9363401401788" lon="9.535643979907036">
        <ele>1713.21</ele>
        <time>2014-09-28T14:06:55Z</time>
      </trkpt>
      <trkpt lat="45.936248358339071" lon="9.535540798678994">
        <ele>1709.8399999999999</ele>
        <time>2014-09-28T14:07:05Z</time>
      </trkpt>
      <trkpt lat="45.936148948967457" lon="9.535454548895359">
        <ele>1706.96</ele>
        <time>2014-09-28T14:07:15Z</time>
      </trkpt>
      <trkpt lat="45.936091030016541" lon="9.53540082089603">
        <ele>1706.96</ele>
        <time>2014-09-28T14:07:20Z</time>
      </trkpt>
      <trkpt lat="45.935987681150436" lon="9.535302752628923">
        <ele>1704.55</ele>
        <time>2014-09-28T14:07:30Z</time>
      </trkpt>
      <trkpt lat="45.935886427760124" lon="9.535245168954134">
        <ele>1702.1500000000001</ele>
        <time>2014-09-28T14:07:38Z</time>
      </trkpt>
      <trkpt lat="45.935770589858294" lon="9.53506026417017">
        <ele>1699.27</ele>
        <time>2014-09-28T14:07:51Z</time>
      </trkpt>
      <trkpt lat="45.935661792755127" lon="9.534892123192549">
        <ele>1696.8599999999999</ele>
        <time>2014-09-28T14:08:06Z</time>
      </trkpt>
      <trkpt lat="45.935625666752458" lon="9.534847196191549">
        <ele>1695.4200000000001</ele>
        <time>2014-09-28T14:08:10Z</time>
      </trkpt>
      <trkpt lat="45.93555492348969" lon="9.534756084904075">
        <ele>1692.0599999999999</ele>
        <time>2014-09-28T14:08:19Z</time>
      </trkpt>
      <trkpt lat="45.935537405312061" lon="9.534706883132458">
        <ele>1691.0999999999999</ele>
        <time>2014-09-28T14:08:23Z</time>
      </trkpt>
      <trkpt lat="45.935450065881014" lon="9.53459900803864">
        <ele>1687.25</ele>
        <time>2014-09-28T14:08:34Z</time>
      </trkpt>
      <trkpt lat="45.935424417257309" lon="9.534564977511764">
        <ele>1686.77</ele>
        <time>2014-09-28T14:08:37Z</time>
      </trkpt>
      <trkpt lat="45.935344956815243" lon="9.534481409937143">
        <ele>1682.9300000000001</ele>
        <time>2014-09-28T14:08:46Z</time>
      </trkpt>
      <trkpt lat="45.935302041471004" lon="9.534326680004597">
        <ele>1680.52</ele>
        <time>2014-09-28T14:08:55Z</time>
      </trkpt>
      <trkpt lat="45.935191567987204" lon="9.534099949523807">
        <ele>1678.1199999999999</ele>
        <time>2014-09-28T14:09:11Z</time>
      </trkpt>
      <trkpt lat="45.935075394809246" lon="9.534169351682067">
        <ele>1678.1199999999999</ele>
        <time>2014-09-28T14:09:21Z</time>
      </trkpt>
      <trkpt lat="45.935025690123439" lon="9.534114031121135">
        <ele>1675.72</ele>
        <time>2014-09-28T14:09:25Z</time>
      </trkpt>
      <trkpt lat="45.934902476146817" lon="9.53391294926405">
        <ele>1672.8299999999999</ele>
        <time>2014-09-28T14:09:40Z</time>
      </trkpt>
      <trkpt lat="45.934798205271363" lon="9.533763667568564">
        <ele>1669.95</ele>
        <time>2014-09-28T14:09:53Z</time>
      </trkpt>
      <trkpt lat="45.934753865003586" lon="9.533734833821654">
        <ele>1668.02</ele>
        <time>2014-09-28T14:09:58Z</time>
      </trkpt>
      <trkpt lat="45.93466317281127" lon="9.533731648698449">
        <ele>1665.1400000000001</ele>
        <time>2014-09-28T14:10:06Z</time>
      </trkpt>
      <trkpt lat="45.934566194191575" lon="9.533645063638687">
        <ele>1661.78</ele>
        <time>2014-09-28T14:10:15Z</time>
      </trkpt>
      <trkpt lat="45.934552866965532" lon="9.533618995919824">
        <ele>1660.8099999999999</ele>
        <time>2014-09-28T14:10:17Z</time>
      </trkpt>
      <trkpt lat="45.934524703770876" lon="9.533593682572246">
        <ele>1659.8499999999999</ele>
        <time>2014-09-28T14:10:20Z</time>
      </trkpt>
      <trkpt lat="45.934500060975552" lon="9.53358999453485">
        <ele>1659.3699999999999</ele>
        <time>2014-09-28T14:10:22Z</time>
      </trkpt>
      <trkpt lat="45.934475837275386" lon="9.533595778048039">
        <ele>1658.8900000000001</ele>
        <time>2014-09-28T14:10:24Z</time>
      </trkpt>
      <trkpt lat="45.934336446225643" lon="9.533567447215319">
        <ele>1655.05</ele>
        <time>2014-09-28T14:10:35Z</time>
      </trkpt>
      <trkpt lat="45.934218764305115" lon="9.53346149995923">
        <ele>1652.1600000000001</ele>
        <time>2014-09-28T14:10:46Z</time>
      </trkpt>
      <trkpt lat="45.934143075719476" lon="9.533165954053402">
        <ele>1649.76</ele>
        <time>2014-09-28T14:11:02Z</time>
      </trkpt>
      <trkpt lat="45.934115499258041" lon="9.532936876639724">
        <ele>1647.3599999999999</ele>
        <time>2014-09-28T14:11:14Z</time>
      </trkpt>
      <trkpt lat="45.933984741568565" lon="9.532697070389986">
        <ele>1645.4300000000001</ele>
        <time>2014-09-28T14:11:30Z</time>
      </trkpt>
      <trkpt lat="45.933933025225997" lon="9.532402530312538">
        <ele>1642.55</ele>
        <time>2014-09-28T14:11:46Z</time>
      </trkpt>
      <trkpt lat="45.933796484023333" lon="9.532240256667137">
        <ele>1640.1500000000001</ele>
        <time>2014-09-28T14:12:00Z</time>
      </trkpt>
      <trkpt lat="45.933615434914827" lon="9.532033391296864">
        <ele>1639.6700000000001</ele>
        <time>2014-09-28T14:12:17Z</time>
      </trkpt>
      <trkpt lat="45.933435810729861" lon="9.531829627230763">
        <ele>1639.1900000000001</ele>
        <time>2014-09-28T14:12:34Z</time>
      </trkpt>
      <trkpt lat="45.933211678639054" lon="9.531742455437779">
        <ele>1639.1900000000001</ele>
        <time>2014-09-28T14:12:52Z</time>
      </trkpt>
      <trkpt lat="45.933031719177961" lon="9.531503990292549">
        <ele>1638.22</ele>
        <time>2014-09-28T14:13:10Z</time>
      </trkpt>
      <trkpt lat="45.932884449139237" lon="9.531220598146319">
        <ele>1636.3</ele>
        <time>2014-09-28T14:13:27Z</time>
      </trkpt>
      <trkpt lat="45.932784033939242" lon="9.530915496870875">
        <ele>1634.8599999999999</ele>
        <time>2014-09-28T14:13:44Z</time>
      </trkpt>
      <trkpt lat="45.932777244597673" lon="9.530784236267209">
        <ele>1634.3800000000001</ele>
        <time>2014-09-28T14:13:51Z</time>
      </trkpt>
      <trkpt lat="45.93276877887547" lon="9.53071491792798">
        <ele>1634.3800000000001</ele>
        <time>2014-09-28T14:13:55Z</time>
      </trkpt>
      <trkpt lat="45.932735167443752" lon="9.530333960428834">
        <ele>1632.46</ele>
        <time>2014-09-28T14:14:15Z</time>
      </trkpt>
      <trkpt lat="45.932733658701181" lon="9.530271012336016">
        <ele>1632.46</ele>
        <time>2014-09-28T14:14:19Z</time>
      </trkpt>
      <trkpt lat="45.932757714763284" lon="9.52998535707593">
        <ele>1631.01</ele>
        <time>2014-09-28T14:14:34Z</time>
      </trkpt>
      <trkpt lat="45.932813789695501" lon="9.529827693477273">
        <ele>1629.0899999999999</ele>
        <time>2014-09-28T14:14:44Z</time>
      </trkpt>
      <trkpt lat="45.932916384190321" lon="9.529580175876617">
        <ele>1631.01</ele>
        <time>2014-09-28T14:15:00Z</time>
      </trkpt>
      <trkpt lat="45.932931220158935" lon="9.529546480625868">
        <ele>1631.49</ele>
        <time>2014-09-28T14:15:02Z</time>
      </trkpt>
      <trkpt lat="45.933049488812685" lon="9.529336346313357">
        <ele>1632.9400000000001</ele>
        <time>2014-09-28T14:15:18Z</time>
      </trkpt>
      <trkpt lat="45.933106234297156" lon="9.529265938326716">
        <ele>1633.9000000000001</ele>
        <time>2014-09-28T14:15:24Z</time>
      </trkpt>
      <trkpt lat="45.933248726651073" lon="9.529092768207192">
        <ele>1633.9000000000001</ele>
        <time>2014-09-28T14:15:40Z</time>
      </trkpt>
      <trkpt lat="45.933357523754239" lon="9.528905181214213">
        <ele>1633.9000000000001</ele>
        <time>2014-09-28T14:15:54Z</time>
      </trkpt>
      <trkpt lat="45.933425920084119" lon="9.528767131268978">
        <ele>1634.8599999999999</ele>
        <time>2014-09-28T14:16:04Z</time>
      </trkpt>
      <trkpt lat="45.933454837650061" lon="9.528713403269649">
        <ele>1634.8599999999999</ele>
        <time>2014-09-28T14:16:08Z</time>
      </trkpt>
      <trkpt lat="45.933517031371593" lon="9.528454737737775">
        <ele>1637.74</ele>
        <time>2014-09-28T14:16:25Z</time>
      </trkpt>
      <trkpt lat="45.933523820713162" lon="9.528342923149467">
        <ele>1638.22</ele>
        <time>2014-09-28T14:16:32Z</time>
      </trkpt>
      <trkpt lat="45.933541087433696" lon="9.528279304504395">
        <ele>1638.7</ele>
        <time>2014-09-28T14:16:36Z</time>
      </trkpt>
      <trkpt lat="45.933546619489789" lon="9.528151731938124">
        <ele>1640.1500000000001</ele>
        <time>2014-09-28T14:16:45Z</time>
      </trkpt>
      <trkpt lat="45.933550978079438" lon="9.528123065829277">
        <ele>1640.6300000000001</ele>
        <time>2014-09-28T14:16:47Z</time>
      </trkpt>
      <trkpt lat="45.933564221486449" lon="9.528011502698064">
        <ele>1641.5899999999999</ele>
        <time>2014-09-28T14:16:55Z</time>
      </trkpt>
      <trkpt lat="45.933581320568919" lon="9.527881080284715">
        <ele>1643.03</ele>
        <time>2014-09-28T14:17:04Z</time>
      </trkpt>
      <trkpt lat="45.933590037748218" lon="9.527843445539475">
        <ele>1640.6300000000001</ele>
        <time>2014-09-28T14:17:07Z</time>
      </trkpt>
      <trkpt lat="45.933598252013326" lon="9.527694750577211">
        <ele>1640.6300000000001</ele>
        <time>2014-09-28T14:17:17Z</time>
      </trkpt>
    </trkseg>
  </trk>

</gpx>